[[{"header":{"parameterUnit":"m.s-1","parameterCategory":1,"la1":30.6,"la2":29.2853,"lo1":-89.7004,"lo2":-87.6739,"dx":0.0162,"dy":0.0183,"nx":112,"ny":82,"refTime":"2022-12-09T06:00:00:Z","depth":0,"parameterNumber":2,"parameterNumberName":"U-component_of_WINDS"},"data":[0.0,0.0,0.0,0.0,0.0,0.0,0.0,0.0,0.0,0.0,0.0,0.0,0.0,0.0,0.0,0.0,0.0,0.0,0.0,0.0,0.0,0.0,0.0,0.0,0.0,0.0,0.0,0.0,0.0,0.0,0.0,0.0,0.0,0.0,0.0,0.0,0.0,0.0,0.0,0.0,0.0,0.0,0.0,0.0,0.0,0.0,0.0,0.0,0.0,0.0,0.0,0.0,0.0,0.0,0.0,0.0,0.0,0.0,0.0,0.0,0.0,0.0,0.0,0.0,0.0,0.0,0.0,0.0,0.0,0.0,0.0,0.0,0.0,0.0,0.0,0.0,0.0,0.0,0.0,0.0,0.0,0.0,0.0,0.0,0.0,0.0,0.0,0.0,0.0,0.0,-1.0695,-1.2479,-1.635,-1.9058,-1.9662,-1.9168,-1.7088,-1.2966,0.0,0.0,0.0,0.0,0.0,0.0,0.0,0.0,0.0,0.0,0.0,0.0,0.0,0.0,0.0,0.0,0.0,0.0,0.0,0.0,0.0,0.0,0.0,0.0,0.0,0.0,0.0,0.0,0.0,0.0,0.0,0.0,0.0,0.0,0.0,0.0,0.0,0.0,0.0,0.0,0.0,0.0,0.0,0.0,0.0,0.0,0.0,0.0,0.0,0.0,0.0,0.0,0.0,0.0,0.0,0.0,0.0,0.0,0.0,0.0,0.0,0.0,0.0,0.0,0.0,0.0,0.0,0.0,0.0,0.0,0.0,0.0,0.0,0.0,0.0,0.0,0.0,0.0,0.0,0.0,0.0,0.0,0.0,0.0,0.0,0.0,0.0,0.0,0.0,0.0,0.0,0.0,0.0,0.0,0.0,0.0,0.0,0.0,0.0,0.0,0.0,0.0,0.0,0.0,-1.0305,-1.5879,-1.7135,-1.8205,-1.9766,-1.8451,-1.6098,-1.2596,0.0,0.0,0.0,0.0,0.0,0.0,0.0,0.0,0.0,0.0,0.0,0.0,0.0,0.0,0.0,0.0,0.0,0.0,0.0,0.0,0.0,0.0,0.0,0.0,0.0,0.0,0.0,0.0,0.0,0.0,0.0,0.0,0.0,0.0,0.0,0.0,0.0,0.0,0.0,0.0,0.0,0.0,0.0,0.0,0.0,0.0,0.0,0.0,0.0,0.0,0.0,0.0,0.0,0.0,0.0,0.0,0.0,0.0,0.0,0.0,0.0,0.0,0.0,0.0,0.0,0.0,0.0,0.0,0.0,0.0,0.0,0.0,0.0,0.0,0.0,0.0,0.0,0.0,0.0,0.0,0.0,0.0,0.0,0.0,0.0,0.0,0.0,0.0,0.0,0.0,0.0,0.0,0.0,0.0,0.0,0.0,0.0,0.0,0.0,0.0,0.0,0.0,0.0,-0.8664,-1.1391,-1.5857,-1.7206,-1.8169,-1.8919,-1.8291,-1.6218,-1.2388,-1.1094,0.0,0.0,0.0,0.0,0.0,0.0,0.0,0.0,0.0,0.0,0.0,0.0,0.0,0.0,0.0,0.0,0.0,0.0,0.0,0.0,0.0,0.0,0.0,0.0,0.0,0.0,0.0,0.0,0.0,0.0,0.0,0.0,0.0,0.0,0.0,0.0,0.0,0.0,0.0,0.0,0.0,0.0,0.0,0.0,0.0,0.0,0.0,0.0,0.0,0.0,0.0,0.0,0.0,0.0,0.0,0.0,0.0,0.0,0.0,0.0,0.0,0.0,0.0,0.0,0.0,0.0,0.0,0.0,0.0,0.0,0.0,0.0,0.0,0.0,0.0,0.0,0.0,0.0,0.0,0.0,0.0,0.0,0.0,0.0,0.0,0.0,0.0,0.0,0.0,0.0,0.0,0.0,0.0,0.0,0.0,0.0,0.0,0.0,0.0,0.0,0.0,0.0,-1.0765,-1.2807,-1.5247,-1.6925,-1.7908,-1.7991,-1.7948,-1.6101,-1.1994,-1.0657,0.0,0.0,0.0,0.0,0.0,0.0,0.0,0.0,0.0,0.0,0.0,0.0,0.0,0.0,0.0,0.0,0.0,0.0,0.0,0.0,0.0,0.0,0.0,0.0,0.0,0.0,0.0,0.0,0.0,0.0,0.0,0.0,0.0,0.0,0.0,0.0,0.0,0.0,0.0,0.0,0.0,0.0,0.0,0.0,0.0,0.0,0.0,0.0,0.0,0.0,0.0,0.0,0.0,0.0,0.0,0.0,0.0,0.0,0.0,0.0,0.0,0.0,0.0,0.0,0.0,0.0,0.0,0.0,0.0,0.0,0.0,0.0,0.0,0.0,0.0,0.0,0.0,0.0,0.0,0.0,0.0,0.0,0.0,0.0,0.0,0.0,0.0,0.0,0.0,0.0,0.0,0.0,0.0,0.0,0.0,0.0,0.0,0.0,0.0,0.0,0.0,0.0,-1.1362,-1.4061,-1.537,-1.6182,-1.6829,-1.7428,-1.6973,-1.497,-1.1137,-1.0101,0.0,0.0,0.0,0.0,0.0,0.0,0.0,0.0,0.0,0.0,0.0,0.0,0.0,0.0,0.0,0.0,0.0,0.0,0.0,0.0,0.0,0.0,0.0,0.0,0.0,0.0,0.0,0.0,0.0,0.0,0.0,0.0,0.0,0.0,0.0,0.0,0.0,0.0,0.0,0.0,0.0,0.0,0.0,0.0,0.0,0.0,0.0,0.0,0.0,0.0,0.0,0.0,0.0,0.0,0.0,0.0,0.0,0.0,0.0,0.0,0.0,0.0,0.0,0.0,0.0,0.0,0.0,0.0,0.0,0.0,0.0,0.0,0.0,0.0,0.0,0.0,0.0,0.0,0.0,0.0,0.0,0.0,0.0,0.0,0.0,0.0,0.0,0.0,0.0,0.0,0.0,0.0,0.0,0.0,0.0,0.0,0.0,0.0,0.0,0.0,0.0,0.0,-1.0567,-1.2845,-1.4294,-1.5347,-1.6049,-1.6256,-1.6405,-1.4854,-1.1042,0.0,0.0,0.0,0.0,0.0,0.0,0.0,0.0,0.0,0.0,0.0,0.0,0.0,0.0,0.0,0.0,0.0,0.0,0.0,0.0,0.0,0.0,0.0,0.0,0.0,0.0,0.0,0.0,0.0,0.0,0.0,0.0,0.0,0.0,0.0,0.0,0.0,0.0,0.0,0.0,0.0,0.0,0.0,0.0,0.0,0.0,0.0,0.0,0.0,0.0,0.0,0.0,0.0,0.0,0.0,0.0,0.0,0.0,0.0,0.0,0.0,0.0,0.0,0.0,0.0,0.0,0.0,0.0,0.0,0.0,0.0,0.0,0.0,0.0,0.0,0.0,0.0,0.0,0.0,0.0,0.0,0.0,0.0,0.0,0.0,0.0,0.0,0.0,0.0,0.0,0.0,0.0,0.0,0.0,0.0,0.0,0.0,0.0,0.0,0.0,0.0,0.0,-0.7783,-1.0518,-1.2578,-1.3674,-1.4732,-1.532,-1.532,-1.5688,-1.4389,-1.0734,0.0,0.0,0.0,0.0,0.0,0.0,0.0,0.0,0.0,0.0,0.0,0.0,0.0,0.0,0.0,0.0,0.0,0.0,0.0,0.0,0.0,0.0,0.0,0.0,0.0,0.0,0.0,0.0,0.0,0.0,0.0,0.0,0.0,0.0,0.0,0.0,0.0,0.0,0.0,0.0,0.0,0.0,0.0,0.0,0.0,0.0,0.0,0.0,0.0,0.0,0.0,0.0,0.0,0.0,0.0,0.0,0.0,0.0,0.0,0.0,0.0,0.0,0.0,0.0,0.0,0.0,0.0,0.0,0.0,0.0,0.0,0.0,0.0,0.0,0.0,0.0,0.0,0.0,0.0,0.0,0.0,0.0,0.0,0.0,0.0,0.0,0.0,0.0,0.0,0.0,0.0,0.0,0.0,0.0,0.0,0.0,0.0,0.0,0.0,0.0,0.0,0.0,-0.7852,-1.1474,-1.3779,-1.3789,-1.434,-1.472,-1.472,-1.472,-1.3339,0.0,0.0,0.0,0.0,0.0,0.0,0.0,0.0,0.0,0.0,0.0,0.0,0.0,0.0,0.0,0.0,0.0,0.0,0.0,0.0,0.0,0.0,0.0,0.0,0.0,0.0,0.0,0.0,0.0,0.0,0.0,0.0,0.0,0.0,0.0,0.0,0.0,0.0,0.0,0.0,0.0,0.0,0.0,0.0,0.0,0.0,0.0,0.0,0.0,0.0,0.0,0.0,0.0,0.0,0.0,0.0,0.0,0.0,0.0,0.0,0.0,0.0,0.0,0.0,0.0,0.0,0.0,0.0,0.0,0.0,0.0,0.0,0.0,0.0,0.0,0.0,0.0,0.0,0.0,0.0,0.0,0.0,0.0,0.0,0.0,0.0,0.0,0.0,0.0,0.0,0.0,0.0,0.0,0.0,0.0,0.0,0.0,0.0,0.0,0.0,0.0,0.0,0.0,-0.8196,-1.1512,-1.3721,-1.3969,-1.4613,-1.4967,-1.4967,-1.5345,-1.4059,-1.0326,0.0,0.0,0.0,0.0,0.0,0.0,0.0,0.0,0.0,0.0,0.0,0.0,0.0,0.0,0.0,0.0,0.0,0.0,0.0,0.0,0.0,0.0,0.0,0.0,0.0,0.0,0.0,0.0,0.0,0.0,0.0,0.0,0.0,0.0,0.0,0.0,0.0,0.0,0.0,0.0,0.0,0.0,0.0,0.0,0.0,0.0,0.0,0.0,0.0,0.0,0.0,0.0,0.0,0.0,0.0,0.0,0.0,0.0,0.0,0.0,0.0,0.0,0.0,0.0,0.0,0.0,0.0,0.0,0.0,0.0,0.0,0.0,0.0,0.0,0.0,0.0,0.0,0.0,0.0,0.0,0.0,0.0,0.0,0.0,0.0,0.0,0.0,0.0,0.0,0.0,0.0,0.0,0.0,0.0,0.0,0.0,0.0,0.0,0.0,0.0,0.0,0.0,-0.8377,-1.1389,-1.3365,-1.361,-1.3664,-1.3762,-1.3762,-1.4106,-1.3047,-1.0219,0.0,0.0,0.0,0.0,0.0,0.0,0.0,0.0,0.0,0.0,0.0,0.0,0.0,0.0,0.0,0.0,0.0,0.0,0.0,0.0,0.0,0.0,0.0,0.0,0.0,0.0,0.0,0.0,0.0,0.0,0.0,0.0,0.0,0.0,0.0,0.0,0.0,0.0,0.0,0.0,0.0,0.0,0.0,0.0,0.0,0.0,0.0,0.0,0.0,0.0,0.0,0.0,0.0,0.0,0.0,0.0,0.0,0.0,0.0,0.0,0.0,0.0,0.0,0.0,0.0,0.0,0.0,0.0,0.0,0.0,0.0,0.0,0.0,0.0,0.0,0.0,0.0,0.0,0.0,0.0,0.0,0.0,0.0,0.0,0.0,0.0,0.0,0.0,0.0,0.0,0.0,0.0,0.0,0.0,0.0,0.0,0.0,0.0,0.0,0.0,0.0,0.0,-0.8366,-1.122,-1.293,-1.2919,-1.229,-1.1825,-1.1825,-1.1825,-1.1253,-0.9919,0.0,0.0,0.0,0.0,0.0,0.0,0.0,0.0,0.0,0.0,0.0,0.0,0.0,0.0,0.0,0.0,0.0,0.0,0.0,0.0,0.0,0.0,0.0,0.0,0.0,0.0,0.0,0.0,0.0,0.0,0.0,0.0,0.0,0.0,0.0,0.0,0.0,0.0,0.0,0.0,0.0,0.0,0.0,0.0,0.0,0.0,0.0,0.0,0.0,0.0,0.0,0.0,0.0,0.0,0.0,0.0,0.0,0.0,0.0,0.0,-0.6641,-0.5629,0.0,0.0,0.0,0.0,0.0,0.0,0.0,0.0,0.0,0.0,0.0,0.0,0.0,0.0,0.0,0.0,0.0,0.0,0.0,0.0,0.0,0.0,0.0,0.0,0.0,0.0,0.0,0.0,0.0,0.0,0.0,0.0,0.0,0.0,0.0,0.0,0.0,0.0,0.0,0.0,-0.8062,-1.1382,-1.3332,-1.2983,-1.2837,-1.271,-1.271,-1.271,-1.1955,-1.0092,-0.9352,0.0,0.0,0.0,0.0,0.0,0.0,0.0,0.0,0.0,0.0,0.0,0.0,0.0,0.0,0.0,0.0,0.0,0.0,0.0,0.0,0.0,0.0,0.0,0.0,0.0,0.0,0.0,0.0,0.0,0.0,0.0,0.0,0.0,0.0,0.0,0.0,0.0,0.0,0.0,0.0,0.0,0.0,0.0,0.0,0.0,0.0,0.0,0.0,0.0,0.0,0.0,0.0,0.0,0.0,0.0,0.0,0.0,0.0,0.0,-0.8388,-0.7521,0.0,0.0,0.0,0.0,0.0,0.0,0.0,0.0,0.0,0.0,0.0,0.0,0.0,0.0,0.0,0.0,0.0,0.0,0.0,0.0,0.0,0.0,0.0,0.0,0.0,0.0,0.0,0.0,0.0,0.0,0.0,0.0,0.0,0.0,0.0,0.0,0.0,0.0,0.0,0.0,-0.8369,-1.1193,-1.2932,-1.2861,-1.2371,-1.2019,-1.2019,-1.1549,-1.0805,-0.9704,-0.8474,0.0,0.0,0.0,0.0,0.0,0.0,0.0,0.0,0.0,0.0,0.0,0.0,0.0,0.0,0.0,0.0,0.0,0.0,0.0,0.0,0.0,0.0,0.0,0.0,0.0,0.0,0.0,0.0,0.0,0.0,0.0,0.0,0.0,0.0,0.0,0.0,0.0,0.0,0.0,0.0,0.0,0.0,0.0,0.0,0.0,0.0,0.0,0.0,0.0,0.0,0.0,0.0,0.0,-1.0135,-1.0411,-1.1082,-1.0615,-1.1193,-1.2508,-1.0328,-0.9884,-1.0492,-0.7958,0.0,0.0,0.0,0.0,0.0,0.0,0.0,0.0,0.0,0.0,0.0,0.0,0.0,0.0,0.0,0.0,0.0,0.0,0.0,0.0,0.0,0.0,-0.6099,-0.6934,-0.7315,-0.7179,-0.607,0.0,0.0,0.0,0.0,0.0,0.0,0.0,0.0,0.0,0.0,0.0,-0.886,-1.0762,-1.2094,-1.2401,-1.1535,-1.0923,-1.0725,-0.9876,-0.9227,-0.9139,-0.7285,-0.5997,0.0,0.0,0.0,0.0,0.0,0.0,0.0,0.0,0.0,0.0,0.0,0.0,0.0,0.0,0.0,0.0,0.0,0.0,0.0,0.0,0.0,0.0,0.0,0.0,0.0,0.0,0.0,0.0,0.0,0.0,0.0,0.0,-0.8334,-0.8858,0.0,0.0,0.0,0.0,0.0,0.0,0.0,0.0,0.0,0.0,0.0,0.0,0.0,-0.9867,-1.0026,-1.1664,-1.2181,-1.1587,-1.3137,-1.3621,-1.3106,-1.3379,-1.3633,-1.3831,-1.3496,0.0,-1.1683,-1.0372,0.0,0.0,0.0,0.0,0.0,0.0,0.0,0.0,0.0,0.0,0.0,0.0,0.0,0.0,0.0,0.0,0.0,0.0,0.0,0.0,0.0,0.0,-0.8497,-0.9125,-0.9305,-0.9432,-0.9817,-0.7976,-0.5812,-0.4563,-0.4106,-0.3152,0.0,0.0,0.0,0.0,0.0,0.0,-0.8837,-1.0269,-1.1087,-1.124,-1.1081,-1.0652,-0.9771,-0.948,-0.9037,-0.8379,-0.8052,-0.7346,-0.6137,-0.5926,0.0,0.0,0.0,0.0,0.0,0.0,0.0,0.0,0.0,0.0,0.0,0.0,0.0,0.0,0.0,0.0,0.0,0.0,0.0,0.0,0.0,0.0,0.0,0.0,0.0,0.0,0.0,0.0,0.0,-0.8327,-0.95,-0.8989,-0.8982,-0.8332,0.0,0.0,0.0,0.0,0.0,0.0,0.0,0.0,0.0,-1.1448,-1.2585,-1.3358,-1.3758,-1.4586,-1.4729,-1.4152,-1.4669,-1.4852,-1.4753,-1.4577,-1.4629,-1.4853,-1.4853,-1.434,-1.3456,-1.1991,-1.0695,-0.9377,0.0,0.0,0.0,0.0,-0.6082,-0.6362,-0.7449,-0.7878,-0.8064,-0.8923,0.0,0.0,0.0,0.0,0.0,0.0,0.0,-0.6068,-0.7217,-0.8016,-0.8798,-0.9713,-0.98,-0.9843,-1.0293,-0.9377,-0.8252,-0.7387,-0.631,-0.4753,-0.2171,-0.2132,0.0,0.0,0.0,-0.6303,-0.804,-0.9102,-0.9765,-0.9933,-1.0218,-0.9991,-0.9097,-0.8761,-0.826,-0.7536,-0.6911,-0.6603,-0.6493,-0.577,-0.5204,0.0,0.0,0.0,0.0,0.0,0.0,0.0,0.0,0.0,0.0,0.0,0.0,0.0,0.0,0.0,0.0,0.0,0.0,0.0,0.0,0.0,0.0,0.0,0.0,0.0,0.0,0.0,0.0,-0.9468,-1.0586,-0.9187,-0.9878,-0.9601,0.0,0.0,0.0,0.0,0.0,0.0,-1.0666,-1.2551,-1.4055,-1.4892,-1.5708,-1.6294,-1.662,-1.6868,-1.6697,-1.609,-1.5807,-1.5608,-1.5603,-1.5157,-1.5117,-1.541,-1.541,-1.5119,-1.4543,-1.3229,-1.222,-1.1352,-0.9475,-0.8406,-0.7905,-0.7656,-0.7658,-0.7968,-0.9067,-0.9407,-0.9533,-1.0179,-1.0031,-0.958,-0.9599,0.0,0.0,0.0,0.0,-0.6385,-0.7551,-0.8159,-0.8773,-0.994,-1.0067,-0.9967,-1.018,-1.0114,-0.9874,-0.9431,-0.8288,-0.6678,-0.4408,-0.4361,0.0,-0.3535,-0.4943,-0.6474,-0.763,-0.8091,-0.8514,-0.8939,-0.9303,-0.9157,-0.826,-0.785,-0.7352,-0.6652,-0.5902,-0.5747,-0.6402,-0.5536,-0.5227,-0.5567,0.0,0.0,0.0,0.0,0.0,0.0,0.0,0.0,0.0,0.0,0.0,0.0,0.0,0.0,0.0,0.0,0.0,0.0,0.0,0.0,0.0,0.0,0.0,0.0,0.0,0.0,0.0,0.0,0.0,-1.0143,-1.1139,0.0,0.0,0.0,0.0,-1.1686,-1.2367,-1.3205,-1.4285,-1.5869,-1.68,-1.6841,-1.7903,-1.8074,-1.728,-1.7754,-1.7481,-1.6384,-1.6879,-1.6519,-1.5439,-1.5381,-1.5391,-1.541,-1.541,-1.4982,-1.4232,-1.4076,-1.2818,-1.0989,-1.0498,-0.9451,-0.8319,-0.8822,-0.9189,-0.9568,-1.0132,-1.0308,-1.0367,-1.0375,-0.9008,-0.7352,-0.7372,-0.5933,0.0,0.0,-0.5651,-0.6273,-0.824,-0.8757,-0.9108,-1.026,-1.0591,-1.0584,-1.0598,-1.01,-0.9766,-1.0026,-1.0212,-0.9979,-0.8672,0.0,-0.7445,-0.7233,-0.6068,-0.5981,-0.8245,-0.7753,-0.7523,-0.8549,-0.8506,-0.8102,-0.7086,-0.6835,-0.6479,-0.5912,-0.5657,-0.5579,-0.5648,-0.5617,-0.5382,-0.4956,-0.4583,0.0,0.0,0.0,0.0,0.0,0.0,0.0,0.0,0.0,0.0,0.0,0.0,0.0,0.0,0.0,0.0,0.0,0.0,0.0,0.0,0.0,0.0,0.0,0.0,0.0,0.0,0.0,0.0,-1.2787,-1.4191,0.0,-1.284,-1.31,-1.3593,-1.4169,-1.5875,-1.7063,-1.7483,-1.8814,-1.9571,-1.9597,-1.9208,-1.8772,-1.8166,-1.7792,-1.7296,-1.6627,-1.6787,-1.6654,-1.626,-1.626,-1.6103,-1.583,-1.583,-1.5238,-1.4186,-1.4139,-1.3423,-1.2212,-1.1743,-1.1245,-1.0725,-0.99,-0.971,-0.9786,-0.982,-0.9794,-0.989,-1.0384,-0.9983,-0.9223,-0.846,-0.7724,-0.7068,-0.6628,-0.6701,-0.7052,-0.7787,-0.8106,-0.8371,-0.8849,-0.9326,-0.9786,-0.9786,-1.0013,-1.0342,-1.0381,-1.018,-0.9741,-0.8965,-0.8276,-0.7664,-0.6885,-0.603,-0.5765,-0.6824,-0.6527,-0.6373,-0.6785,-0.7186,-0.7121,-0.6272,-0.6499,-0.6415,-0.5854,-0.5576,-0.5443,-0.5443,-0.5443,-0.538,-0.5234,-0.5213,-0.4656,0.0,0.0,0.0,0.0,0.0,0.0,0.0,0.0,0.0,0.0,0.0,0.0,0.0,0.0,0.0,0.0,0.0,0.0,0.0,0.0,0.0,0.0,0.0,0.0,0.0,-1.408,-1.571,-1.4513,-1.6337,-1.7027,-1.5373,-1.6086,-1.6872,-1.7424,-1.9141,-2.0055,-1.9768,-2.0747,-2.1026,-2.046,-1.9706,-1.902,-1.8404,-1.7843,-1.7383,-1.6953,-1.6953,-1.6875,-1.6665,-1.6665,-1.6484,-1.6125,-1.6125,-1.5381,-1.4213,-1.3914,-1.3304,-1.2544,-1.2315,-1.2064,-1.1638,-1.0301,-1.0087,-1.0398,-1.0135,-0.9916,-0.9943,-1.0424,-1.0428,-0.9939,-0.8857,-0.8354,-0.7922,-0.6844,-0.6867,-0.726,-0.7248,-0.759,-0.8027,-0.8027,-0.842,-0.8941,-0.9204,-0.9722,-1.0238,-1.0561,-1.0309,-0.9854,-0.948,-0.8675,-0.7797,-0.6988,-0.611,-0.564,-0.5786,-0.5715,-0.5674,-0.5725,-0.6142,-0.6245,-0.5785,-0.5937,-0.6032,-0.5847,-0.5474,-0.5332,-0.5433,-0.5338,-0.5325,-0.5413,-0.5592,-0.5036,-0.3713,0.0,0.0,0.0,0.0,0.0,0.0,0.0,0.0,0.0,0.0,0.0,0.0,0.0,0.0,0.0,0.0,0.0,0.0,0.0,0.0,0.0,0.0,0.0,-1.3678,-1.5828,-1.6879,-1.5281,-1.754,-1.8973,-1.8382,-1.8892,-1.9883,-2.1455,-2.2033,-2.1972,-2.1093,-2.1592,-2.1101,-1.9365,-1.9299,-1.8854,-1.8008,-1.8008,-1.7803,-1.7402,-1.7402,-1.7178,-1.6714,-1.6714,-1.6523,-1.6145,-1.6145,-1.539,-1.4085,-1.3373,-1.2512,-1.1802,-1.2059,-1.1689,-1.0863,-0.9995,-1.0436,-1.1315,-1.1036,-1.0815,-1.0638,-1.0638,-1.0053,-0.9204,-0.8291,-0.7517,-0.6759,-0.5729,-0.6194,-0.6886,-0.6766,-0.7372,-0.7962,-0.7962,-0.7962,-0.8221,-0.9011,-0.9274,-0.953,-1.0378,-1.0568,-1.0561,-1.0568,-0.9282,-0.8082,-0.7704,-0.6511,0.0,-0.5456,-0.5432,-0.542,-0.5576,-0.5454,-0.5423,-0.5583,-0.5189,-0.5182,-0.5766,-0.5382,-0.5274,-0.5579,-0.5304,-0.5213,-0.5395,-0.5651,-0.4803,-0.2788,0.0,0.0,0.0,0.0,0.0,0.0,0.0,0.0,0.0,0.0,0.0,0.0,0.0,0.0,0.0,0.0,0.0,0.0,0.0,0.0,0.0,-1.4814,-1.6651,-1.6047,-1.7704,-1.9041,-1.9082,-2.0482,-2.1338,-2.1217,-2.1693,-2.2172,-2.2602,-2.2824,-2.278,-2.2528,-2.1534,-2.0719,-2.0268,-1.9044,-1.8269,-1.8008,-1.8008,-1.7949,-1.7842,-1.7842,-1.7773,-1.7656,-1.7656,-1.7256,-1.6553,-1.6553,-1.5297,-1.3373,-1.3726,-1.2696,-1.0954,-1.1258,-1.1179,-1.0883,-1.0128,-1.003,-1.029,-1.0218,-1.0501,-1.0875,-1.0875,-1.0599,-1.011,-0.9204,-0.8798,-0.844,-0.7526,-0.7484,-0.771,-0.7647,-0.7372,-0.7046,-0.7046,-0.7046,-0.7111,-0.7372,-0.842,-0.9456,-0.9843,-1.0309,-1.043,-1.0046,-0.9059,-0.8115,-0.7403,-0.6234,-0.545,-0.5518,-0.543,-0.542,-0.5576,-0.5454,-0.5464,-0.5722,-0.5433,-0.5399,-0.5776,-0.5484,-0.5386,-0.5583,-0.5508,-0.5569,-0.5855,-0.5638,-0.5463,0.0,0.0,0.0,0.0,0.0,0.0,0.0,0.0,0.0,0.0,0.0,0.0,0.0,0.0,0.0,0.0,0.0,0.0,0.0,0.0,0.0,0.0,-1.7387,-1.9277,-1.9306,-2.0454,-2.14,-2.1818,-2.2609,-2.3,-2.2661,-2.2949,-2.3078,-2.3078,-2.3078,-2.2944,-2.2628,-2.1353,-2.0398,-2.0074,-1.8721,-1.8008,-1.8008,-1.8008,-1.8008,-1.8008,-1.8008,-1.8008,-1.8008,-1.7832,-1.7373,-1.6719,-1.6533,-1.5496,-1.3974,-1.3786,-1.3061,-1.2058,0.0,0.0,0.0,0.0,-1.0067,-0.972,-1.0165,-1.0578,-1.0815,-1.0815,-1.0759,-1.0428,-0.9594,-0.9344,-0.9202,-0.8247,-0.8289,-0.8537,-0.8117,-0.7892,-0.7697,-0.7307,-0.6981,-0.6785,-0.7177,-0.7767,-0.8354,-0.8925,-0.9389,0.0,-0.8679,-0.8348,-0.792,-0.692,-0.6036,-0.5369,-0.5393,-0.5376,-0.5463,-0.5484,-0.5413,-0.5457,-0.5691,-0.5386,0.0,0.0,0.0,-0.5286,-0.5863,-0.5655,0.0,0.0,0.0,-0.4202,-0.632,-0.3124,0.0,0.0,-0.052,-0.0346,0.0,0.0,0.0,0.0,0.0,0.0,0.0,0.0,0.0,0.0,0.0,0.0,0.0,0.0,0.0,0.0,-2.0079,-2.1907,-2.2888,-2.3543,-2.3774,-2.3427,-2.3923,-2.4002,-2.3198,-2.3078,-2.3078,-2.3078,-2.3078,-2.2823,-2.2063,-2.1239,0.0,0.0,0.0,-1.8202,-1.8008,-1.8076,-1.8076,-1.8008,-1.8008,-1.8008,-1.7998,-1.7578,-1.7148,-1.6709,-1.626,-1.5751,-1.5167,-1.3846,-1.3606,-1.3941,-1.2649,-1.1532,-1.0658,-1.0848,-1.0341,-0.9608,-1.0634,0.0,0.0,-1.0672,-1.0651,-1.0428,-0.9658,-0.9551,-0.9412,-0.8538,-0.8958,-0.9412,-0.8533,-0.8812,-0.9075,-0.835,-0.7502,-0.7046,-0.7697,-0.7307,-0.7104,-0.7918,-0.8208,-0.8058,-0.7069,-0.7465,-0.7538,-0.6447,-0.5791,-0.5311,-0.5176,-0.5277,-0.5428,-0.5428,-0.5446,0.0,-0.5579,-0.5168,-0.5118,-0.5655,-0.484,-0.4785,-0.5834,-0.5648,-0.5021,-0.3905,-0.1367,-0.182,-0.5612,-0.1831,-0.0,-0.0,0.0511,0.0682,0.0,0.0,0.0,0.0,0.0,0.0,0.0,0.0,0.0,0.0,0.0,0.0,0.0,0.0,0.0,-1.9624,-2.171,-2.3616,-2.4934,-2.5652,-2.5387,-2.359,-2.3923,-2.4002,-2.3198,-2.3078,-2.3078,-2.3078,-2.3078,-2.3005,-2.2884,-2.2063,-2.1239,-2.0398,-2.0204,-1.9431,-1.8008,-1.8721,-1.8721,-1.8008,-1.8008,0.0,-1.7998,-1.7578,-1.7148,-1.6709,-1.626,-1.5451,-1.4451,-1.4805,-1.4273,-1.313,-1.2212,-1.1339,-1.0631,-1.0685,-1.069,-1.0719,-1.0903,-1.0955,-1.0909,-1.0909,-1.0755,-1.0561,-1.0428,-1.034,0.0,-1.0117,-1.027,-1.0366,-1.0117,-0.9722,-0.9274,-0.9075,-0.8355,-0.7632,-0.7046,-0.7372,-0.7635,-0.7382,-0.775,-0.7885,-0.7188,-0.7188,-0.6894,-0.5731,-0.5474,-0.5418,-0.5321,-0.5345,-0.5428,-0.5428,-0.5471,-0.5559,-0.5589,-0.5521,-0.5586,-0.5676,-0.4029,-0.3164,-0.3397,-0.5153,-0.6019,-0.5747,-0.2001,-0.0372,-0.1203,-0.0376,-0.0,0.0078,0.3477,0.5099,0.0,0.0,0.0,0.0,0.0,0.0,0.0,0.0,0.0,0.0,0.0,-1.5537,-1.6469,0.0,-1.971,-2.1561,-2.3088,-2.4545,-2.5921,-2.6723,-2.6433,-2.46,-2.4662,-2.4381,-2.3185,-2.3078,-2.3078,-2.3078,-2.3078,-2.3078,-2.3078,-2.2322,-2.169,-2.1239,-2.0846,-2.0204,-1.9299,-1.9748,-1.9748,-1.9299,-1.8854,-1.8654,-1.8643,-1.7767,-1.7148,-1.6709,-1.626,-1.5631,-1.4805,-1.5225,-1.4451,-1.3009,-1.2992,-1.202,-1.0624,-1.1045,-1.1016,-1.0775,-1.0775,-1.0868,-1.0969,-1.0822,-1.0775,-1.0755,-1.0665,-1.0624,-1.0651,-1.0735,-1.0775,-1.0775,-1.0775,-1.0451,-1.0147,-1.0015,-0.9268,-0.842,-0.7567,-0.7372,-0.7175,-0.6507,-0.653,-0.6593,-0.6374,-0.6267,-0.6049,-0.5505,-0.5428,-0.5428,-0.5428,-0.5428,-0.5428,-0.5428,-0.5498,-0.5559,-0.5484,-0.4722,-0.379,-0.2938,-0.1935,-0.1323,-0.1358,-0.2481,-0.3127,-0.3167,-0.108,-0.0,-0.0,-0.0,0.1087,0.3144,0.419,0.5292,0.0,0.0,0.0,0.0,0.0,0.0,0.0,-1.6191,-1.5719,-1.8075,-1.7773,-1.7552,-1.9218,-1.9684,-2.073,-2.3389,-2.4281,-2.517,-2.657,-2.713,-2.6982,-2.5728,-2.5508,-2.4781,-2.3245,-2.3078,-2.3078,-2.3078,-2.3078,-2.3078,-2.3078,-2.2506,-2.2063,-2.1877,-2.1365,-2.091,-2.059,-2.0782,-2.0782,-2.059,-1.9694,-1.9299,-1.9288,-1.7955,-1.7148,-1.6636,-1.6172,-1.5732,-1.541,-1.541,-1.4569,-1.3304,-1.4145,-1.3053,-1.1108,-1.1593,-1.1288,-1.0631,-1.0692,-1.0762,-1.0882,-1.0701,-1.0768,-1.0868,-1.0698,-1.0665,-1.0695,-1.0929,-1.0995,-1.0995,-1.0995,-1.0949,-1.0848,-1.0678,-1.0047,-0.9268,-0.8221,-0.7437,-0.6705,-0.5723,-0.5447,-0.5466,-0.5525,-0.5443,-0.5428,-0.5428,-0.5428,-0.5428,-0.5428,-0.5456,-0.5463,-0.5432,-0.5549,-0.5616,-0.5467,-0.4115,-0.2314,-0.0141,-0.0,-0.0,-0.0,-0.0,-0.0,-0.0,-0.0,0.0393,0.1256,0.1256,0.275,0.568,0.4309,0.4626,-1.6025,-1.6101,-1.6744,-1.7594,-1.807,-1.9144,0.0,-2.1216,-2.0035,-2.1682,-2.1982,-2.1962,-2.208,-2.254,-2.3453,-2.5093,-2.5329,-2.5833,-2.7303,-2.699,-2.6563,-2.6404,-2.5783,-2.4781,-2.3245,-2.3078,-2.3078,-2.3078,-2.3078,-2.3078,-2.3078,-2.3005,-2.2641,-2.1939,-2.2506,-2.2125,-2.059,-2.1365,-2.1365,-2.059,-1.9694,-1.9299,-1.9288,-1.7955,-1.7148,-1.6626,-1.585,-1.5459,-1.541,-1.541,-1.4864,-1.4154,-1.4932,-1.4204,-1.2642,-1.202,-1.1288,-1.0658,-1.0855,-1.0795,-1.0712,-1.0868,-1.0788,-1.0665,-1.0631,-1.0742,-1.0949,-1.0982,-1.0995,-1.0995,-1.0995,-1.0802,-1.0665,-1.0631,-1.0561,-0.9977,-0.835,-0.7897,-0.7381,-0.5711,-0.5439,-0.5432,-0.5452,-0.5439,-0.5428,-0.5428,-0.5428,-0.5428,-0.5428,-0.5481,-0.5511,-0.5442,-0.5732,-0.5932,-0.5738,-0.5349,-0.365,-0.0217,-0.0,-0.0,-0.0,-0.0,-0.0,-0.0,-0.0,0.1885,0.5608,0.5608,0.4878,0.3519,0.5168,0.6041,-2.007,-1.9581,-1.918,-2.0473,-2.0926,-2.1506,-2.3231,-2.2232,-2.144,-2.3201,-2.2999,-2.255,-2.2787,-2.3085,-2.3742,-2.526,-2.5779,-2.6355,-2.7452,-2.7647,-2.7263,-2.6002,-2.5563,-2.5007,-2.3884,-2.3365,-2.3078,-2.3078,-2.3078,-2.3078,-2.3078,-2.3078,-2.2957,-2.2628,-2.2944,-2.275,-2.2051,-2.2445,-2.2445,-2.2051,-2.1227,-2.0526,-2.0009,-1.8979,-1.7875,-1.668,-1.5801,-1.541,-1.541,-1.541,-1.5167,-1.4932,-1.5294,-1.4451,-1.2948,-1.2634,-1.2087,-1.1447,-1.1138,-1.1022,-1.1056,-1.1009,-1.0909,-1.0782,-1.0672,-1.0762,-1.089,-1.051,-1.0418,-1.0486,-1.0412,-1.0213,-1.0179,-1.0538,-1.0624,-1.0238,-0.9005,-0.8355,-0.7637,-0.64,-0.5752,-0.5428,-0.5428,-0.5428,-0.5428,-0.5428,-0.5428,-0.5428,-0.5428,-0.5494,-0.5633,-0.5749,-0.5694,-0.5782,-0.6075,-0.5667,-0.386,-0.0218,-0.0,-0.0,-0.0,-0.0,-0.0,-0.0,-0.0,0.2043,0.6329,0.6329,0.5833,0.501,0.5879,0.6274,-2.1761,-2.1499,-2.1293,-2.2967,-2.3682,-2.4122,-2.4691,-2.3615,-2.2879,-2.4296,-2.3489,-2.2661,-2.3002,-2.3305,-2.3923,-2.5451,-2.6106,-2.6745,-2.7735,-2.7958,-2.7524,-2.6165,-2.5673,-2.5175,-2.4681,-2.3708,-2.3078,-2.3078,-2.3078,-2.3078,-2.3078,-2.3078,-2.3078,-2.3078,-2.3078,-2.3078,-2.3078,-2.3078,-2.3078,-2.3078,-2.2249,-2.1553,-2.091,-1.9684,-1.824,-1.6626,-1.5918,-1.5527,-1.541,-1.541,-1.541,-1.541,-1.541,-1.4569,-1.3312,-1.307,-1.2484,-1.1711,-1.1247,-1.1142,-1.1182,-1.1129,-1.1002,-1.0835,-1.0692,-1.0762,-1.085,-1.0087,-0.9973,-1.0024,-1.002,-0.9627,-0.9449,-1.0187,-1.0091,-0.9646,-0.8742,-0.8091,-0.7372,-0.6527,-0.5815,-0.5428,-0.5428,-0.5428,-0.5442,-0.5416,-0.5393,-0.5379,-0.5423,-0.5562,-0.5776,-0.6078,-0.5204,-0.5083,-0.6207,-0.481,-0.2775,-0.0147,-0.0,-0.0,-0.0,-0.0,-0.0,-0.0,0.1178,0.2986,0.5436,0.5996,0.6302,0.6274,0.6274,0.6271,-1.9758,-2.0891,-2.2891,-2.4827,-2.6377,-2.761,-2.8229,-2.6762,-2.5273,-2.537,-2.4137,-2.3053,-2.3078,-2.3721,-2.4753,-2.6114,-2.641,-2.6968,-2.8368,-2.7422,-2.6788,-2.7473,-2.6269,-2.5398,-2.5342,-2.3989,-2.3078,-2.3078,-2.3078,-2.3078,-2.3078,-2.3078,-2.3078,-2.3078,-2.3078,-2.3078,-2.3078,-2.3078,-2.3078,-2.3078,-2.2249,-2.1877,-2.1791,-1.9583,-1.7943,-1.6709,-1.625,-1.5801,-1.541,-1.541,-1.541,-1.541,-1.541,-1.4864,-1.4094,-1.3312,-1.1973,-1.0719,-1.1216,-1.1049,-1.0681,-1.1229,-1.1035,-1.0631,-1.0624,-1.0762,-1.085,-1.0087,-0.9775,-0.9846,-1.0266,-0.9212,-0.8354,-0.9446,-0.8914,-0.7827,-0.6981,-0.6785,-0.6461,-0.5624,-0.5428,-0.5428,-0.5428,-0.5428,-0.5413,-0.5559,-0.5467,-0.543,-0.5369,-0.5735,-0.6092,-0.624,-0.4167,-0.3714,-0.6067,-0.2533,-0.0144,-0.0,-0.0,-0.0,-0.0,-0.0,-0.0,-0.0,0.4016,0.5118,0.3203,0.5249,0.6274,0.6338,0.6338,0.6338,-2.2797,-2.3748,-2.4692,-2.6417,-2.7549,-2.8027,-2.7312,-2.664,-2.6014,-2.5508,-2.4463,-2.3688,-2.3688,-2.4283,-2.4931,-2.5473,-2.678,-2.7792,-2.7891,-2.7891,-2.7653,-2.6937,-2.6443,-2.596,-2.5453,-2.4509,-2.3649,-2.3125,-2.3078,-2.3078,-2.3078,-2.3078,-2.3078,-2.3078,-2.3078,-2.3078,-2.3078,-2.3078,-2.3078,-2.3065,-2.1678,-2.1049,-2.0962,-1.8762,-1.7387,-1.6709,-1.626,-1.5811,-1.541,-1.541,-1.541,-1.541,-1.541,-1.4569,-1.3364,-1.313,-1.2102,-1.0902,-1.1289,-1.1296,-1.1095,-1.0666,-1.0276,-0.9884,-0.9116,-0.904,-0.908,-0.8279,-0.8079,-0.8125,-0.8198,-0.7767,-0.7493,-0.8351,-0.8278,-0.7937,-0.775,-0.714,-0.6626,-0.6423,-0.5825,-0.5428,-0.5428,-0.5428,-0.5483,-0.5648,-0.5633,-0.539,-0.4504,-0.5269,-0.6005,-0.6244,-0.4163,-0.2545,-0.2186,-0.0819,-0.0,-0.0,-0.0,-0.0,-0.0,-0.0,-0.0,-0.0,0.1414,0.3142,0.5196,0.5914,0.6298,0.6274,0.6274,0.6268,-2.4775,-2.541,-2.5695,-2.7736,-2.8367,-2.8255,-2.7414,-2.6864,-2.6336,-2.5892,-2.4418,-2.3287,-2.3561,-2.3587,-2.3764,-2.4305,-2.5868,-2.7093,-2.721,-2.7604,-2.7646,-2.6959,-2.6878,-2.6496,-2.5508,-2.4951,-2.4394,-2.3603,-2.3245,-2.3078,-2.3078,-2.3078,-2.3078,-2.3078,-2.3078,-2.3078,-2.3078,-2.3078,-2.3078,-2.3065,-2.1741,-2.091,-2.0515,-1.8874,-1.7601,-1.6719,-1.6426,-1.5967,-1.541,-1.541,-1.541,-1.541,-1.541,-1.4451,-1.3009,-1.3009,-1.2178,-1.1035,-1.1323,-1.1423,-1.1299,-1.0487,-0.999,-0.9547,-0.8508,-0.829,-0.8245,-0.7401,-0.7195,-0.7229,-0.7229,-0.6851,-0.6639,-0.7456,-0.7423,-0.7198,-0.726,-0.6781,-0.6329,-0.6443,-0.5909,-0.5443,-0.5443,-0.5484,-0.5525,-0.5607,-0.5739,-0.5593,-0.4851,-0.545,-0.6077,-0.6257,-0.4919,-0.2905,-0.0229,-0.0,-0.0,-0.0,-0.0,-0.0,-0.0,-0.0,-0.0,-0.0,-0.0,0.1333,0.4012,0.48,0.5263,0.5559,0.6038,0.6271,-2.5649,-2.603,-2.6197,-2.8874,-2.9091,-2.8668,-2.8652,-2.7625,-2.6669,-2.6486,-2.402,-2.2044,-2.2574,-2.1801,-2.1501,-2.2862,-2.403,-2.527,-2.6512,-2.6662,-2.6871,-2.755,-2.7575,-2.6967,-2.5618,-2.5398,-2.5063,-2.435,-2.3531,-2.3078,-2.3078,-2.3078,-2.3078,-2.3078,-2.3078,-2.3078,-2.3078,-2.3078,-2.3078,-2.3078,-2.2249,-2.1416,-2.0557,-1.9683,-1.8352,-1.6699,-1.6719,-1.623,-1.541,-1.541,-1.541,-1.541,-1.541,-1.4451,-1.3009,-1.3009,-1.2185,-1.1056,-1.1329,-1.1368,-1.1214,-1.0545,-1.0095,-0.9608,-0.8549,-0.8263,-0.8094,-0.7432,-0.7146,-0.7132,-0.7363,-0.6516,-0.5869,-0.68,-0.6264,-0.5593,-0.5599,-0.5596,-0.5593,-0.5599,-0.5596,-0.5589,-0.5589,-0.5708,-0.5715,-0.545,-0.5769,-0.6037,-0.5962,-0.6149,-0.6301,-0.6281,-0.6332,-0.468,-0.0627,-0.0154,-0.0,-0.0,-0.0,-0.0,-0.0,-0.0,-0.0,-0.0,-0.0,-0.0,-0.0,0.1954,0.3357,0.4215,0.564,0.6274,-2.7708,-2.9349,-3.0718,-3.0969,-3.0836,-3.0668,-3.0799,-3.0101,-2.8826,-2.6588,-2.453,-2.2326,-1.9745,-2.0879,-2.2317,-2.2671,-2.5455,-2.7709,-2.8038,-2.7649,-2.738,-2.7595,-2.7086,-2.6616,-2.6283,-2.5231,-2.4509,-2.4292,-2.3531,-2.3078,-2.3078,-2.3078,-2.3078,-2.3078,-2.3078,-2.3078,-2.3078,-2.3078,-2.3078,-2.3078,-2.2249,-2.1292,-2.0042,-1.9522,-1.8168,-1.625,-1.6592,-1.623,-1.541,-1.541,-1.541,-1.541,-1.541,-1.4451,-1.3009,-1.3009,-1.2274,-1.1323,-1.1403,-1.107,-1.0533,-0.9663,-0.8839,-0.7898,-0.6829,-0.6437,-0.6471,-0.6349,-0.6293,-0.6247,-0.6237,-0.6015,-0.5761,-0.5805,-0.5709,-0.5616,-0.5725,-0.5664,-0.5623,-0.5728,-0.5661,-0.5593,-0.5672,-0.5796,-0.5796,-0.5454,-0.5846,-0.5091,-0.1979,-0.4329,-0.6331,-0.6291,-0.6281,-0.5886,-0.4805,-0.1797,-0.0,-0.0,-0.0,-0.0,-0.0,-0.0,-0.0,-0.0,-0.0,-0.0,-0.0,0.0549,0.1721,0.3435,0.541,0.6281,-2.9963,-3.1366,-3.2323,-3.1678,-3.1466,-3.0948,-2.9205,-2.8453,-2.724,-2.3899,-2.165,-1.9633,-1.7446,-1.9039,-2.0812,-2.1192,-2.4614,-2.7364,-2.7685,-2.738,-2.7245,-2.7595,-2.693,-2.6336,-2.6068,-2.4951,-2.4176,-2.3826,-2.3365,-2.3078,-2.3078,-2.3078,-2.3078,-2.3078,-2.3078,-2.3078,-2.3078,-2.3078,-2.3078,-2.3078,-2.2249,-2.1339,-2.0176,-1.9351,-1.8025,-1.6357,-1.6416,-1.6045,-1.541,-1.541,-1.541,-1.541,-1.541,-1.4451,-1.3009,-1.3009,-1.2326,-1.1354,-1.0861,-1.0408,-0.9843,-0.9326,-0.8514,-0.7451,-0.6321,-0.6003,-0.602,-0.6105,-0.6132,-0.6081,-0.5861,-0.58,-0.5728,-0.5433,-0.5528,-0.5705,-0.5783,-0.5739,-0.5688,-0.5705,-0.5694,-0.5737,-0.5832,-0.5944,-0.5874,-0.5454,-0.5689,-0.4767,-0.1745,-0.3465,-0.4884,-0.4932,-0.4867,-0.456,-0.3618,-0.1335,-0.0,-0.0,-0.0,-0.0,-0.0,-0.0,-0.0,-0.0,-0.0,0.0942,0.2752,0.2752,0.3374,0.4535,0.5727,0.6278,-3.2212,-3.2746,-3.2746,-3.2017,-3.1752,-3.0599,-2.6629,-2.5572,-2.4269,-2.0222,-1.7604,-1.5857,-1.5292,-1.6637,-1.8222,-1.939,-2.2807,-2.5659,-2.6729,-2.6782,-2.6931,-2.755,-2.6878,-2.6122,-2.5453,-2.4624,-2.3826,-2.3125,-2.3078,-2.3078,-2.3078,-2.3078,-2.3078,-2.3078,-2.3078,-2.3078,-2.3078,-2.3078,-2.3078,-2.3078,-2.2384,-2.1483,-2.0389,-1.9329,-1.8039,-1.648,-1.6269,-1.5869,-1.541,-1.541,-1.541,-1.541,-1.5294,-1.4332,-1.3017,-1.2936,-1.2235,-1.1286,-1.0269,-0.9668,-0.9301,-0.9145,-0.8389,-0.7403,-0.6567,-0.6338,-0.6338,-0.6338,-0.6338,-0.6196,-0.5908,-0.5817,-0.5732,-0.5457,-0.5599,-0.58,-0.58,-0.58,-0.5766,-0.564,-0.5718,-0.5834,-0.5989,-0.6019,-0.5657,-0.483,-0.5124,-0.4836,-0.3276,-0.3352,-0.3507,-0.3511,-0.3047,-0.1955,-0.0157,-0.0,-0.0,-0.0,-0.0,-0.0,-0.0,-0.0,-0.0,-0.0,0.055,0.2672,0.6329,0.6325,0.6308,0.6278,0.6278,0.6271,-3.4032,-3.457,-3.4914,-3.4155,-3.3498,-3.2235,-2.9214,-2.745,-2.4908,-1.9493,-1.6927,-1.4908,-1.2372,-1.3786,-1.6387,-1.962,-2.2463,-2.5211,-2.788,-2.7769,-2.744,-2.761,-2.6428,-2.5563,-2.5398,-2.4163,-2.3245,-2.3138,-2.3078,-2.3078,-2.3078,-2.3078,-2.3078,-2.3078,-2.3078,-2.3078,-2.3078,-2.3078,-2.3078,-2.3078,-2.2944,-2.1729,-1.9524,-2.0006,-1.8541,-1.5674,-1.6328,-1.6162,-1.541,-1.541,-1.541,-1.5352,-1.4688,-1.3846,-1.2981,-1.2515,-1.1963,-1.1319,-1.055,-0.9878,-0.915,-0.8313,-0.7403,-0.649,-0.6338,-0.6338,-0.6338,-0.6338,-0.6338,-0.6217,-0.6037,-0.5895,-0.5759,-0.5589,-0.5677,-0.58,-0.58,-0.58,-0.5793,-0.5769,-0.5783,-0.5834,-0.5989,-0.5887,-0.4728,-0.1419,-0.3455,-0.4844,-0.3264,-0.463,-0.5762,-0.5746,-0.2586,-0.0391,-0.0,-0.0,-0.0,-0.0,-0.0,-0.0,-0.0,-0.0,-0.0,-0.0,0.3461,0.5608,0.6329,0.6312,0.6295,0.6278,0.6278,0.6271,-3.4489,-3.4759,-3.4888,-3.4421,-3.375,-3.184,-2.6765,-2.4927,-2.2366,-1.554,-1.3448,-1.2246,-1.031,-1.2806,-1.588,-1.814,-2.1838,-2.5141,-2.7031,-2.7485,-2.7625,-2.7625,-2.6654,-2.596,-2.596,-2.4937,-2.4323,-2.4323,-2.4323,-2.393,-2.3125,-2.3078,-2.3078,-2.3078,-2.3078,-2.3078,-2.3078,-2.3078,-2.3078,-2.3078,-2.3078,-2.1898,-1.9625,-1.9851,-1.8384,-1.5762,-1.5957,-1.5801,-1.541,-1.541,-1.541,-1.5294,-1.451,-1.3734,-1.2928,-1.2386,-1.1881,-1.125,-1.0022,-0.9469,-0.9074,-0.748,-0.6721,-0.6338,-0.6338,-0.6338,-0.6338,-0.6338,-0.6338,-0.6227,-0.6071,-0.5915,-0.5769,-0.5703,-0.5782,-0.5909,-0.6061,-0.5937,-0.5779,-0.5705,-0.5691,-0.5741,-0.5752,-0.5818,-0.4818,-0.1855,-0.3971,-0.5634,-0.4879,-0.568,-0.6291,-0.6288,-0.4472,-0.2414,-0.0154,-0.0,-0.0,-0.0,-0.0,-0.0,-0.0,-0.0,-0.0,-0.0,0.4173,0.6325,0.6312,0.6295,0.6281,0.6271,0.6271,0.6268,-3.421,-3.4252,-3.4194,-3.3916,-3.3415,-3.1098,-2.394,-2.2042,-1.9648,-1.2061,-1.0234,-0.9824,-0.9248,-1.2009,-1.4877,-1.6354,-2.0305,-2.3777,-2.5418,-2.6453,-2.718,-2.758,-2.693,-2.651,-2.651,-2.5837,-2.5398,-2.5398,-2.5398,-2.4781,-2.3424,-2.3185,-2.3078,-2.3078,-2.3078,-2.3078,-2.3078,-2.3078,-2.3078,-2.3078,-2.2952,-2.1789,-1.9744,-1.9422,-1.8029,-1.5908,-1.5664,-1.5498,-1.541,-1.5225,-1.5108,-1.505,-1.4085,-1.3346,-1.2787,-1.2243,-1.1646,-1.0994,-0.9451,-0.8916,-0.8689,-0.6868,-0.6338,-0.6338,-0.6338,-0.6338,-0.6338,-0.6338,-0.6338,-0.6234,-0.6112,-0.5939,-0.5776,-0.5744,-0.5613,-0.5682,-0.6214,-0.6016,-0.5769,-0.5657,-0.561,-0.5579,-0.5545,-0.5759,-0.5148,-0.3049,-0.4781,-0.6321,-0.6306,-0.6282,-0.6266,-0.6268,-0.6291,-0.474,-0.0983,-0.0227,-0.0,-0.0,-0.0,-0.0,-0.0,-0.0,0.0393,0.1335,0.4169,0.583,0.6291,0.6281,0.6271,0.6338,0.6338,0.6338,-3.325,-3.3508,-3.3447,-3.3162,-3.3055,-3.1098,-2.394,-2.1547,-1.8874,-1.1943,-0.9717,-0.9202,-0.9794,-1.0237,-1.169,-1.5298,-1.6876,-1.9181,-2.357,-2.4856,-2.5864,-2.74,-2.693,-2.651,-2.651,-2.5837,-2.5398,-2.5398,-2.5398,-2.5063,-2.4234,-2.3484,-2.3078,-2.3078,-2.3078,-2.3078,-2.3078,-2.3078,-2.3078,-2.3065,-2.2623,-2.1304,-1.9369,-1.9194,-1.7777,-1.5488,-1.585,-1.5781,-1.5352,-1.4628,-1.4323,-1.4154,-1.2618,-1.2132,-1.2186,-1.1667,-1.107,-1.0335,-0.9558,-0.8675,-0.7783,-0.6641,-0.6338,-0.6338,-0.6338,-0.6338,-0.6338,-0.6338,-0.6338,-0.6257,-0.6244,-0.6023,-0.5796,-0.5786,-0.4933,-0.4528,-0.5973,-0.601,-0.5796,-0.5783,-0.5677,-0.5545,-0.5406,-0.5849,-0.5445,-0.305,-0.4728,-0.6306,-0.6321,-0.6282,-0.627,-0.6278,-0.6295,-0.5366,-0.3025,-0.1058,-0.0,-0.0,-0.0,-0.0,-0.0,-0.0,0.1806,0.5608,0.4155,0.438,0.6281,0.6268,0.6264,0.6338,0.6338,0.6338,-3.2876,-3.3068,-3.2768,-3.2938,-3.1759,-2.8983,-2.2954,-2.0256,-1.7268,-1.1048,-0.9376,-0.9086,-0.9292,-0.9709,-1.081,-1.3284,-1.5125,-1.7045,-1.939,-2.1615,-2.344,-2.4609,-2.5621,-2.6626,-2.7595,-2.7434,-2.7129,-2.6745,-2.6322,-2.596,-2.5618,-2.4894,-2.4496,-2.4496,-2.4047,-2.3826,-2.3826,-2.3365,-2.3078,-2.3065,-2.2573,-2.1243,-1.9301,-1.8938,-1.7488,-1.542,-1.5596,-1.5566,-1.5352,-1.451,-1.4213,-1.4052,-1.2609,-1.1746,-1.1252,-1.0931,-1.0242,-0.9343,-0.8614,-0.8161,-0.7629,-0.6641,-0.62,-0.6139,-0.6234,-0.6338,-0.6338,-0.6338,-0.6338,-0.6338,-0.6338,-0.6105,-0.5721,-0.4891,-0.501,-0.5544,-0.616,-0.6095,-0.5911,-0.582,-0.5688,-0.5569,-0.5508,-0.5759,-0.5262,-0.324,-0.489,-0.6307,-0.6314,-0.5185,-0.4881,-0.6129,-0.6295,-0.5922,-0.5098,-0.1968,0.0902,0.3113,0.3609,0.3195,0.1915,0.1863,0.2662,0.4314,0.4779,0.5482,0.6278,0.6268,0.6338,0.6338,0.6338,0.6338,-3.16,-3.2128,-3.2055,-3.2507,-3.0797,-2.7589,-2.2303,-1.9487,-1.6351,-1.0552,-0.9247,-0.9109,-0.899,-0.939,-1.0216,-1.1688,-1.333,-1.5087,-1.6968,-1.9142,-2.1017,-2.2363,-2.392,-2.556,-2.7297,-2.8248,-2.8511,-2.7894,-2.7378,-2.7004,-2.6826,-2.6322,-2.5837,-2.5398,-2.4908,-2.4509,-2.4292,-2.3721,-2.3365,-2.3065,-2.2573,-2.1243,-1.929,-1.8735,-1.7374,-1.541,-1.541,-1.5235,-1.4991,-1.4213,-1.3726,-1.3481,-1.1954,-1.1108,-1.0566,-1.0113,-0.9353,-0.8407,-0.796,-0.7629,-0.7242,-0.6433,-0.6118,-0.6051,-0.6159,-0.6193,-0.6203,-0.6247,-0.6338,-0.6251,-0.6203,-0.6152,-0.5793,-0.475,-0.546,-0.6301,-0.6328,-0.6146,-0.5986,-0.5909,-0.5765,-0.5596,-0.5596,-0.5713,-0.5284,-0.4065,-0.5256,-0.5825,-0.4563,-0.3629,-0.2968,-0.2578,-0.4787,-0.6328,-0.627,-0.1427,0.2676,0.5207,0.5778,0.5461,0.4082,0.4072,0.4042,0.4064,0.5565,0.6281,0.6274,0.6217,0.6193,0.6193,0.6193,0.6217,-2.9017,-3.0471,-3.1308,-3.1696,-3.0454,-2.771,-2.2307,-1.9588,-1.6547,-1.0703,-0.9394,-0.9247,-0.9119,-0.9106,-0.9554,-1.0886,-1.113,-1.2757,-1.7351,-1.8028,-1.894,-2.1318,-2.1982,-2.2925,-2.4776,-2.7631,-2.9134,-2.8559,-2.8463,-2.8238,-2.7625,-2.7575,-2.6916,-2.5453,-2.5398,-2.5063,-2.4292,-2.4292,-2.3884,-2.3065,-2.2573,-2.1243,-1.929,-1.8735,-1.7374,-1.541,-1.541,-1.4932,-1.4145,-1.3373,-1.271,-1.2049,-1.0217,-0.9874,-1.0252,-0.9228,-0.8421,-0.7778,-0.7783,-0.7176,-0.6311,-0.6081,-0.603,-0.603,-0.603,-0.603,-0.6064,-0.6217,-0.6338,-0.6227,-0.6071,-0.6152,-0.6234,-0.5992,-0.6156,-0.6274,-0.6264,-0.6139,-0.5989,-0.5995,-0.5849,-0.5679,-0.5679,-0.5742,-0.5778,-0.5778,-0.6105,-0.4825,-0.0607,-0.1849,-0.0702,0.5523,-0.1332,-0.6271,-0.627,0.0886,0.5349,0.5422,0.5429,0.5691,0.6228,0.6252,0.6235,0.6274,0.6288,0.6285,0.6338,0.6105,0.603,0.603,0.603,0.6115,-2.5755,-2.6792,-2.7183,-2.6188,-2.4474,-2.2128,-1.8728,-1.6452,-1.4008,-1.0333,-0.9547,-0.9446,-0.9266,-0.9228,-1.0016,-1.241,-1.2808,-1.3633,-1.603,-1.8568,-2.0505,-2.1359,-2.519,-2.7956,-2.8534,-2.944,-2.9585,-2.8559,-2.8511,-2.8238,-2.7625,-2.7625,-2.7408,-2.6916,-2.5946,-2.5287,-2.5063,-2.3989,-2.3365,-2.3065,-2.1648,-2.0404,-1.9279,-1.7813,-1.6514,-1.5352,-1.4815,-1.4451,-1.4112,-1.2945,-1.2353,-1.2036,-1.0635,-0.9732,-0.9101,-0.8243,-0.7311,-0.6547,-0.6547,-0.6474,-0.6237,-0.6078,-0.5959,-0.5874,-0.5874,-0.5945,-0.6061,-0.6217,-0.6338,-0.6251,-0.62,-0.6227,-0.6254,-0.62,-0.623,-0.6268,-0.6338,-0.622,-0.6191,-0.6016,-0.5943,-0.562,-0.4641,-0.5237,-0.578,-0.578,-0.3603,-0.0619,0.319,0.2051,0.1676,0.3904,0.3057,0.1684,0.0231,0.3336,0.5445,0.563,0.5578,0.5666,0.5908,0.601,0.5436,0.4142,0.5565,0.6227,0.6115,0.6057,0.603,0.603,0.6139,0.6213,-2.2868,-2.4109,-2.4545,-2.349,-2.1771,-1.9644,-1.7071,-1.5032,-1.2873,-1.0213,-0.9666,-0.9589,-0.9412,-0.9376,-1.0019,-1.1996,-1.2316,-1.3287,-1.6038,-1.8437,-2.0528,-2.2174,-2.627,-2.9015,-2.9161,-3.0078,-3.0123,-2.8919,-2.8826,-2.8496,-2.761,-2.7625,-2.7625,-2.7625,-2.6443,-2.5673,-2.5398,-2.4163,-2.3424,-2.3065,-2.194,-2.0688,-1.929,-1.8079,-1.6748,-1.5352,-1.4569,-1.4034,0.0,-1.2624,-1.2072,-1.1769,-1.0802,-0.9735,-0.8699,-0.7815,-0.6869,-0.5952,-0.601,-0.6095,-0.6149,-0.5993,-0.5844,-0.5722,-0.5722,-0.5867,-0.6061,-0.6217,-0.6338,-0.6338,-0.6338,-0.6264,-0.6268,-0.6264,-0.6264,-0.6268,-0.6264,-0.6297,-0.6266,-0.6103,-0.6092,-0.5557,-0.3914,-0.4901,-0.5732,-0.4898,-0.2147,0.1306,0.5245,0.4652,0.402,0.4284,0.5533,0.5701,0.4313,0.4997,0.5574,0.5696,0.5651,0.5637,0.5682,0.5097,0.4232,0.3122,0.4342,0.5293,0.5972,0.5976,0.5942,0.5945,0.6044,0.6149,0.0,-2.1936,-2.2703,-2.2585,-2.1242,-1.9288,-1.672,-1.4782,0.0,-1.0324,-0.9754,-0.9701,-0.9679,-0.9589,-0.9744,-1.0441,-1.0539,-1.229,-1.7258,-1.8285,-2.0009,-2.4015,-2.5967,-2.7128,-2.7548,-2.9693,-3.0617,-2.9496,-2.9361,-2.881,-2.766,-2.7625,-2.7575,-2.7509,-2.6826,-2.6068,-2.5398,-2.4624,-2.3826,-2.3078,-2.3027,-2.1656,-1.9313,-1.9219,-1.7782,-1.5352,-1.4569,-1.3726,-1.2972,-1.2465,-1.1888,-1.1319,-1.0682,-0.9908,-0.901,-0.7928,-0.6791,-0.5878,-0.5959,-0.602,-0.6006,-0.585,-0.5698,-0.5576,-0.5586,-0.5796,-0.6061,-0.6203,-0.6251,-0.6257,-0.6247,-0.6254,-0.6257,-0.6247,-0.6254,-0.6335,-0.6325,-0.6298,-0.6314,-0.6332,-0.6275,-0.557,-0.3268,-0.477,-0.5612,-0.3653,-0.1529,0.1368,0.5733,0.601,0.5957,0.6244,0.6271,0.6213,0.6061,0.5842,0.5682,0.5673,0.5538,0.5515,0.5676,0.3785,0.2829,0.312,0.2971,0.3909,0.5939,0.5871,0.58,0.58,0.5813,0.5976,-1.4528,0.0,-1.6854,-1.5532,-1.4871,-1.4201,0.0,-1.2229,-1.1494,-1.0157,-0.9825,-1.0124,-1.1269,-1.0491,-1.0603,-1.3552,-1.39,-1.5159,-1.9075,-2.2994,-2.6472,-2.9168,-2.9504,-2.9676,-3.0246,-2.9996,-2.9717,-2.9406,-2.8966,-2.8367,-2.7625,-2.7625,-2.7357,-2.6774,-2.6054,-2.5563,-2.5398,-2.4047,-2.3305,-2.3065,-2.2091,-2.0807,-1.929,-1.8309,-1.6957,-1.5352,-1.4569,-1.3726,-1.2997,-1.2676,-1.2102,-1.1339,-1.0888,-1.0388,-0.965,-0.8093,-0.7144,-0.6545,-0.6015,-0.5932,-0.6006,-0.585,-0.5627,-0.5437,-0.5555,-0.5796,-0.6037,-0.6074,-0.6169,-0.6234,-0.6115,-0.6173,-0.6256,-0.6088,-0.6173,-0.6335,-0.6331,-0.6303,-0.6318,-0.627,-0.6313,-0.509,-0.1345,-0.3821,-0.6096,-0.559,-0.1225,0.2949,0.5588,0.5828,0.5848,0.6071,0.6091,0.6125,0.62,0.5902,0.5708,0.5654,0.5576,0.5627,0.5679,0.3776,0.2805,0.3122,0.435,0.5237,0.5698,0.5769,0.58,0.5803,0.5922,0.6078,-1.1582,-1.3488,-1.51,-1.4134,-1.3888,-1.3658,-1.2745,-1.1907,-1.1046,-1.0136,-0.9863,-1.0056,-1.0885,-1.1212,-1.1824,-1.3267,-1.5497,-1.8249,-2.1693,-2.5116,-2.8027,-2.9956,-2.9911,-3.0005,-3.073,-3.0208,-2.9585,-2.9012,-2.8685,-2.8238,-2.7625,-2.7625,-2.7408,-2.7049,-2.6283,-2.5563,-2.4908,-2.3708,-2.3078,-2.3065,-2.2394,-2.1416,-2.0109,-1.8825,-1.7579,-1.6262,-1.4821,-1.3726,-1.3005,-1.2767,-1.2173,-1.1401,-1.1338,-1.0887,-1.0143,-0.8581,-0.7593,-0.6937,-0.6126,-0.5813,-0.5817,-0.5732,-0.5549,-0.5393,-0.548,-0.5708,-0.5864,-0.5993,-0.6095,-0.6142,-0.6139,-0.6187,-0.6076,-0.5367,-0.5714,-0.6298,-0.6296,-0.5541,-0.5111,-0.6106,-0.477,-0.2654,-0.0376,-0.1895,-0.4056,-0.5979,-0.1054,0.3579,0.5535,0.5828,0.5966,0.6118,0.6135,0.6142,0.6156,0.5875,0.5708,0.5691,0.5627,0.5664,0.583,0.4704,0.4162,0.4319,0.511,0.554,0.5589,0.5732,0.5837,0.5908,0.5989,0.6112,-1.0762,-1.3378,-1.5755,-1.4773,-1.4707,-1.462,-1.3561,-1.218,-1.0884,-1.0149,-0.9899,-0.9996,-1.0603,-1.2133,-1.3147,-1.27,-1.6887,-2.1381,-2.4761,-2.6452,-2.7893,-2.9253,-2.9296,-2.9504,-3.0361,-3.0251,-2.9717,-2.8685,-2.8559,-2.8238,-2.7625,-2.7625,-2.7575,-2.7458,-2.6826,-2.5783,-2.4292,-2.359,-2.3185,-2.3078,-2.3078,-2.2406,-2.1141,-1.9886,-1.8607,-1.7307,-1.5262,-1.3846,-1.3005,-1.2891,-1.2301,-1.1456,-1.1804,-1.1475,-1.0617,-0.9214,-0.8165,-0.7311,-0.619,-0.5674,-0.5559,-0.5583,-0.5488,-0.5386,-0.5388,-0.55,-0.57,-0.5891,-0.5993,-0.6013,-0.5838,-0.6043,-0.5902,-0.437,-0.5194,-0.6273,-0.6286,-0.4865,-0.3916,-0.5122,-0.2439,-0.0,-0.0,-0.0,-0.1181,-0.4774,-0.0812,0.3451,0.5601,0.5976,0.6081,0.621,0.6247,0.62,0.604,0.6054,0.6039,0.6015,0.5758,0.5779,0.6047,0.5935,0.5851,0.5778,0.5544,0.5458,0.5589,0.5708,0.5847,0.5993,0.5973,0.6057,-1.293,-1.6002,-1.7399,-1.2264,-1.2056,-1.2687,-1.1128,-1.0479,-1.0168,-1.0035,-0.9899,-1.0845,-1.4254,-1.4006,-1.4271,-1.7279,-2.0702,-2.4278,-2.7953,-2.9661,-3.0717,-3.1281,-3.0634,-3.0368,-3.0998,-3.0123,-2.9451,-2.9271,-2.8779,-2.8238,-2.7625,-2.7625,-2.7306,-2.6669,-2.6563,-2.5783,-2.4292,-2.4176,-2.3767,-2.3078,-2.3078,-2.2406,-2.1141,-1.9886,-1.8607,-1.7307,-1.5869,-1.4382,-1.3066,-1.3534,-1.2826,-1.1483,-1.2024,-1.2012,-1.1533,-0.9802,-0.8759,-0.8001,-0.6237,-0.5525,-0.5416,-0.5549,-0.5488,-0.5432,-0.5389,-0.5406,-0.5518,-0.5696,-0.5997,-0.5854,-0.4058,-0.4928,-0.5705,-0.3439,-0.4638,-0.6309,-0.628,-0.6076,-0.4844,-0.1596,-0.0436,-0.0,-0.0,-0.0,-0.0226,-0.0832,-0.0148,0.1833,0.5757,0.6061,0.6047,0.6064,0.6183,0.62,0.604,0.6737,0.7167,0.6948,0.6204,0.5901,0.6276,0.6098,0.5899,0.5692,0.5604,0.5589,0.5589,0.561,0.5694,0.5833,0.5711,0.5803,-1.1738,-1.383,-1.5345,-1.3945,-1.6502,-1.9107,-1.8146,-1.7183,-1.5996,-1.4295,-1.3819,-1.4006,-1.5071,-1.6331,-1.8979,-2.4446,-2.5364,-2.6405,-2.9384,-2.9408,-2.9506,-3.0491,-3.0017,-2.9872,-3.0633,-3.0208,-2.9761,-2.9406,-2.8826,-2.8367,-2.8091,-2.776,-2.7458,-2.71,-2.7086,-2.6602,-2.5508,-2.5508,-2.4654,-2.3078,-2.3078,-2.2658,-2.1746,-2.0487,-1.9205,-1.789,-1.6566,-1.5089,-1.3649,-1.3633,-1.3209,-1.2468,-1.1998,-1.212,-1.2246,-1.0101,-0.8651,-0.7637,-0.6187,-0.5552,-0.5439,-0.5443,-0.542,-0.5379,-0.5406,-0.5379,-0.5423,-0.5669,-0.5761,-0.5651,-0.5005,-0.3833,-0.2586,-0.1504,-0.2109,-0.3485,-0.5815,-0.6266,-0.5075,-0.0814,-0.0,-0.0,-0.0,-0.0,-0.0,-0.0,0.0944,0.2407,0.4294,0.5396,0.6067,0.6146,0.6142,0.6366,0.6901,0.7331,0.7415,0.7229,0.6793,0.6415,0.6301,0.607,0.5808,0.5689,0.5593,0.5545,0.5705,0.5627,0.5983,0.6638,0.6478,0.6813,-1.1074,-1.2384,-1.4215,-1.6692,-1.975,-2.2475,-2.3803,-2.2342,-2.0295,-1.8875,-1.844,-1.7982,-1.6768,-1.9328,-2.3472,-2.9156,-2.8792,-2.8578,-3.0807,-2.9642,-2.9064,-3.0302,-3.0076,-3.002,-3.0613,-3.0633,-3.0344,-2.9673,-2.918,-2.8873,-2.8732,-2.8271,-2.8027,-2.8027,-2.7894,-2.7444,-2.6745,-2.6549,-2.5439,-2.3365,-2.3365,-2.3014,-2.2239,-2.0964,-1.9679,-1.843,-1.7081,-1.5613,-1.4181,-1.3825,-1.36,-1.326,-1.2251,-1.2116,-1.2322,-1.0359,-0.8631,-0.7195,-0.6407,-0.5811,-0.541,-0.5439,-0.5428,-0.5393,-0.5424,-0.5117,-0.4922,-0.5484,-0.4891,-0.425,-0.4725,-0.2395,-0.0,-0.0,-0.0,-0.0894,-0.4111,-0.4812,-0.3876,-0.0602,-0.0,-0.0,-0.0,0.0737,0.1294,0.142,0.2372,0.3276,0.381,0.5143,0.6153,0.6572,0.6471,0.6907,0.8367,0.8268,0.8157,0.807,0.7455,0.6973,0.6693,0.6162,0.5775,0.5755,0.5555,0.5528,0.5752,0.5811,0.6356,0.7207,0.7311,0.784,-1.3398,-1.5057,-1.6868,-1.9168,-1.6644,-1.5228,-2.1489,-1.9791,-1.7949,-2.1641,-2.2336,-2.2168,-2.1828,-2.3524,-2.5629,-2.7673,-2.9355,-3.1175,-3.3241,-3.2727,-3.2314,-3.2865,-3.2521,-3.2091,-3.1735,-3.1699,-3.1287,-3.0335,-3.0208,-2.9951,-2.9361,-2.9271,-2.9271,-2.9271,-2.8732,-2.8079,-2.736,-2.6782,-2.5728,-2.4234,-2.4234,-2.3528,-2.2239,-2.0964,-1.9679,-1.843,-1.7081,-1.5613,-1.424,-1.4514,-1.4113,-1.3356,-1.3112,-1.2128,-1.0953,-1.0597,-0.9254,-0.7423,-0.7085,-0.6409,-0.5549,-0.5406,-0.5428,-0.5393,-0.5415,-0.4258,-0.3277,-0.4923,-0.2999,-0.0434,-0.0424,-0.0215,-0.0,-0.0,-0.0,-0.0073,-0.0365,-0.043,-0.0357,-0.0075,-0.0,-0.0,-0.0,0.2762,0.5197,0.5765,0.4297,0.3812,0.579,0.604,0.6339,0.7294,0.743,0.8231,1.0387,1.0329,1.0257,1.039,0.8312,0.7312,0.7672,0.6614,0.5945,0.5806,0.565,0.5586,0.5603,0.6309,0.6714,0.6971,0.765,0.8173,-1.1562,-1.4093,-1.6874,-1.8277,-1.7612,-1.829,-2.4739,-2.5404,-2.5162,-2.6899,-2.7197,-2.6579,-2.4794,-2.7262,-2.9589,-2.9553,-3.1604,-3.339,-3.3975,-3.3561,-3.3194,-3.3196,-3.2795,-3.2417,-3.223,-3.2248,-3.1951,-3.1287,-3.0903,-3.0443,-2.9978,-2.9585,-2.9406,-2.9406,-2.8826,-2.8352,-2.8079,-2.7479,-2.6428,-2.4951,-2.4509,-2.3586,-2.2284,-2.1448,-2.0374,-1.9109,-1.7746,-1.6574,-1.5565,-1.4726,-1.4499,-1.4563,-1.3876,-1.2723,-1.1427,-1.0737,-0.9515,-0.8089,-0.7377,-0.6425,-0.5583,-0.5521,-0.544,-0.5393,-0.5421,-0.4127,-0.3074,-0.4865,-0.2792,-0.0,-0.0,-0.0,-0.0,-0.0,-0.0,-0.0,-0.0,-0.0,-0.0,-0.0,-0.0,-0.0,-0.0,0.3017,0.559,0.6231,0.5493,0.521,0.6183,0.6544,0.6911,0.7647,0.8786,0.9856,1.0703,1.1143,1.1358,1.1436,0.9956,0.8913,0.8297,0.74,0.7066,0.7259,0.6704,0.6672,0.7219,0.7414,0.7876,0.855,0.8728,0.9254,-1.1562,-1.3574,-1.6211,-1.8149,-1.8626,-2.0367,-2.7034,-2.8395,-2.8913,-3.1245,-3.078,-2.944,-2.7856,-2.9775,-3.1386,-3.0809,-3.3033,-3.4675,-3.4246,-3.3951,-3.3695,-3.3419,-3.3105,-3.2872,-3.2745,-3.2713,-3.2466,-3.1861,-3.1425,-3.1004,-3.0601,-3.0208,-2.9995,-2.9995,-2.9361,-2.8966,-2.8779,-2.8189,-2.7174,-2.5728,-2.5007,-2.3804,-2.2297,-2.2178,-2.1206,-1.9579,-1.8811,-1.7789,-1.6644,-1.5635,-1.5043,-1.4708,-1.4101,-1.3036,-1.1666,-1.11,-1.0101,-0.8894,-0.82,-0.7051,-0.5986,-0.5935,-0.5713,-0.5393,-0.5428,-0.4154,-0.2831,-0.3491,-0.1895,-0.0,-0.0,-0.0,-0.0,-0.0,-0.0,-0.0,-0.0,-0.0,-0.0,-0.0,-0.0,0.0371,0.1518,0.3311,0.4954,0.6046,0.6058,0.6089,0.6541,0.6913,0.7461,0.8388,1.0103,1.115,1.1304,1.1663,1.187,1.187,1.128,1.029,0.9055,0.8193,0.7895,0.817,0.7618,0.7586,0.8127,0.8304,0.8761,0.9454,0.9693,1.0327,-1.4297,-1.4119,-1.5181,-1.9336,-1.9153,-1.9896,-2.7411,-2.7159,-2.7283,-3.409,-3.2703,-3.0475,-3.1254,-3.0776,-3.0424,-3.093,-3.3308,-3.4888,-3.4292,-3.42,-3.4099,-3.3842,-3.3807,-3.3634,-3.3243,-3.3214,-3.2809,-3.188,-3.1825,-3.164,-3.123,-3.119,-3.119,-3.119,-3.0617,-2.9978,-2.9406,-2.8779,-2.7815,-2.6457,-2.5728,-2.4303,-2.2309,-2.3059,-2.2035,-1.9626,-2.0151,-1.9193,-1.7252,-1.7339,-1.5805,-1.3451,-1.3754,-1.2893,-1.1463,-1.1757,-1.1026,-0.984,-0.9738,-0.843,-0.6839,-0.6721,-0.6079,-0.5396,-0.5431,-0.4136,-0.2323,-0.0509,-0.0,-0.0,0.0072,-0.0,-0.0,-0.0,-0.0,-0.0,-0.0,-0.0,-0.0,-0.0,-0.0,0.1156,0.4807,0.3905,0.3481,0.5704,0.5885,0.6212,0.7167,0.7186,0.7924,0.9892,1.1198,1.1991,1.2278,1.2037,1.1942,1.1864,1.1935,1.1294,0.9956,0.8969,0.8379,0.8238,0.8233,0.8122,0.8027,0.8877,0.9338,0.9344,1.0457,1.1149,-1.1619,-1.5763,-2.0077,-1.8935,-2.3187,-2.8078,-2.9717,-2.9457,-3.0148,-3.4589,-3.4672,-3.3421,-3.1708,-3.2799,-3.3355,-3.1584,-3.3589,-3.519,-3.4634,-3.4551,-3.4375,-3.3868,-3.3807,-3.3734,-3.3634,-3.3606,-3.339,-3.284,-3.2484,-3.2109,-3.164,-3.1351,-3.119,-3.119,-3.0208,-2.9585,-2.9406,-2.8352,-2.7159,-2.5728,-2.6014,-2.5301,-2.367,-2.2981,-2.2223,-2.144,-2.0088,-1.9152,-1.8403,-1.7059,-1.539,-1.3737,-1.3851,-1.2893,-1.1436,-1.1523,-1.0323,-0.8722,-0.8659,-0.7504,-0.6146,-0.6098,-0.5807,-0.5552,-0.5441,-0.4143,-0.2339,-0.0507,-0.0,0.0604,0.3137,0.1931,-0.0,-0.0,-0.0,-0.0,-0.0,-0.0,-0.0,-0.0,0.2077,0.4302,0.581,0.6135,0.6248,0.6232,0.6629,0.7236,0.8013,0.8867,0.9865,1.0886,1.1728,1.2204,1.2291,1.2606,1.2403,1.157,1.1885,1.1748,1.0998,1.0366,1.0124,1.0195,0.9678,0.9556,0.9843,1.0104,1.0341,1.047,1.0817,1.1042,-1.5008,-1.9324,-2.3602,-2.3926,-2.7464,-3.1156,-3.2295,-3.2492,-3.3013,-3.5084,-3.5218,-3.4576,-3.3273,-3.4101,-3.4537,-3.3254,-3.4428,-3.5304,-3.4793,-3.4694,-3.4483,-3.3868,-3.3807,-3.3807,-3.3807,-3.3807,-3.3634,-3.3243,-3.2952,-3.25,-3.1861,-3.1565,-3.1257,-3.0878,-3.0123,-2.954,-2.9058,-2.8319,-2.7244,-2.5897,-2.5994,-2.5368,-2.3983,-2.3384,-2.2801,-2.2168,-2.0201,-1.9121,-1.855,-1.6971,-1.5445,-1.3988,-1.3753,-1.2887,-1.172,-1.1512,-1.0343,-0.8906,-0.9315,-0.8091,-0.6433,-0.7008,-0.6503,-0.5616,-0.5441,-0.4654,-0.3216,-0.0734,0.1206,0.2966,0.4928,0.3754,0.1797,0.0341,-0.0,-0.0,-0.0,-0.0,0.0451,0.1844,0.5023,0.7313,0.692,0.7711,0.8137,0.7296,0.783,0.8457,0.8969,0.9921,1.0899,1.1527,1.1917,1.2324,1.2799,1.2677,1.2487,1.2158,1.2098,1.1948,1.1597,1.1141,1.0893,1.1002,1.0545,1.0413,1.0624,1.0739,1.0822,1.1002,1.1236,1.1276,-2.1405,-2.3564,-2.5993,-3.1565,-3.1457,-3.0998,-3.4841,-3.5601,-3.5528,-3.5515,-3.4879,-3.4571,-3.5353,-3.4853,-3.4584,-3.5372,-3.5493,-3.532,-3.4812,-3.4733,-3.4505,-3.3921,-3.3815,-3.3807,-3.3807,-3.3807,-3.3652,-3.3273,-3.3214,-3.2809,-3.1915,-3.1808,-3.1363,-3.0418,-3.0351,-2.9761,-2.8606,-2.8511,-2.7819,-2.6466,-2.5838,-2.479,-2.3505,-2.395,-2.338,-2.1989,-2.0442,-1.9091,-1.7934,-1.7024,-1.5685,-1.4168,-1.3609,-1.2852,-1.208,-1.1587,-1.0792,-1.0014,-1.0835,-0.9377,-0.7412,-0.8638,-0.74,-0.5471,-0.5491,-0.5438,-0.4675,-0.1048,0.2989,0.6126,0.5561,0.5412,0.453,0.1086,0.014,0.0072,0.0425,0.0512,0.1416,0.4545,0.7933,0.9748,0.801,0.8675,0.9286,0.884,0.9201,0.9591,0.9846,1.0577,1.131,1.1952,1.2013,1.2472,1.3606,1.2699,1.2382,1.3075,1.2389,1.1979,1.187,1.1356,1.1062,1.1035,1.1009,1.0927,1.0792,1.0927,1.1088,1.1215,1.1659,1.1697,-1.7579,-2.2628,-2.7908,-2.9838,-3.2439,-3.471,-3.5528,-3.5675,-3.5629,-3.559,-3.5433,-3.533,-3.5482,-3.5353,-3.5276,-3.5468,-3.5493,-3.5383,-3.507,-3.4832,-3.4551,-3.4147,-3.3928,-3.3807,-3.3807,-3.3807,-3.3762,-3.368,-3.3361,-3.2952,-3.2384,-3.1986,-3.1548,-3.0998,-3.0559,-2.9951,-2.9225,-2.8748,-2.756,-2.564,-2.6051,-2.4943,-2.2578,-2.2661,-2.1985,-2.0602,-2.0049,-1.9091,-1.7801,-1.7024,-1.5697,-1.4084,-1.362,-1.2676,-1.1533,-1.1464,-1.0798,-0.9927,-0.931,-0.8498,-0.765,-0.6769,-0.524,-0.3985,-0.5637,-0.5793,-0.4651,-0.1015,0.2691,0.5581,0.5696,0.5555,0.4853,0.2634,0.1049,0.08,0.3625,0.4235,0.4036,0.3391,0.5738,0.7905,0.7892,0.9082,0.9979,0.9999,0.9725,0.9591,0.9846,1.0735,1.1744,1.2873,1.2917,1.3016,1.3364,1.3469,1.2999,1.1861,1.2272,1.2317,1.1928,1.175,1.157,1.1336,1.1109,1.1348,1.1983,1.1348,1.1625,1.2775,1.1909,1.161,-1.9051,-2.3888,-2.8429,-3.1776,-3.4293,-3.5925,-3.5868,-3.5841,-3.5825,-3.5756,-3.5676,-3.559,-3.555,-3.5522,-3.5493,-3.5493,-3.5493,-3.5369,-3.4963,-3.4774,-3.4529,-3.4068,-3.3876,-3.3807,-3.3807,-3.3807,-3.3807,-3.3807,-3.3437,-3.2983,-3.2517,-3.2057,-3.1493,-3.0781,-3.0477,-3.0038,-2.9406,-2.8779,-2.7618,-2.5882,-2.5937,-2.4531,-2.192,-2.192,-2.1092,-1.9655,-1.9512,-1.8628,-1.7181,-1.6225,-1.5314,-1.4371,-1.3099,-1.2397,-1.1948,-1.1404,-1.0554,-0.9608,-0.9295,-0.8269,-0.6944,-0.6201,-0.5343,-0.4486,-0.3567,-0.3033,-0.2446,-0.0566,0.1357,0.3276,0.5157,0.5713,0.5547,0.4267,0.3291,0.3568,0.7102,0.722,0.6433,0.578,0.7301,0.8756,0.8817,0.9793,1.0585,1.0654,1.0429,1.0342,1.061,1.1599,1.2381,1.2614,1.3048,1.336,1.3274,1.3175,1.295,1.2537,1.2965,1.3038,1.2777,1.3053,1.2961,1.2324,1.2161,1.2468,1.329,1.2468,1.2441,1.3096,1.2124,1.1643,-2.0542,-2.479,-2.8533,-3.4316,-3.5879,-3.5996,-3.5996,-3.5996,-3.5976,-3.5938,-3.5788,-3.565,-3.5631,-3.5562,-3.5528,-3.5528,-3.5501,-3.5354,-3.4908,-3.4812,-3.4569,-3.403,-3.3902,-3.3868,-3.3788,-3.3807,-3.3807,-3.3807,-3.3494,-3.3105,-3.2648,-3.2161,-3.1514,-3.0608,-3.0502,-3.0166,-2.954,-2.8966,-2.7965,-2.6557,-2.5463,-2.3794,-2.169,-2.1335,-2.0423,-1.9166,-1.8959,-1.8097,-1.6815,-1.5554,-1.4872,-1.4453,-1.2577,-1.2018,-1.226,-1.1154,-1.0113,-0.9299,-0.9511,-0.8209,-0.6403,-0.5902,-0.5457,-0.4543,-0.1032,-0.0,-0.0,-0.0,-0.0,0.0701,0.3668,0.5277,0.5986,0.548,0.5339,0.6234,0.9321,0.8847,0.7991,0.8484,0.9526,1.0315,1.0013,1.0552,1.1029,1.1129,1.1062,1.1116,1.1456,1.2409,1.2868,1.2287,1.3035,1.3558,1.3289,1.2799,1.2802,1.3591,1.3643,1.3818,1.3954,1.4525,1.4502,1.3894,1.3646,1.3878,1.4635,1.381,1.334,1.3201,1.2331,1.1749,-1.4931,-2.165,-2.9199,-3.366,-3.5406,-3.5996,-3.5996,-3.5996,-3.5996,-3.5996,-3.5918,-3.5827,-3.5703,-3.563,-3.5579,-3.5579,-3.554,-3.546,-3.5398,-3.519,-3.4944,-3.4612,-3.4311,-3.4068,-3.3815,-3.3807,-3.3807,-3.3807,-3.3734,-3.355,-3.3154,-3.2648,-3.2161,-3.1625,-3.1257,-3.0797,-3.0166,-2.9585,-2.8607,-2.7245,-2.4368,-2.2777,-2.239,-2.0768,-1.9785,-1.9294,-1.8387,-1.7852,-1.7544,-1.6024,-1.4789,-1.363,-1.2336,-1.1567,-1.1075,-1.0064,-0.9838,-0.973,-0.7927,-0.7841,-0.7917,-0.4748,-0.2372,-0.0738,-0.0197,-0.0,-0.0,-0.0,-0.0,0.0127,0.0597,0.3105,0.5431,0.5042,0.5029,0.5607,0.7251,0.7404,0.7288,0.7643,0.8678,0.9829,1.1005,1.1095,1.1162,1.1677,1.1316,1.1189,1.1744,1.1986,1.2458,1.3367,1.3256,1.3242,1.3267,1.3094,1.3123,1.3327,1.3588,1.4099,1.495,1.5114,1.5441,1.6131,1.4875,1.4746,1.5882,1.4613,1.4154,1.4391,1.2897,1.1864,-1.6093,-2.2108,-2.7918,-3.2643,-3.4133,-3.444,-3.444,-3.4454,-3.4621,-3.5109,-3.5215,-3.5357,-3.5743,-3.5723,-3.5638,-3.5601,-3.5577,-3.5489,-3.53,-3.5155,-3.4999,-3.4734,-3.4572,-3.4357,-3.4043,-3.4018,-3.3961,-3.3815,-3.3578,-3.339,-3.3214,-3.2745,-3.2264,-3.1808,-3.164,-3.1317,-3.0797,-2.9848,-2.8373,-2.6287,-2.379,-2.2406,-2.1957,-2.0072,-1.8899,-1.8336,-1.7678,-1.6915,-1.6023,-1.4452,-1.3447,-1.2797,-1.1403,-1.0788,-1.0715,-1.0095,-0.9376,-0.8641,-0.7792,-0.7269,-0.647,-0.407,-0.2918,-0.2226,-0.0507,-0.0,-0.0,-0.0,-0.0,-0.0,-0.0,0.1205,0.2778,0.4507,0.4848,0.5126,0.6332,0.6935,0.754,0.8701,0.9408,0.9995,1.0803,1.0835,1.0895,1.1316,1.1296,1.1587,1.2578,1.2785,1.3021,1.3413,1.3435,1.3177,1.2579,1.2585,1.2892,1.3465,1.4157,1.495,1.593,1.6507,1.6932,1.7364,1.6174,1.6084,1.7148,1.5775,1.4889,1.4438,1.2925,1.2072,0.0,0.0,-2.4063,-2.9815,-3.1587,-3.2124,-3.3003,-3.3229,-3.3454,-3.4101,-3.4278,-3.451,-3.513,-3.5518,-3.573,-3.5639,-3.5611,-3.5523,-3.5235,-3.5015,-3.4857,-3.4813,-3.4604,-3.4389,-3.4204,-3.42,-3.4093,-3.3815,-3.3522,-3.3361,-3.3361,-3.2903,-3.2466,-3.1986,-3.1861,-3.1603,-3.119,-2.9842,-2.8,-2.5727,-2.3775,-2.2531,-2.1781,-2.0051,-1.879,-1.7894,-1.7196,-1.6156,-1.4845,-1.3246,-1.244,-1.2093,-1.0677,-1.0254,-1.0401,-0.9846,-0.8776,-0.7614,-0.7481,-0.6561,-0.5209,-0.4069,-0.4035,-0.406,-0.1803,-0.0613,-0.0,-0.0,-0.0,0.006,0.0487,0.0549,0.1164,0.3641,0.4405,0.4891,0.5977,0.6933,0.7946,0.9484,0.9807,1.004,1.0544,1.0557,1.0749,1.1462,1.1668,1.2239,1.3607,1.3739,1.3648,1.3409,1.3388,1.3006,1.2069,1.239,1.3098,1.4027,1.5021,1.6009,1.6922,1.7647,1.7959,1.7852,1.7257,1.7304,1.8008,1.6863,1.5628,1.4405,1.3356,1.2636,0.0,-1.3885,0.0,-2.4023,-2.7133,-2.921,-3.2469,-3.3192,-3.3218,-3.3256,-3.3276,-3.3303,-3.3412,-3.4783,-3.5841,-3.571,-3.5629,-3.5577,-3.5488,-3.4762,-3.4443,-3.5009,-3.4344,-3.3941,-3.4172,-3.42,-3.4093,-3.3815,-3.378,-3.3762,-3.3762,-3.339,-3.2952,-3.2484,-3.2022,-3.1603,-3.119,-2.9352,-2.7745,-2.6314,-2.4509,-2.3277,-2.2537,-2.1246,-2.001,-1.8759,-1.7224,-1.5995,-1.4963,-1.358,-1.2512,-1.1703,-1.0533,-1.0127,-0.9946,-0.8743,-0.789,-0.7161,-0.6218,-0.5691,-0.5322,-0.4865,-0.4612,-0.4452,-0.4317,-0.2238,-0.0,-0.0,-0.0,0.0341,0.1702,0.2064,0.2116,0.2297,0.3528,0.5015,0.6171,0.7344,0.8275,0.8763,0.9066,0.9552,1.0414,1.0327,1.0829,1.2883,1.296,1.3339,1.4907,1.4299,1.3665,1.365,1.2872,1.2372,1.2278,1.3091,1.4027,1.5092,1.6009,1.6922,1.7872,1.794,1.7822,1.7422,1.7735,1.794,1.8008,1.7521,1.64,1.4705,1.4705,1.3844,0.0,0.0,0.0,-1.9838,-2.3445,-2.5997,-2.7724,-2.9865,-3.1639,-3.219,-3.2331,-3.253,-3.3127,-3.379,-3.4217,-3.4168,-3.415,-3.4101,-3.4031,-3.3673,-3.35,-3.373,-3.3429,-3.3181,-3.3128,-3.2994,-3.3077,-3.3512,-3.3385,-3.3512,-3.4031,-3.3906,-3.3588,-3.2983,-3.2295,-3.1163,-2.9542,-2.8652,-2.738,-2.5756,-2.4732,-2.3664,-2.2625,-2.1023,-1.9599,-1.8342,-1.6608,-1.5005,-1.3515,-1.2363,-1.1581,-1.0997,-0.9948,-0.9831,-1.008,-0.8683,-0.7611,-0.6788,-0.6236,-0.5623,-0.5058,-0.4942,-0.4145,-0.3316,-0.3097,-0.1602,-0.0,-0.0,0.1694,0.351,0.3625,0.2928,0.2463,0.3582,0.4814,0.5779,0.627,0.7563,0.8878,0.9805,0.9886,1.002,1.0715,1.0595,1.0918,1.238,1.2773,1.3601,1.5428,1.4521,1.3954,1.4593,1.381,1.3164,1.3164,1.4099,1.5092,1.607,1.6419,1.7001,1.794,1.8008,1.7648,1.6924,1.7379,1.7607,1.7607,1.7461,1.6619,1.5191,1.4989,1.4418,-0.5005,-0.7351,0.0,-1.402,-1.7602,-2.1146,-2.445,-2.6756,-2.8762,-3.0694,-3.1177,-3.1454,-3.2078,-3.2279,-3.2563,-3.3174,-3.3292,-3.3282,-3.3206,-3.2846,-3.2687,-3.2977,-3.2706,-3.2486,-3.2492,-3.2383,-3.2486,-3.292,-3.2795,-3.2935,-3.3455,-3.3444,-3.3087,-3.2437,-3.1721,-3.0645,-2.911,-2.8446,-2.7448,-2.6134,-2.5155,-2.4197,-2.3216,-2.1195,-1.9767,-1.8734,-1.6715,-1.4595,-1.2556,-1.1875,-1.1263,-1.0593,-0.9841,-0.9885,-1.0137,-0.8893,-0.7816,-0.69,-0.6459,-0.5847,-0.5146,-0.4972,-0.4306,-0.3339,-0.1895,-0.0783,0.0239,0.1498,0.3545,0.5584,0.6323,0.5171,0.3983,0.5001,0.5731,0.6337,0.7088,0.8059,0.8998,0.9837,0.9977,1.0181,1.0982,1.0961,1.1329,1.2885,1.3207,1.4022,1.6136,1.5141,1.4593,1.5587,1.4807,1.4171,1.4171,1.4807,1.5446,1.607,1.614,1.6513,1.7224,1.7292,1.7015,1.6448,1.6881,1.7168,1.7168,1.7168,1.6607,1.564,1.5429,1.5028,0.0,0.0,0.0,-0.6713,-0.9758,-1.474,-2.2669,-2.3981,-2.465,-2.8688,-2.9671,-2.9898,-3.0143,-3.0356,-3.1073,-3.2829,-3.3172,-3.3189,-3.3141,-3.2338,-3.2048,-3.2832,-3.2177,-3.1866,-3.239,-3.2435,-3.2338,-3.2109,-3.2072,-3.2091,-3.2109,-3.1907,-3.1481,-3.083,-3.0345,-3.0084,-3.0066,-2.8827,-2.7992,-2.7553,-2.5856,-2.4823,-2.4358,-2.1974,-2.0612,-1.9972,-1.7526,-1.4806,-1.2252,-1.2305,-1.1681,-1.0676,-1.0419,-1.03,-1.0208,-0.9111,-0.8262,-0.7563,-0.6804,-0.6174,-0.5694,-0.5072,-0.5081,-0.4671,-0.1151,-0.0,0.0864,0.4356,0.5363,0.6108,0.9602,0.8612,0.6694,0.6357,0.6177,0.6657,0.8583,0.8867,0.8705,0.8827,0.9351,1.0079,1.113,1.1353,1.2158,1.4541,1.4478,1.4932,1.7079,1.61,1.5553,1.6471,1.5694,1.5138,1.5217,1.5209,1.5201,1.5201,1.5201,1.5384,1.5829,1.5878,1.5919,1.6033,1.6441,1.6675,1.6685,1.6685,1.6474,1.5927,1.6052,1.582,-0.4678,0.0,0.0,0.0,0.0,0.0,-1.1825,-1.5738,-2.0493,-2.4529,-2.5406,-2.6378,-2.9492,-3.017,-3.0442,-3.0942,-3.125,-3.1403,-3.1386,-3.117,-3.1101,-3.131,-3.1087,-3.0964,-3.1116,-3.0994,-3.1195,-3.1903,-3.1744,-3.1852,-3.2431,-3.2164,-3.1669,-3.0886,-3.0452,-2.9899,-2.9159,-2.8523,-2.7882,-2.7235,-2.6455,-2.5655,-2.4752,-2.2518,-2.096,-1.9925,-1.7902,-1.5608,-1.3167,-1.2828,-1.2182,-1.1413,-1.0345,-1.0254,-1.0387,-0.8049,-0.7074,-0.675,-0.55,-0.5065,-0.5006,-0.4934,-0.425,-0.3283,-0.2227,0.0496,0.3435,0.4446,0.4148,0.4086,0.683,0.704,0.6626,0.7163,0.785,0.8565,0.9081,1.0086,1.0801,1.0483,1.0864,1.1363,1.1866,1.2282,1.2978,1.4219,1.4586,1.5142,1.6282,1.5735,1.5486,1.6031,1.5069,1.4486,1.4811,1.5204,1.5181,1.4589,1.5115,1.5195,1.4761,1.5287,1.5319,1.4655,1.6008,1.6481,1.6149,1.6852,1.696,1.6472,1.5875,1.5527,-0.4963,-0.5103,-0.5378,-0.6523,0.0,0.0,-1.1164,-1.376,-1.7677,-2.4501,-2.6004,-2.682,-2.9311,-2.9886,-2.998,-2.998,-3.019,-3.0372,-3.05,-3.0619,-3.0655,-3.0655,-3.0622,-3.0606,-3.0606,-3.0484,-3.0683,-3.1313,-3.118,-3.1225,-3.159,-3.1412,-3.1037,-3.0413,-3.0152,-2.9772,-2.9163,-2.8941,-2.8476,-2.7806,-2.719,-2.6184,-2.4855,-2.244,-2.0727,-1.9516,-1.7489,-1.5491,-1.3608,-1.3017,-1.2239,-1.1316,-1.0517,-1.01,-0.9673,-0.7753,-0.6858,-0.6426,-0.5332,-0.496,-0.5023,-0.491,-0.4311,-0.3219,-0.127,0.1758,0.4381,0.3704,0.3977,0.4718,0.6129,0.6817,0.7258,0.8143,0.8748,0.9259,0.9761,1.0504,1.1064,1.0884,1.16,1.2328,1.2523,1.3071,1.3786,1.4569,1.4793,1.5139,1.6013,1.561,1.5542,1.6179,1.5325,1.4758,1.504,1.4661,1.4213,1.376,1.3743,1.3802,1.3924,1.4367,1.4617,1.4648,1.5671,1.6153,1.6206,1.6831,1.6885,1.6445,1.5928,1.5586,-0.5867,-0.5424,-0.5583,-0.641,-0.5986,0.0,-1.5085,-1.4466,-1.5108,-2.517,-2.7301,-2.7513,-2.7979,-2.8199,-2.8334,-2.8334,-2.8791,-2.9379,-3.0134,-3.0438,-3.0563,-3.0563,-3.0587,-3.0609,-3.0599,-3.0599,-3.0619,-3.0628,-3.0623,-3.0508,-3.0246,-3.0235,-3.0101,-2.9799,-2.978,-2.978,-2.9729,-2.9713,-2.942,-2.886,-2.7949,-2.6618,-2.4877,-2.2294,-2.0421,-1.9072,-1.6704,-1.4857,-1.3521,-1.3104,-1.2049,-1.0653,-1.0602,-0.9769,-0.8469,-0.7759,-0.7074,-0.6426,-0.5655,-0.5378,-0.5333,-0.4925,-0.4671,-0.3763,0.0569,0.3136,0.4207,0.2837,0.4488,0.6611,0.675,0.7385,0.8184,0.9163,0.9188,0.9272,1.0329,1.0362,1.0309,1.0524,1.1819,1.287,1.283,1.358,1.4451,1.5177,1.5013,1.5095,1.5885,1.5476,1.5485,1.6394,1.5632,1.504,1.5121,1.3663,1.2736,1.2669,1.1999,1.2056,1.3179,1.3416,1.4066,1.5235,1.54,1.5869,1.666,1.6709,1.6586,1.6305,1.6217,1.596,-0.871,-0.7487,-0.6838,-0.5715,-0.628,0.0,-0.7598,-0.7673,-0.9312,-1.5036,-1.5385,-1.5703,-1.912,-1.9777,-1.9798,-1.9798,-2.2665,-2.6072,-2.9423,-3.0163,-3.036,-3.036,-3.0502,-3.0615,-3.0678,-3.0679,-3.0722,-3.0836,-3.0738,-3.0594,-3.0367,-3.0457,-3.044,-3.0273,-3.0329,-3.0213,-2.9954,-2.978,-2.9551,-2.9254,-2.8555,-2.7419,-2.5916,-2.3644,-2.1595,-1.9699,-1.7255,-1.487,-1.2783,-1.3343,-1.2135,-0.9841,-0.9297,-0.8561,-0.7664,-0.6396,-0.5991,-0.59,-0.5011,-0.4684,-0.4727,-0.4752,-0.3728,-0.2077,-0.0429,0.2193,0.4442,0.4343,0.4787,0.5578,0.6866,0.7491,0.8121,0.9574,1.0086,1.0227,1.0179,1.0625,1.0883,1.0309,1.1171,1.1928,1.1653,1.3033,1.4222,1.4387,1.4937,1.534,1.5488,1.4688,1.4378,1.5149,1.3363,1.2328,1.2971,1.2371,1.1721,1.1106,1.21,1.25,1.2119,1.3344,1.4165,1.4451,1.5453,1.6016,1.6201,1.6553,1.6984,1.7461,1.6729,1.668,0.0,0.0,0.0,-0.6507,0.0,0.0,0.0,-0.9264,-1.088,-1.4911,-1.4857,-1.4876,-1.7424,-1.7536,-1.7243,-1.7263,-2.0678,-2.3371,-2.3468,-2.7273,-3.0044,-3.0044,-3.0287,-3.0464,-3.0508,-3.058,-3.0689,-3.0749,-3.0718,-3.0642,-3.0518,-3.0595,-3.0611,-3.0498,-3.0405,-3.0282,-3.0094,-2.9842,-2.9495,-2.9089,-2.8555,-2.7168,-2.4972,-2.282,-2.0482,-1.797,-1.5185,-1.3223,-1.1935,-1.1444,-0.9609,-0.7136,-0.7759,-0.7517,-0.6627,-0.5814,-0.5395,-0.514,-0.4639,-0.4477,-0.434,-0.3422,-0.2161,-0.0702,0.0475,0.2516,0.4623,0.5236,0.5395,0.5758,0.7441,0.8056,0.8544,0.9803,1.0234,1.0294,1.0147,1.0292,1.0352,0.9952,1.0449,1.1109,1.148,1.2691,1.3767,1.4123,1.4363,1.4646,1.5032,1.4424,1.409,1.4475,1.3072,1.2341,1.2959,1.2456,1.1904,1.1548,1.2266,1.2677,1.2728,1.3447,1.4099,1.4514,1.5341,1.5635,1.542,1.5654,1.593,1.6313,1.6425,1.6464,0.0,0.0,0.0,0.0,0.0,-0.6756,0.0,0.0,0.0,-1.5281,-1.5273,-1.501,-1.5715,-1.5254,-1.4794,-1.4793,-1.7464,-1.872,-1.6276,-2.2975,-2.7961,-2.7464,-2.9091,-2.9941,-2.9209,-3.0024,-3.0611,-3.0581,-3.0643,-3.0654,-3.0584,-3.0661,-3.0668,-3.0587,-3.0384,-3.0213,-3.0075,-2.9753,-2.917,-2.8355,-2.7985,-2.6268,-2.34,-2.1386,-1.8762,-1.5636,-1.2754,-1.1123,-1.0347,-0.8541,-0.6372,-0.4316,-0.6044,-0.6293,-0.5626,-0.5391,-0.4959,-0.448,-0.4141,-0.3691,-0.3088,-0.2298,-0.0697,0.1109,0.2196,0.3548,0.4925,0.5705,0.5976,0.6368,0.7885,0.8457,0.8896,0.9701,0.9993,1.002,0.996,0.9924,0.9904,0.9904,1.0193,1.0728,1.1578,1.2348,1.3184,1.4082,1.3997,1.4084,1.4743,1.4261,1.3895,1.3898,1.3159,1.2872,1.3355,1.2747,1.2381,1.2414,1.2464,1.2802,1.357,1.375,1.4148,1.4785,1.5153,1.5074,1.4541,1.4696,1.483,1.5054,1.5966,1.6069,0.0,0.0,0.0,-0.7974,-0.8095,-0.8098,-0.6328,0.0,-0.7057,-0.6694,0.0,-0.6496,-0.6593,0.0,0.0,-0.647,-0.6834,-0.8225,-1.1346,-1.772,-2.1274,-1.9068,-2.5461,-2.8687,-2.5221,-2.8403,-3.0647,-3.0513,-3.0576,-3.0586,-3.0504,-3.0626,-3.0641,-3.0513,-3.0547,-3.024,-2.959,-2.9326,-2.8343,-2.6761,-2.6461,-2.487,-2.2149,-2.0485,-1.7741,-1.4216,-1.1822,-0.9416,-0.7009,-0.5343,-0.4047,-0.3279,-0.4316,-0.4714,-0.4629,-0.4639,-0.4539,-0.4324,-0.2961,-0.0723,0.0835,-0.2925,-0.0286,0.4336,0.4247,0.4998,0.5809,0.5634,0.6155,0.6925,0.758,0.7999,0.8426,0.9108,0.9539,0.9659,0.9342,1.0066,1.0736,1.0736,1.1276,1.1608,1.1413,1.1981,1.283,1.4024,1.4436,1.4722,1.4805,1.389,1.3145,1.3027,1.2398,1.218,1.2524,1.2453,1.2397,1.2414,1.2677,1.309,1.3561,1.4261,1.4729,1.4785,1.505,1.4653,1.3652,1.4165,1.4924,1.5781,1.5888,1.6235,0.0,-1.0512,-1.1338,-0.9497,-0.9845,-0.9836,-0.6832,-0.5879,-0.5683,-0.582,0.0,0.0,0.0,0.0,0.0,0.0,-0.5091,-0.5683,-0.7389,-1.5376,-2.0088,-1.7524,-1.8974,-2.1173,-2.366,-2.7758,-3.0224,-3.0201,-3.037,-3.0516,-3.0565,-3.0641,-3.07,-3.0739,-3.058,-3.0244,-2.9732,-2.8593,-2.7428,-2.6253,-2.5302,-2.4108,-2.2687,-2.065,-1.8285,-1.5676,-1.2342,-0.958,-0.7251,-0.5951,-0.5187,-0.4908,-0.5766,-0.5443,-0.4484,-0.4487,-0.4497,-0.416,-0.1728,0.0936,0.2877,0.0053,0.156,0.456,0.4944,0.5378,0.5884,0.6662,0.7125,0.7492,0.7995,0.8457,0.8805,0.8916,0.9212,0.9505,0.9804,1.0254,1.0785,1.1052,1.1768,1.2372,1.2628,1.253,1.2736,1.37,1.3987,1.4174,1.4369,1.3759,1.3203,1.2939,1.2871,1.2982,1.3336,1.3414,1.3403,1.3387,1.329,1.3365,1.3544,1.4105,1.4287,1.4043,1.4461,1.452,1.4123,1.443,1.4925,1.5651,1.5651,1.6042,-1.1605,-1.2031,-1.2928,-1.0263,-1.0235,-1.0081,-0.708,-0.5994,-0.5682,-0.5976,-0.5723,0.0,0.0,0.0,0.0,0.0,0.0,-0.5095,-0.509,-1.1769,0.0,0.0,0.0,-1.5128,-2.1433,-2.6773,-2.9338,-2.8109,-2.909,-2.9777,-2.9913,-3.0189,-3.0394,-3.0506,-3.0485,-3.0091,-2.9281,-2.7772,-2.6269,-2.4791,-2.3787,-2.2915,-2.2203,-2.0556,-1.8802,-1.6879,-1.3338,-1.0664,-0.867,-0.7037,-0.6261,-0.6192,-0.6304,-0.5318,-0.3818,-0.3487,-0.3403,-0.2982,-0.0381,0.1818,0.3412,0.2642,0.3422,0.4797,0.549,0.6,0.6532,0.7793,0.8069,0.8041,0.8349,0.8624,0.8778,0.8617,0.8829,0.9284,1.0028,1.067,1.1218,1.1847,1.2822,1.358,1.3949,1.3274,1.3124,1.421,1.4321,1.4415,1.4868,1.4495,1.4011,1.3409,1.3872,1.4175,1.3923,1.4229,1.4212,1.3809,1.3586,1.3506,1.3506,1.3799,1.3818,1.3516,1.4148,1.452,1.4609,1.484,1.5222,1.5761,1.5522,1.5782,-1.7082,-1.5249,-1.4206,-0.9529,-0.844,-0.7922,-0.5662,-0.6029,-0.6523,-0.5371,-0.5781,-0.6113,0.0,0.0,0.0,0.0,0.0,0.0,0.0,0.0,0.0,0.0,0.0,0.0,0.0,-2.5056,-2.7854,-2.3362,-2.6101,-2.8048,-2.8163,-2.8977,-2.9464,-2.9547,-3.0284,-2.9726,-2.7679,-2.6912,-2.4817,-2.1467,-2.1646,-2.0998,-1.9508,-1.9715,-1.8797,-1.6872,-1.4599,-1.2628,-1.0758,-0.7541,-0.6259,-0.6223,-0.4404,-0.3123,-0.2121,-0.0957,-0.0516,-0.0317,0.1225,0.1814,0.2116,0.3468,0.4796,0.591,0.6184,0.7225,0.834,0.8584,0.8725,0.8685,0.845,0.8176,0.7922,0.7915,0.8329,0.8963,0.9847,1.1283,1.268,1.3559,1.4845,1.5627,1.5118,1.4246,1.4216,1.611,1.6083,1.6113,1.6832,1.6433,1.5699,1.4677,1.5474,1.5399,1.3687,1.4541,1.4518,1.3018,1.3281,1.3506,1.3506,1.3516,1.3516,1.3506,1.427,1.4675,1.4609,1.5246,1.5861,1.636,1.5654,1.5635,-1.7633,-1.825,-1.8007,-1.0975,-1.2173,-1.3588,-0.7927,-0.6672,-0.6607,-0.6282,-0.6246,-0.6032,0.0,0.0,0.0,0.0,0.0,0.0,0.0,0.0,0.0,0.0,0.0,0.0,0.0,0.0,0.0,-1.9613,-2.3987,-2.709,-2.7795,-2.8103,-2.8372,-2.8574,-2.885,-2.8276,-2.6818,-2.5281,-2.3542,-2.1641,-2.1276,-2.123,-2.1446,-2.1688,-2.1429,-2.0645,-1.7109,-1.5154,-1.4236,-1.0426,-0.8024,-0.674,-0.69,-0.5402,-0.2784,-0.0,0.1572,0.2403,0.3691,0.4157,0.4357,0.5056,0.5654,0.6385,0.7542,0.8324,0.9037,0.9879,0.9887,0.9611,0.9005,0.9196,0.9533,0.9715,1.024,1.1046,1.2215,1.3411,1.4419,1.4851,1.5771,1.6129,1.4969,1.4403,1.4345,1.5023,1.5284,1.5328,1.5271,1.5477,1.5368,1.4744,1.4857,1.4758,1.4152,1.4054,1.3759,1.2969,1.3417,1.3682,1.3682,1.3682,1.3876,1.4296,1.4556,1.5242,1.6411,1.6674,1.7263,1.808,1.7119,1.6795,-2.0049,-2.0863,-2.0797,-1.4546,-1.5021,-1.5553,-1.001,-0.8796,-0.8579,-0.7639,-0.679,-0.651,0.0,0.0,0.0,0.0,0.0,0.0,0.0,0.0,0.0,0.0,0.0,0.0,0.0,0.0,0.0,0.0,0.0,0.0,0.0,-2.6598,-2.7073,-2.7268,-2.7554,-2.702,-2.5568,-2.4165,-2.2689,-2.1159,-2.0625,-2.0958,-2.2081,-2.2122,-2.2359,-2.2361,-1.6435,-1.5077,-1.6399,-0.8193,-0.5602,-0.6655,-0.5139,-0.3403,-0.1489,0.0428,0.2451,0.4332,0.524,0.5755,0.6024,0.6167,0.669,0.7498,0.8897,0.949,0.9883,1.1172,1.0888,1.0195,0.9952,1.0526,1.1205,1.1377,1.193,1.2746,1.3863,1.4262,1.4623,1.5296,1.6052,1.623,1.5072,1.4858,1.4708,1.431,1.4525,1.4743,1.4896,1.5244,1.5357,1.505,1.5312,1.5355,1.5136,1.4371,1.3821,1.3558,1.3899,1.4097,1.4097,1.4097,1.4283,1.4709,1.4926,1.5788,1.7278,1.7589,1.816,1.8958,1.83,1.788]},{"header":{"parameterUnit":"m.s-1","parameterCategory":1,"la1":30.6,"la2":29.2853,"lo1":-89.7004,"lo2":-87.6739,"dx":0.0162,"dy":0.0183,"nx":112,"ny":82,"refTime":"2022-12-09T06:00:00:Z","depth":0,"parameterNumber":3,"parameterNumberName":"V-component_of_WINDS"},"data":[0.0,0.0,0.0,0.0,0.0,0.0,0.0,0.0,0.0,0.0,0.0,0.0,0.0,0.0,0.0,0.0,0.0,0.0,0.0,0.0,0.0,0.0,0.0,0.0,0.0,0.0,0.0,0.0,0.0,0.0,0.0,0.0,0.0,0.0,0.0,0.0,0.0,0.0,0.0,0.0,0.0,0.0,0.0,0.0,0.0,0.0,0.0,0.0,0.0,0.0,0.0,0.0,0.0,0.0,0.0,0.0,0.0,0.0,0.0,0.0,0.0,0.0,0.0,0.0,0.0,0.0,0.0,0.0,0.0,0.0,0.0,0.0,0.0,0.0,0.0,0.0,0.0,0.0,0.0,0.0,0.0,0.0,0.0,0.0,0.0,0.0,0.0,0.0,0.0,0.0,-1.843,-1.8676,-1.8809,-1.881,-1.8578,-1.8754,-1.7163,-1.308,0.0,0.0,0.0,0.0,0.0,0.0,0.0,0.0,0.0,0.0,0.0,0.0,0.0,0.0,0.0,0.0,0.0,0.0,0.0,0.0,0.0,0.0,0.0,0.0,0.0,0.0,0.0,0.0,0.0,0.0,0.0,0.0,0.0,0.0,0.0,0.0,0.0,0.0,0.0,0.0,0.0,0.0,0.0,0.0,0.0,0.0,0.0,0.0,0.0,0.0,0.0,0.0,0.0,0.0,0.0,0.0,0.0,0.0,0.0,0.0,0.0,0.0,0.0,0.0,0.0,0.0,0.0,0.0,0.0,0.0,0.0,0.0,0.0,0.0,0.0,0.0,0.0,0.0,0.0,0.0,0.0,0.0,0.0,0.0,0.0,0.0,0.0,0.0,0.0,0.0,0.0,0.0,0.0,0.0,0.0,0.0,0.0,0.0,0.0,0.0,0.0,0.0,0.0,0.0,-1.6981,-2.0976,-1.9886,-1.9101,-1.9594,-1.919,-1.7568,-1.449,0.0,0.0,0.0,0.0,0.0,0.0,0.0,0.0,0.0,0.0,0.0,0.0,0.0,0.0,0.0,0.0,0.0,0.0,0.0,0.0,0.0,0.0,0.0,0.0,0.0,0.0,0.0,0.0,0.0,0.0,0.0,0.0,0.0,0.0,0.0,0.0,0.0,0.0,0.0,0.0,0.0,0.0,0.0,0.0,0.0,0.0,0.0,0.0,0.0,0.0,0.0,0.0,0.0,0.0,0.0,0.0,0.0,0.0,0.0,0.0,0.0,0.0,0.0,0.0,0.0,0.0,0.0,0.0,0.0,0.0,0.0,0.0,0.0,0.0,0.0,0.0,0.0,0.0,0.0,0.0,0.0,0.0,0.0,0.0,0.0,0.0,0.0,0.0,0.0,0.0,0.0,0.0,0.0,0.0,0.0,0.0,0.0,0.0,0.0,0.0,0.0,0.0,0.0,-1.6209,-1.8054,-2.1626,-2.0415,-1.9484,-1.985,-1.953,-1.7776,-1.4126,-1.3761,0.0,0.0,0.0,0.0,0.0,0.0,0.0,0.0,0.0,0.0,0.0,0.0,0.0,0.0,0.0,0.0,0.0,0.0,0.0,0.0,0.0,0.0,0.0,0.0,0.0,0.0,0.0,0.0,0.0,0.0,0.0,0.0,0.0,0.0,0.0,0.0,0.0,0.0,0.0,0.0,0.0,0.0,0.0,0.0,0.0,0.0,0.0,0.0,0.0,0.0,0.0,0.0,0.0,0.0,0.0,0.0,0.0,0.0,0.0,0.0,0.0,0.0,0.0,0.0,0.0,0.0,0.0,0.0,0.0,0.0,0.0,0.0,0.0,0.0,0.0,0.0,0.0,0.0,0.0,0.0,0.0,0.0,0.0,0.0,0.0,0.0,0.0,0.0,0.0,0.0,0.0,0.0,0.0,0.0,0.0,0.0,0.0,0.0,0.0,0.0,0.0,0.0,-1.8931,-1.9815,-2.1775,-2.0624,-1.9802,-2.0069,-1.9846,-1.7961,-1.3797,-1.316,0.0,0.0,0.0,0.0,0.0,0.0,0.0,0.0,0.0,0.0,0.0,0.0,0.0,0.0,0.0,0.0,0.0,0.0,0.0,0.0,0.0,0.0,0.0,0.0,0.0,0.0,0.0,0.0,0.0,0.0,0.0,0.0,0.0,0.0,0.0,0.0,0.0,0.0,0.0,0.0,0.0,0.0,0.0,0.0,0.0,0.0,0.0,0.0,0.0,0.0,0.0,0.0,0.0,0.0,0.0,0.0,0.0,0.0,0.0,0.0,0.0,0.0,0.0,0.0,0.0,0.0,0.0,0.0,0.0,0.0,0.0,0.0,0.0,0.0,0.0,0.0,0.0,0.0,0.0,0.0,0.0,0.0,0.0,0.0,0.0,0.0,0.0,0.0,0.0,0.0,0.0,0.0,0.0,0.0,0.0,0.0,0.0,0.0,0.0,0.0,0.0,0.0,-1.9194,-2.1446,-2.1951,-2.0619,-1.9967,-2.0586,-2.005,-1.816,-1.4448,-1.2928,0.0,0.0,0.0,0.0,0.0,0.0,0.0,0.0,0.0,0.0,0.0,0.0,0.0,0.0,0.0,0.0,0.0,0.0,0.0,0.0,0.0,0.0,0.0,0.0,0.0,0.0,0.0,0.0,0.0,0.0,0.0,0.0,0.0,0.0,0.0,0.0,0.0,0.0,0.0,0.0,0.0,0.0,0.0,0.0,0.0,0.0,0.0,0.0,0.0,0.0,0.0,0.0,0.0,0.0,0.0,0.0,0.0,0.0,0.0,0.0,0.0,0.0,0.0,0.0,0.0,0.0,0.0,0.0,0.0,0.0,0.0,0.0,0.0,0.0,0.0,0.0,0.0,0.0,0.0,0.0,0.0,0.0,0.0,0.0,0.0,0.0,0.0,0.0,0.0,0.0,0.0,0.0,0.0,0.0,0.0,0.0,0.0,0.0,0.0,0.0,0.0,0.0,-1.812,-2.0162,-2.1596,-2.074,-2.0177,-2.0436,-1.999,-1.818,-1.4521,0.0,0.0,0.0,0.0,0.0,0.0,0.0,0.0,0.0,0.0,0.0,0.0,0.0,0.0,0.0,0.0,0.0,0.0,0.0,0.0,0.0,0.0,0.0,0.0,0.0,0.0,0.0,0.0,0.0,0.0,0.0,0.0,0.0,0.0,0.0,0.0,0.0,0.0,0.0,0.0,0.0,0.0,0.0,0.0,0.0,0.0,0.0,0.0,0.0,0.0,0.0,0.0,0.0,0.0,0.0,0.0,0.0,0.0,0.0,0.0,0.0,0.0,0.0,0.0,0.0,0.0,0.0,0.0,0.0,0.0,0.0,0.0,0.0,0.0,0.0,0.0,0.0,0.0,0.0,0.0,0.0,0.0,0.0,0.0,0.0,0.0,0.0,0.0,0.0,0.0,0.0,0.0,0.0,0.0,0.0,0.0,0.0,0.0,0.0,0.0,0.0,0.0,-1.5783,-1.8036,-2.0031,-2.1464,-2.0943,-2.0516,-2.0516,-2.0261,-1.85,-1.4774,0.0,0.0,0.0,0.0,0.0,0.0,0.0,0.0,0.0,0.0,0.0,0.0,0.0,0.0,0.0,0.0,0.0,0.0,0.0,0.0,0.0,0.0,0.0,0.0,0.0,0.0,0.0,0.0,0.0,0.0,0.0,0.0,0.0,0.0,0.0,0.0,0.0,0.0,0.0,0.0,0.0,0.0,0.0,0.0,0.0,0.0,0.0,0.0,0.0,0.0,0.0,0.0,0.0,0.0,0.0,0.0,0.0,0.0,0.0,0.0,0.0,0.0,0.0,0.0,0.0,0.0,0.0,0.0,0.0,0.0,0.0,0.0,0.0,0.0,0.0,0.0,0.0,0.0,0.0,0.0,0.0,0.0,0.0,0.0,0.0,0.0,0.0,0.0,0.0,0.0,0.0,0.0,0.0,0.0,0.0,0.0,0.0,0.0,0.0,0.0,0.0,0.0,-1.601,-1.9286,-2.1628,-2.1645,-2.126,-2.1023,-2.1023,-2.1023,-1.9319,0.0,0.0,0.0,0.0,0.0,0.0,0.0,0.0,0.0,0.0,0.0,0.0,0.0,0.0,0.0,0.0,0.0,0.0,0.0,0.0,0.0,0.0,0.0,0.0,0.0,0.0,0.0,0.0,0.0,0.0,0.0,0.0,0.0,0.0,0.0,0.0,0.0,0.0,0.0,0.0,0.0,0.0,0.0,0.0,0.0,0.0,0.0,0.0,0.0,0.0,0.0,0.0,0.0,0.0,0.0,0.0,0.0,0.0,0.0,0.0,0.0,0.0,0.0,0.0,0.0,0.0,0.0,0.0,0.0,0.0,0.0,0.0,0.0,0.0,0.0,0.0,0.0,0.0,0.0,0.0,0.0,0.0,0.0,0.0,0.0,0.0,0.0,0.0,0.0,0.0,0.0,0.0,0.0,0.0,0.0,0.0,0.0,0.0,0.0,0.0,0.0,0.0,0.0,-1.6712,-2.0348,-2.3063,-2.3597,-2.3273,-2.3047,-2.3047,-2.275,-2.0649,-1.6209,0.0,0.0,0.0,0.0,0.0,0.0,0.0,0.0,0.0,0.0,0.0,0.0,0.0,0.0,0.0,0.0,0.0,0.0,0.0,0.0,0.0,0.0,0.0,0.0,0.0,0.0,0.0,0.0,0.0,0.0,0.0,0.0,0.0,0.0,0.0,0.0,0.0,0.0,0.0,0.0,0.0,0.0,0.0,0.0,0.0,0.0,0.0,0.0,0.0,0.0,0.0,0.0,0.0,0.0,0.0,0.0,0.0,0.0,0.0,0.0,0.0,0.0,0.0,0.0,0.0,0.0,0.0,0.0,0.0,0.0,0.0,0.0,0.0,0.0,0.0,0.0,0.0,0.0,0.0,0.0,0.0,0.0,0.0,0.0,0.0,0.0,0.0,0.0,0.0,0.0,0.0,0.0,0.0,0.0,0.0,0.0,0.0,0.0,0.0,0.0,0.0,0.0,-1.708,-2.1196,-2.4235,-2.468,-2.465,-2.4573,-2.4573,-2.4309,-2.2598,-1.892,0.0,0.0,0.0,0.0,0.0,0.0,0.0,0.0,0.0,0.0,0.0,0.0,0.0,0.0,0.0,0.0,0.0,0.0,0.0,0.0,0.0,0.0,0.0,0.0,0.0,0.0,0.0,0.0,0.0,0.0,0.0,0.0,0.0,0.0,0.0,0.0,0.0,0.0,0.0,0.0,0.0,0.0,0.0,0.0,0.0,0.0,0.0,0.0,0.0,0.0,0.0,0.0,0.0,0.0,0.0,0.0,0.0,0.0,0.0,0.0,0.0,0.0,0.0,0.0,0.0,0.0,0.0,0.0,0.0,0.0,0.0,0.0,0.0,0.0,0.0,0.0,0.0,0.0,0.0,0.0,0.0,0.0,0.0,0.0,0.0,0.0,0.0,0.0,0.0,0.0,0.0,0.0,0.0,0.0,0.0,0.0,0.0,0.0,0.0,0.0,0.0,0.0,-1.7345,-2.1903,-2.524,-2.5355,-2.5623,-2.5798,-2.5798,-2.5798,-2.4835,-2.2543,0.0,0.0,0.0,0.0,0.0,0.0,0.0,0.0,0.0,0.0,0.0,0.0,0.0,0.0,0.0,0.0,0.0,0.0,0.0,0.0,0.0,0.0,0.0,0.0,0.0,0.0,0.0,0.0,0.0,0.0,0.0,0.0,0.0,0.0,0.0,0.0,0.0,0.0,0.0,0.0,0.0,0.0,0.0,0.0,0.0,0.0,0.0,0.0,0.0,0.0,0.0,0.0,0.0,0.0,0.0,0.0,0.0,0.0,0.0,0.0,-1.0475,-0.8076,0.0,0.0,0.0,0.0,0.0,0.0,0.0,0.0,0.0,0.0,0.0,0.0,0.0,0.0,0.0,0.0,0.0,0.0,0.0,0.0,0.0,0.0,0.0,0.0,0.0,0.0,0.0,0.0,0.0,0.0,0.0,0.0,0.0,0.0,0.0,0.0,0.0,0.0,0.0,0.0,-1.8431,-2.2828,-2.6307,-2.7219,-2.7374,-2.7412,-2.7412,-2.7412,-2.6232,-2.349,-2.1767,0.0,0.0,0.0,0.0,0.0,0.0,0.0,0.0,0.0,0.0,0.0,0.0,0.0,0.0,0.0,0.0,0.0,0.0,0.0,0.0,0.0,0.0,0.0,0.0,0.0,0.0,0.0,0.0,0.0,0.0,0.0,0.0,0.0,0.0,0.0,0.0,0.0,0.0,0.0,0.0,0.0,0.0,0.0,0.0,0.0,0.0,0.0,0.0,0.0,0.0,0.0,0.0,0.0,0.0,0.0,0.0,0.0,0.0,0.0,-1.3621,-1.1581,0.0,0.0,0.0,0.0,0.0,0.0,0.0,0.0,0.0,0.0,0.0,0.0,0.0,0.0,0.0,0.0,0.0,0.0,0.0,0.0,0.0,0.0,0.0,0.0,0.0,0.0,0.0,0.0,0.0,0.0,0.0,0.0,0.0,0.0,0.0,0.0,0.0,0.0,0.0,0.0,-1.9957,-2.4562,-2.8213,-2.9229,-2.9143,-2.9016,-2.9016,-2.8764,-2.7966,-2.6481,-2.4266,0.0,0.0,0.0,0.0,0.0,0.0,0.0,0.0,0.0,0.0,0.0,0.0,0.0,0.0,0.0,0.0,0.0,0.0,0.0,0.0,0.0,0.0,0.0,0.0,0.0,0.0,0.0,0.0,0.0,0.0,0.0,0.0,0.0,0.0,0.0,0.0,0.0,0.0,0.0,0.0,0.0,0.0,0.0,0.0,0.0,0.0,0.0,0.0,0.0,0.0,0.0,0.0,0.0,-1.5026,-1.6108,-1.7395,-1.7843,-1.8908,-2.0212,-1.7446,-1.6368,-1.6312,-1.331,0.0,0.0,0.0,0.0,0.0,0.0,0.0,0.0,0.0,0.0,0.0,0.0,0.0,0.0,0.0,0.0,0.0,0.0,0.0,0.0,0.0,0.0,-1.6757,-1.9051,-2.0097,-1.946,-1.541,0.0,0.0,0.0,0.0,0.0,0.0,0.0,0.0,0.0,0.0,0.0,-2.193,-2.647,-2.9934,-3.0695,-3.0447,-3.0215,-3.0286,-2.9731,-2.9488,-2.9659,-2.672,-2.5977,0.0,0.0,0.0,0.0,0.0,0.0,0.0,0.0,0.0,0.0,0.0,0.0,0.0,0.0,0.0,0.0,0.0,0.0,0.0,0.0,0.0,0.0,0.0,0.0,0.0,0.0,0.0,0.0,0.0,0.0,0.0,0.0,-1.0715,-1.1544,0.0,0.0,0.0,0.0,0.0,0.0,0.0,0.0,0.0,0.0,0.0,0.0,0.0,-1.4026,-1.4319,-1.5981,-1.7077,-1.7673,-2.023,-2.1797,-2.2473,-2.3173,-2.3613,-2.3836,-2.3376,0.0,-1.782,-1.6203,0.0,0.0,0.0,0.0,0.0,0.0,0.0,0.0,0.0,0.0,0.0,0.0,0.0,0.0,0.0,0.0,0.0,0.0,0.0,0.0,0.0,0.0,-2.3345,-2.5071,-2.5566,-2.5395,-2.4451,-1.9991,-1.6527,-1.7803,-1.4203,-0.949,0.0,0.0,0.0,0.0,0.0,0.0,-2.4614,-2.7834,-3.0051,-3.0265,-3.0241,-3.0291,-3.0525,-2.9839,-2.9792,-3.0734,-3.0316,-2.8663,-2.5563,-2.4448,0.0,0.0,0.0,0.0,0.0,0.0,0.0,0.0,0.0,0.0,0.0,0.0,0.0,0.0,0.0,0.0,0.0,0.0,0.0,0.0,0.0,0.0,0.0,0.0,0.0,0.0,0.0,0.0,0.0,-0.9453,-1.1073,-1.0713,-1.0896,-1.0617,0.0,0.0,0.0,0.0,0.0,0.0,0.0,0.0,0.0,-1.7297,-1.8226,-1.8901,-1.9287,-2.0639,-2.1231,-2.1081,-2.2588,-2.3653,-2.4312,-2.4871,-2.5338,-2.5727,-2.5727,-2.4467,-2.2174,-1.9956,-1.7452,-1.5006,0.0,0.0,0.0,0.0,-1.3989,-1.4207,-1.6159,-1.6799,-1.6906,-1.7703,0.0,0.0,0.0,0.0,0.0,0.0,0.0,-1.656,-1.9696,-2.2024,-2.4171,-2.6686,-2.6924,-2.668,-2.6991,-2.4915,-2.252,-2.1005,-2.0639,-1.838,-1.1436,-1.2911,0.0,0.0,0.0,-2.5281,-2.7583,-3.0242,-3.1939,-3.1989,-3.1448,-3.1213,-3.1465,-3.0302,-3.0037,-3.1092,-3.0856,-2.9785,-2.7847,-2.6028,-2.3233,0.0,0.0,0.0,0.0,0.0,0.0,0.0,0.0,0.0,0.0,0.0,0.0,0.0,0.0,0.0,0.0,0.0,0.0,0.0,0.0,0.0,0.0,0.0,0.0,0.0,0.0,0.0,0.0,-1.0608,-1.1966,-1.0569,-1.193,-1.2179,0.0,0.0,0.0,0.0,0.0,0.0,-1.6268,-1.7677,-1.9169,-2.0782,-2.2022,-2.2948,-2.3626,-2.4429,-2.4523,-2.3967,-2.4457,-2.4978,-2.5463,-2.5731,-2.6184,-2.6691,-2.6691,-2.6453,-2.5836,-2.3146,-2.0955,-1.9177,-1.8496,-1.7824,-1.7346,-1.8371,-1.8835,-1.9235,-2.1103,-2.1765,-2.1795,-2.1954,-2.1635,-2.139,-2.2342,0.0,0.0,0.0,0.0,-1.9221,-2.1775,-2.3362,-2.4948,-2.7497,-2.7658,-2.7383,-2.797,-2.7787,-2.6585,-2.349,-2.5319,-2.5144,-1.8184,-2.0738,0.0,-2.1409,-2.4028,-2.7229,-3.0042,-3.186,-3.2921,-3.3071,-3.2178,-3.1672,-3.1937,-3.0631,-3.0333,-3.1632,-3.1085,-3.0637,-3.0447,-2.8152,-2.5983,-2.4112,0.0,0.0,0.0,0.0,0.0,0.0,0.0,0.0,0.0,0.0,0.0,0.0,0.0,0.0,0.0,0.0,0.0,0.0,0.0,0.0,0.0,0.0,0.0,0.0,0.0,0.0,0.0,0.0,0.0,-1.3339,-1.4985,0.0,0.0,0.0,0.0,-1.6158,-1.6943,-1.7927,-1.9217,-2.022,-2.1698,-2.3829,-2.4194,-2.465,-2.526,-2.5954,-2.6162,-2.5966,-2.6623,-2.6825,-2.6607,-2.664,-2.6657,-2.6691,-2.6691,-2.6889,-2.7051,-2.5135,-2.3243,-2.1451,-2.0714,-2.0268,-2.0084,-2.0783,-2.1518,-2.227,-2.3026,-2.3289,-2.3285,-2.3302,-2.2018,-2.0478,-2.0533,-1.9712,0.0,0.0,-2.2665,-2.4039,-2.6952,-2.7773,-2.803,-2.8772,-2.8902,-2.8883,-2.892,-2.775,-2.6833,-2.7361,-2.825,-2.7794,-2.432,0.0,-2.5335,-2.442,-2.5519,-2.7841,-3.1598,-3.1682,-3.1637,-3.2185,-3.1468,-3.105,-3.1318,-3.0513,-3.0811,-3.2692,-3.2083,-3.1641,-3.1628,-3.1455,-2.9394,-2.5201,-2.4139,0.0,0.0,0.0,0.0,0.0,0.0,0.0,0.0,0.0,0.0,0.0,0.0,0.0,0.0,0.0,0.0,0.0,0.0,0.0,0.0,0.0,0.0,0.0,0.0,0.0,0.0,0.0,0.0,-1.5581,-1.7761,0.0,-1.6215,-1.7543,-1.8708,-1.9061,-2.0783,-2.2037,-2.2478,-2.4189,-2.5505,-2.6244,-2.756,-2.8095,-2.784,-2.8472,-2.8503,-2.7947,-2.8216,-2.8272,-2.8163,-2.8163,-2.7892,-2.7418,-2.7418,-2.735,-2.7251,-2.6592,-2.6063,-2.5747,-2.6221,-2.6332,-2.638,-2.7573,-2.8199,-2.8421,-2.812,-2.8046,-2.7929,-2.7228,-2.6523,-2.5866,-2.5468,-2.5067,-2.4854,-2.5399,-2.6147,-2.7025,-2.8081,-2.8742,-2.9194,-2.94,-2.9355,-2.9246,-2.9246,-2.8673,-2.8223,-2.8521,-2.797,-2.6946,-2.5315,-2.6859,-2.7872,-2.6624,-2.837,-3.0733,-3.3172,-3.2814,-3.2407,-3.2622,-3.1756,-3.147,-3.2267,-3.0906,-3.0844,-3.2782,-3.1621,-3.0871,-3.0871,-3.0871,-3.0129,-2.8587,-2.8829,-2.6746,0.0,0.0,0.0,0.0,0.0,0.0,0.0,0.0,0.0,0.0,0.0,0.0,0.0,0.0,0.0,0.0,0.0,0.0,0.0,0.0,0.0,0.0,0.0,0.0,0.0,-1.5706,-1.7993,-1.7143,-1.9995,-2.112,-1.8815,-2.0496,-2.1889,-2.2202,-2.3956,-2.5101,-2.5302,-2.6916,-2.8029,-2.8421,-2.9632,-3.0146,-2.9886,-3.0292,-3.0108,-2.9364,-2.9364,-2.9228,-2.9011,-2.9011,-2.8552,-2.7789,-2.7789,-2.7606,-2.7303,-2.7457,-2.7736,-2.8174,-2.9188,-2.9673,-2.9926,-3.101,-3.1511,-3.1533,-3.0735,-3.0293,-2.9935,-2.9232,-2.9044,-2.9071,-2.8745,-2.8895,-2.9057,-2.8506,-2.8882,-2.939,-2.9071,-2.9347,-2.9696,-2.9696,-2.9607,-2.9474,-2.9414,-2.9267,-2.9112,-2.9017,-2.8132,-2.7258,-2.6769,-2.8596,-2.9616,-2.8029,-3.0029,-3.1987,-3.2814,-3.241,-3.2179,-3.2468,-3.1596,-3.1397,-3.2398,-3.0542,-3.0324,-3.2744,-3.1044,-3.0237,-3.0814,-3.0275,-2.9821,-2.9567,-3.017,-2.7849,-2.2488,0.0,0.0,0.0,0.0,0.0,0.0,0.0,0.0,0.0,0.0,0.0,0.0,0.0,0.0,0.0,0.0,0.0,0.0,0.0,0.0,0.0,0.0,0.0,-1.35,-1.7733,-2.0027,-1.813,-2.166,-2.364,-2.2004,-2.333,-2.4663,-2.557,-2.6258,-2.6892,-2.7488,-2.8139,-2.9042,-3.0251,-3.0293,-3.0617,-3.119,-3.119,-3.0835,-3.0142,-3.0142,-2.9753,-2.9096,-2.9096,-2.8619,-2.7823,-2.7823,-2.7623,-2.7348,-2.7725,-2.8102,-2.8492,-2.9295,-2.9864,-3.0257,-3.0535,-3.0964,-3.1299,-3.0527,-2.9714,-2.903,-2.903,-2.9197,-2.9414,-2.9644,-3.0433,-3.113,-3.0541,-3.0789,-3.1062,-3.0208,-2.9845,-2.9713,-2.9713,-2.9713,-2.9643,-2.9474,-2.9412,-2.933,-2.9104,-2.9035,-2.9017,-2.9035,-3.0126,-3.0429,-2.8751,-3.0305,0.0,-3.0552,-3.0417,-3.0737,-3.1621,-3.0929,-3.0756,-3.166,-2.9429,-2.939,-3.2699,-3.0525,-2.991,-3.1641,-3.0083,-2.8829,-2.808,-2.8089,-2.6899,-2.4471,0.0,0.0,0.0,0.0,0.0,0.0,0.0,0.0,0.0,0.0,0.0,0.0,0.0,0.0,0.0,0.0,0.0,0.0,0.0,0.0,0.0,-1.3754,-1.7018,-1.7667,-2.0011,-2.1904,-2.264,-2.4627,-2.577,-2.5285,-2.6083,-2.6778,-2.7055,-2.72,-2.739,-2.7573,-2.8576,-2.9316,-2.9629,-3.0477,-3.1015,-3.119,-3.119,-3.1089,-3.0903,-3.0903,-3.0784,-3.0581,-3.0581,-2.9888,-2.867,-2.867,-2.832,-2.7725,-2.753,-2.802,-2.8912,-2.9716,-3.01,-3.0312,-3.1169,-3.157,-3.1671,-3.1448,-3.0715,-2.9879,-2.9879,-2.9522,-2.9156,-2.9414,-2.9701,-2.9926,-2.9907,-3.0018,-3.0082,-2.9836,-2.9845,-2.9924,-2.9924,-2.9924,-2.9908,-2.9845,-2.9607,-2.9539,-3.0071,-2.9521,-2.9251,-3.0024,-3.0581,-3.0825,-3.0541,-3.0642,-3.091,-3.1295,-3.0794,-3.0737,-3.1621,-3.0929,-3.0987,-3.2449,-3.0814,-3.0621,-3.2756,-3.1102,-3.0544,-3.166,-3.1237,-3.1186,-3.1591,-2.9346,-2.8107,0.0,0.0,0.0,0.0,0.0,0.0,0.0,0.0,0.0,0.0,0.0,0.0,0.0,0.0,0.0,0.0,0.0,0.0,0.0,0.0,0.0,0.0,-1.5862,-1.9531,-2.0613,-2.1839,-2.3252,-2.4769,-2.5894,-2.6692,-2.7006,-2.735,-2.7625,-2.7625,-2.7625,-2.771,-2.7944,-2.8857,-2.954,-2.9761,-3.0699,-3.119,-3.119,-3.119,-3.119,-3.119,-3.119,-3.119,-3.119,-3.0886,-3.0091,-2.8958,-2.8636,-2.81,-2.7426,-2.75,-2.7851,-2.8406,0.0,0.0,0.0,0.0,-3.0984,-3.0828,-3.1054,-3.0503,-2.9714,-2.9714,-2.936,-2.9044,-2.931,-2.9636,-2.9864,-2.9737,-2.9888,-3.0021,-2.9773,-2.9712,-2.9763,-2.9861,-2.9939,-2.9984,-2.9893,-2.9765,-2.9869,-3.062,-3.0236,0.0,-3.0772,-3.0621,-3.0351,-3.0274,-3.0343,-3.0448,-3.0583,-3.0487,-3.059,-3.1102,-3.0698,-3.0948,-3.2275,-3.0544,0.0,0.0,0.0,-3.0364,-3.1252,-3.127,0.0,0.0,0.0,-2.9901,-3.1063,-2.911,0.0,0.0,-2.6479,-2.6423,0.0,0.0,0.0,0.0,0.0,0.0,0.0,0.0,0.0,0.0,0.0,0.0,0.0,0.0,0.0,0.0,-1.7686,-2.1063,-2.2492,-2.3135,-2.3983,-2.5343,-2.6107,-2.6774,-2.7524,-2.7625,-2.7625,-2.7625,-2.7625,-2.781,-2.8367,-2.8966,0.0,0.0,0.0,-3.1055,-3.119,-3.1151,-3.1151,-3.119,-3.119,-3.119,-3.1173,-3.0446,-2.9702,-2.8941,-2.8163,-2.7419,-2.6808,-2.747,-2.7589,-2.7509,-2.8917,-2.9275,-2.9085,-2.9806,-2.982,-2.9572,-3.0028,0.0,0.0,-2.9122,-2.9067,-2.9044,-2.9289,-2.9837,-3.0311,-2.9777,-3.0,-3.0311,-2.9758,-2.9513,-2.9454,-2.9607,-2.9813,-2.9924,-2.9763,-2.9861,-3.0171,-3.0896,-3.0901,-3.088,-3.1241,-3.0506,-2.9683,-2.9079,-2.9794,-3.0121,-2.9352,-2.9929,-3.0398,-3.0398,-3.0494,0.0,-3.1641,-2.969,-2.9402,-3.1667,-3.0557,-3.0209,-3.1098,-3.1232,-3.1259,-3.1241,-3.1298,-3.2058,-3.3537,-3.3544,-3.3984,-3.4726,-2.9253,-2.841,0.0,0.0,0.0,0.0,0.0,0.0,0.0,0.0,0.0,0.0,0.0,0.0,0.0,0.0,0.0,-1.4654,-1.9292,-2.3005,-2.315,-2.2795,-2.3263,-2.5297,-2.6107,-2.6774,-2.7524,-2.7625,-2.7625,-2.7625,-2.7625,-2.766,-2.776,-2.8367,-2.8966,-2.954,-2.9673,-3.0208,-3.119,-3.0699,-3.0699,-3.119,-3.119,0.0,-3.1173,-3.0446,-2.9702,-2.8941,-2.8163,-2.7589,-2.7178,-2.6987,-2.7272,-2.784,-2.8425,-2.8785,-2.9012,-2.9159,-2.9572,-3.006,-3.016,-3.0099,-2.9971,-2.9971,-2.9549,-2.9017,-2.9044,-2.92,0.0,-2.9175,-2.9204,-2.9273,-2.9175,-2.9267,-2.9412,-2.9454,-2.9626,-2.978,-2.9924,-2.9845,-3.0061,-3.1048,-3.0516,-3.0219,-3.1134,-3.1134,-3.078,-3.0183,-3.0271,-3.034,-3.0179,-3.0314,-3.0398,-3.0398,-3.1025,-3.1525,-3.1698,-3.1314,-3.1282,-3.1782,-3.223,-3.2856,-3.3736,-3.448,-3.4578,-3.3891,-3.3925,-3.4119,-3.4452,-3.4451,-3.4902,-3.5703,-3.3786,-3.3619,0.0,0.0,0.0,0.0,0.0,0.0,0.0,0.0,0.0,0.0,0.0,-0.9521,-1.0644,0.0,-1.7982,-1.7227,-2.0972,-2.3702,-2.2933,-2.2723,-2.3386,-2.5252,-2.5762,-2.6375,-2.7509,-2.7625,-2.7625,-2.7625,-2.7625,-2.7625,-2.7625,-2.8189,-2.8654,-2.8966,-2.9225,-2.9673,-3.0293,-2.9978,-2.9978,-3.0293,-3.0617,-3.074,-3.0723,-3.0314,-2.9702,-2.8941,-2.8163,-2.7487,-2.6987,-2.6774,-2.7178,-2.7897,-2.7862,-2.8316,-2.8994,-2.8773,-2.9077,-2.9604,-2.9604,-2.9861,-3.0136,-2.9732,-2.9604,-2.9549,-2.9104,-2.8994,-2.9067,-2.9494,-2.9604,-2.9604,-2.9604,-2.972,-2.968,-2.9292,-2.9394,-2.9607,-2.9796,-2.9845,-3.0174,-3.1283,-3.072,-3.0367,-3.1331,-3.1153,-3.0759,-3.0444,-3.0398,-3.0398,-3.0398,-3.0398,-3.0398,-3.0398,-3.1179,-3.1525,-3.1102,-3.1128,-3.1432,-3.1975,-3.2814,-3.3685,-3.4563,-3.548,-3.5742,-3.5307,-3.5335,-3.5351,-3.5351,-3.5351,-3.5569,-3.5937,-3.5397,-3.5407,0.0,0.0,0.0,0.0,0.0,0.0,0.0,-0.8655,-0.9822,-1.3497,-1.4457,-1.5057,-1.6414,-1.9092,-2.073,-1.98,-2.2445,-2.4095,-2.2693,-2.2968,-2.3767,-2.5063,-2.5287,-2.6,-2.7458,-2.7625,-2.7625,-2.7625,-2.7625,-2.7625,-2.7625,-2.8042,-2.8367,-2.8511,-2.8873,-2.918,-2.9406,-2.9271,-2.9271,-2.9406,-3.0038,-3.0293,-3.0276,-3.018,-2.9702,-2.896,-2.801,-2.7249,-2.6691,-2.6691,-2.7115,-2.7736,-2.7317,-2.7833,-2.8749,-2.8515,-2.8658,-2.9012,-2.9177,-2.9567,-2.9898,-2.9402,-2.9586,-2.9861,-2.9195,-2.9104,-2.9384,-3.0026,-3.021,-3.021,-3.021,-3.0081,-2.9806,-2.914,-2.9178,-2.9394,-2.9643,-2.9829,-3.0242,-3.1258,-3.0891,-3.0609,-3.1333,-3.0871,-3.0398,-3.0398,-3.0398,-3.0398,-3.0398,-3.0552,-3.059,-3.0417,-3.1468,-3.1852,-3.1006,-3.0741,-3.1145,-3.2363,-3.3047,-3.3867,-3.4902,-3.5625,-3.5996,-3.5996,-3.5996,-3.5994,-3.5974,-3.5974,-3.595,-3.5861,-3.5737,-3.5737,-0.4557,-0.59,-0.8394,-0.7879,-0.9862,-1.2079,0.0,-1.3001,-1.3641,-1.4901,-1.5898,-1.6776,-1.7484,-2.0384,-2.2159,-2.0777,-2.321,-2.473,-2.3217,-2.3669,-2.4234,-2.4408,-2.5007,-2.6,-2.7458,-2.7625,-2.7625,-2.7625,-2.7625,-2.7625,-2.7625,-2.766,-2.7959,-2.8463,-2.8042,-2.8319,-2.9406,-2.8873,-2.8873,-2.9406,-3.0038,-3.0293,-3.0276,-3.018,-2.9702,-2.8943,-2.7452,-2.6776,-2.6691,-2.6691,-2.6954,-2.7334,-2.6939,-2.7286,-2.8065,-2.8316,-2.8658,-2.9085,-2.9824,-2.9659,-2.9232,-2.9861,-2.9641,-2.9104,-2.9012,-2.9512,-3.0081,-3.0173,-3.021,-3.021,-3.021,-2.9677,-2.9104,-2.9012,-2.9017,-2.9181,-2.9607,-2.9731,-2.9883,-3.0445,-3.0456,-3.0417,-3.0533,-3.0456,-3.0398,-3.0398,-3.0398,-3.0398,-3.0398,-3.1083,-3.1256,-3.0475,-3.2506,-3.3641,-3.2961,-3.1542,-3.1429,-3.3163,-3.3359,-3.4141,-3.5781,-3.5957,-3.5996,-3.5996,-3.5996,-3.5966,-3.5912,-3.5912,-3.5841,-3.5725,-3.5643,-3.5624,-1.2179,-1.2117,-1.2278,-1.355,-1.4858,-1.5986,-1.657,-1.6906,-1.799,-2.1167,-2.221,-2.2748,-2.3392,-2.4647,-2.5128,-2.3659,-2.4786,-2.5229,-2.3343,-2.3717,-2.4333,-2.4892,-2.5231,-2.5783,-2.6878,-2.7357,-2.7625,-2.7625,-2.7625,-2.7625,-2.7625,-2.7625,-2.7725,-2.7944,-2.771,-2.7845,-2.8352,-2.8091,-2.8091,-2.8352,-2.895,-2.9451,-2.9805,-3.0079,-2.975,-2.889,-2.7368,-2.6691,-2.6691,-2.6691,-2.6808,-2.6939,-2.6758,-2.7178,-2.7926,-2.8047,-2.8648,-2.9435,-2.999,-3.0283,-3.0375,-3.0246,-2.9971,-2.9622,-2.9122,-2.9567,-3.0331,-3.096,-3.1135,-3.1113,-3.1117,-3.0524,-2.9773,-2.915,-2.8994,-2.9112,-2.9455,-2.9626,-2.9799,-3.0109,-3.0299,-3.0398,-3.0398,-3.0398,-3.0398,-3.0398,-3.0398,-3.0398,-3.0398,-3.116,-3.1948,-3.2602,-3.2295,-3.2378,-3.3179,-3.2141,-3.2014,-3.332,-3.3887,-3.4707,-3.5957,-3.5996,-3.5996,-3.5996,-3.5996,-3.5977,-3.5892,-3.5892,-3.5817,-3.5646,-3.5612,-3.5584,-1.5096,-1.5265,-1.5049,-1.7229,-1.867,-1.9621,-1.9817,-2.0438,-2.1997,-2.5491,-2.655,-2.7006,-2.7535,-2.7408,-2.6922,-2.5786,-2.5654,-2.5159,-2.3583,-2.3773,-2.4245,-2.4721,-2.5119,-2.5618,-2.6122,-2.7034,-2.7625,-2.7625,-2.7625,-2.7625,-2.7625,-2.7625,-2.7625,-2.7625,-2.7625,-2.7625,-2.7625,-2.7625,-2.7625,-2.7625,-2.8222,-2.8732,-2.918,-2.974,-2.9619,-2.8943,-2.7571,-2.6894,-2.6691,-2.6691,-2.6691,-2.6691,-2.6691,-2.7115,-2.7754,-2.7869,-2.8541,-2.9541,-3.0283,-3.0613,-3.0723,-3.0577,-3.0228,-2.9769,-2.9177,-2.9567,-3.0428,-3.1511,-3.1629,-3.1551,-3.2024,-3.1246,-3.0197,-2.9584,-2.9307,-2.9251,-2.9514,-2.9678,-2.9845,-3.0061,-3.0267,-3.0398,-3.0398,-3.0398,-3.0475,-3.0717,-3.0583,-3.0506,-3.0756,-3.1545,-3.2756,-3.4468,-3.2397,-3.1645,-3.3492,-3.2675,-3.2538,-3.3691,-3.4355,-3.5098,-3.5957,-3.5996,-3.5996,-3.5996,-3.5977,-3.5931,-3.584,-3.583,-3.5738,-3.5584,-3.5584,-3.5565,-0.8387,-1.1461,-1.4304,-1.6277,-1.9876,-2.276,-2.1956,-2.3573,-2.5273,-2.537,-2.6573,-2.7595,-2.7625,-2.7049,-2.6429,-2.6228,-2.5172,-2.4282,-2.4015,-2.4154,-2.4015,-2.3258,-2.4496,-2.5398,-2.5453,-2.6759,-2.7625,-2.7625,-2.7625,-2.7625,-2.7625,-2.7625,-2.7625,-2.7625,-2.7625,-2.7625,-2.7625,-2.7625,-2.7625,-2.7625,-2.8222,-2.8511,-2.8528,-2.9032,-2.9137,-2.8941,-2.8146,-2.7368,-2.6691,-2.6691,-2.6691,-2.6691,-2.6691,-2.6954,-2.7365,-2.7754,-2.8378,-2.925,-3.0815,-3.0356,-2.9347,-3.0852,-3.032,-2.9012,-2.8994,-2.9567,-3.0428,-3.1511,-3.1241,-3.0993,-3.256,-3.135,-2.9869,-3.0423,-3.0094,-2.9729,-2.9939,-2.9984,-3.0075,-3.0343,-3.0398,-3.0398,-3.0398,-3.0398,-3.0698,-3.1525,-3.1006,-3.0794,-3.1657,-3.2526,-3.3692,-3.5391,-3.3334,-3.2602,-3.441,-3.3106,-3.289,-3.4551,-3.4687,-3.5098,-3.5957,-3.5996,-3.5996,-3.5996,-3.5948,-3.5847,-3.5716,-3.5651,-3.5584,-3.5493,-3.5493,-3.5493,-1.118,-1.4059,-1.697,-2.0179,-2.162,-2.2494,-2.3327,-2.4092,-2.4794,-2.5287,-2.4894,-2.4423,-2.4423,-2.4496,-2.4286,-2.3342,-2.4432,-2.4914,-2.3611,-2.3821,-2.4038,-2.3936,-2.4337,-2.4851,-2.5342,-2.6283,-2.7086,-2.756,-2.7625,-2.7625,-2.7625,-2.7625,-2.7625,-2.7625,-2.7625,-2.7625,-2.7625,-2.7625,-2.7625,-2.761,-2.8638,-2.9104,-2.9118,-2.9593,-2.9517,-2.8941,-2.8163,-2.7385,-2.6691,-2.6691,-2.6691,-2.6691,-2.6691,-2.7115,-2.7707,-2.784,-2.8684,-2.9953,-3.1017,-3.1035,-3.0693,-3.1422,-3.0936,-2.9975,-2.9584,-3.0036,-3.0901,-3.2013,-3.2104,-3.1992,-3.2578,-3.1739,-3.062,-3.0113,-2.985,-2.9882,-3.0516,-3.0323,-3.02,-3.0882,-3.0682,-3.0398,-3.0398,-3.0398,-3.0706,-3.1628,-3.1948,-3.2208,-3.2561,-3.2802,-3.3628,-3.5411,-3.3905,-3.3262,-3.4501,-3.4131,-3.4101,-3.4668,-3.5234,-3.5684,-3.5996,-3.5996,-3.5996,-3.5996,-3.5988,-3.5917,-3.5836,-3.5824,-3.5718,-3.5584,-3.5584,-3.5545,-1.3312,-1.5801,-1.816,-2.1379,-2.2063,-2.2175,-2.3207,-2.3872,-2.4452,-2.4894,-2.358,-2.239,-2.2555,-2.2188,-2.1681,-2.1221,-2.2786,-2.376,-2.2934,-2.3163,-2.3508,-2.3852,-2.3884,-2.4279,-2.5287,-2.5837,-2.639,-2.7152,-2.7458,-2.7625,-2.7625,-2.7625,-2.7625,-2.7625,-2.7625,-2.7625,-2.7625,-2.7625,-2.7625,-2.761,-2.8591,-2.918,-2.9435,-2.9914,-2.9732,-2.8958,-2.845,-2.7655,-2.6691,-2.6691,-2.6691,-2.6691,-2.6691,-2.7178,-2.7897,-2.7897,-2.8864,-3.032,-3.1109,-3.1384,-3.147,-3.2038,-3.1685,-3.0984,-3.0678,-3.094,-3.1598,-3.2708,-3.2794,-3.2607,-3.2947,-3.2229,-3.1236,-3.0468,-3.0335,-3.057,-3.1137,-3.0905,-3.0762,-3.1317,-3.1124,-3.0871,-3.0871,-3.1102,-3.1333,-3.1398,-3.2545,-3.3422,-3.3459,-3.3465,-3.4032,-3.5488,-3.4455,-3.4056,-3.5019,-3.4844,-3.4824,-3.5137,-3.5684,-3.5996,-3.5996,-3.5996,-3.5996,-3.5996,-3.5976,-3.5932,-3.5909,-3.5852,-3.5747,-3.5604,-3.5605,-3.5565,-1.4438,-1.6503,-1.8089,-2.0124,-2.1233,-2.18,-2.1886,-2.3078,-2.4118,-2.4058,-2.2497,-2.1287,-2.161,-1.9977,-1.8939,-1.9874,-2.0524,-2.1204,-2.2246,-2.2372,-2.2548,-2.3015,-2.3138,-2.3754,-2.5175,-2.5398,-2.5728,-2.6457,-2.7188,-2.7625,-2.7625,-2.7625,-2.7625,-2.7625,-2.7625,-2.7625,-2.7625,-2.7625,-2.7625,-2.7625,-2.8222,-2.881,-2.9358,-3.0021,-2.9802,-2.8924,-2.8958,-2.8112,-2.6691,-2.6691,-2.6691,-2.6691,-2.6691,-2.7178,-2.7897,-2.7897,-2.8882,-3.0375,-3.1127,-3.1446,-3.1667,-3.2697,-3.2512,-3.1925,-3.2185,-3.2239,-3.2463,-3.3522,-3.3264,-3.2848,-3.3557,-3.2757,-3.1668,-3.1321,-3.1492,-3.1718,-3.1756,-3.1737,-3.1718,-3.1756,-3.1737,-3.1698,-3.1698,-3.2372,-3.241,-3.091,-3.2718,-3.4237,-3.425,-3.4436,-3.4845,-3.5622,-3.5018,-3.4961,-3.5912,-3.5234,-3.5117,-3.5957,-3.5996,-3.5996,-3.5996,-3.5996,-3.5996,-3.5996,-3.5937,-3.5918,-3.5898,-3.5786,-3.5682,-3.5611,-3.5611,-3.5584,-1.5756,-1.7897,-2.0044,-2.1284,-2.0995,-2.0686,-2.1666,-2.197,-2.1624,-2.0309,-1.8401,-1.652,-1.5014,-1.6166,-1.7436,-1.7712,-2.0798,-2.3251,-2.3527,-2.3201,-2.2975,-2.3053,-2.3649,-2.4176,-2.4509,-2.5563,-2.6283,-2.651,-2.7188,-2.7625,-2.7625,-2.7625,-2.7625,-2.7625,-2.7625,-2.7625,-2.7625,-2.7625,-2.7625,-2.7625,-2.8222,-2.8513,-2.8622,-2.9776,-2.9503,-2.8146,-2.8738,-2.8112,-2.6691,-2.6691,-2.6691,-2.6691,-2.6691,-2.7178,-2.7897,-2.7897,-2.9269,-3.1109,-3.1329,-3.1924,-3.266,-3.3152,-3.328,-3.3215,-3.2832,-3.2732,-3.2905,-3.3843,-3.3953,-3.3703,-3.3248,-3.2852,-3.2263,-3.0945,-3.1181,-3.1852,-3.2468,-3.2122,-3.1891,-3.2487,-3.2102,-3.1718,-3.1763,-3.2455,-3.2455,-3.0929,-3.2327,-3.3561,-3.3555,-3.4633,-3.5455,-3.568,-3.5622,-3.565,-3.5891,-3.5775,-3.5762,-3.5996,-3.5996,-3.5996,-3.5996,-3.5996,-3.5996,-3.5996,-3.5976,-3.5976,-3.5976,-3.5933,-3.5838,-3.5675,-3.5666,-3.5622,-1.7125,-1.894,-2.0691,-2.0967,-2.0435,-1.9906,-1.9885,-1.9738,-1.8985,-1.7047,-1.481,-1.2872,-1.1823,-1.3331,-1.4983,-1.5753,-1.9317,-2.2258,-2.3128,-2.2975,-2.2862,-2.3053,-2.3826,-2.4452,-2.4738,-2.5837,-2.6616,-2.693,-2.7357,-2.7625,-2.7625,-2.7625,-2.7625,-2.7625,-2.7625,-2.7625,-2.7625,-2.7625,-2.7625,-2.7625,-2.8222,-2.8576,-2.8814,-2.9515,-2.927,-2.8332,-2.8433,-2.7791,-2.6691,-2.6691,-2.6691,-2.6691,-2.6691,-2.7178,-2.7897,-2.7897,-2.9395,-3.1409,-3.1542,-3.2515,-3.377,-3.3917,-3.415,-3.4318,-3.4107,-3.4045,-3.4141,-3.4622,-3.4776,-3.4487,-3.3237,-3.2891,-3.2487,-3.0814,-3.1352,-3.2352,-3.2795,-3.2545,-3.2256,-3.2352,-3.2295,-3.2128,-3.1853,-3.2468,-3.2481,-3.0929,-3.1859,-3.2879,-3.3294,-3.4416,-3.5308,-3.5657,-3.5764,-3.5844,-3.5931,-3.5971,-3.5996,-3.5996,-3.5996,-3.5996,-3.5996,-3.5996,-3.5996,-3.5996,-3.5996,-3.5984,-3.5969,-3.5969,-3.5857,-3.565,-3.5656,-3.5603,-1.8504,-1.9676,-2.0462,-2.0006,-1.9841,-1.94,-1.7625,-1.7168,-1.6446,-1.4094,-1.1762,-1.0151,-1.0266,-1.1064,-1.2349,-1.4413,-1.7343,-2.0137,-2.223,-2.2472,-2.2598,-2.3015,-2.3884,-2.4681,-2.5342,-2.6176,-2.693,-2.756,-2.7625,-2.7625,-2.7625,-2.7625,-2.7625,-2.7625,-2.7625,-2.7625,-2.7625,-2.7625,-2.7625,-2.7625,-2.814,-2.8639,-2.9118,-2.9202,-2.9009,-2.8689,-2.818,-2.7486,-2.6691,-2.6691,-2.6691,-2.6691,-2.6758,-2.7241,-2.7915,-2.806,-2.9539,-3.1434,-3.1842,-3.317,-3.4713,-3.4734,-3.4944,-3.5207,-3.5432,-3.5493,-3.5493,-3.5493,-3.5493,-3.5141,-3.3506,-3.2987,-3.2506,-3.0948,-3.1756,-3.2891,-3.2891,-3.2891,-3.2699,-3.1987,-3.2429,-3.2667,-3.1924,-3.2474,-3.2499,-3.0934,-3.146,-3.2355,-3.3257,-3.4034,-3.4824,-3.5648,-3.573,-3.5806,-3.5976,-3.5996,-3.5996,-3.5996,-3.5996,-3.5996,-3.5996,-3.5996,-3.5996,-3.5996,-3.5992,-3.5955,-3.5892,-3.5872,-3.5776,-3.5603,-3.5603,-3.5565,-1.9648,-2.0161,-2.0463,-2.0019,-1.9634,-1.8893,-1.6782,-1.6009,-1.4745,-1.1198,-0.9822,-0.8825,-0.7434,-0.9038,-1.1635,-1.492,-1.7629,-2.0324,-2.329,-2.3301,-2.3025,-2.3065,-2.4323,-2.5231,-2.5398,-2.6602,-2.7458,-2.7575,-2.7625,-2.7625,-2.7625,-2.7625,-2.7625,-2.7625,-2.7625,-2.7625,-2.7625,-2.7625,-2.7625,-2.7625,-2.771,-2.7687,-2.7625,-2.8838,-2.8551,-2.7148,-2.8281,-2.7994,-2.6691,-2.6691,-2.6691,-2.6725,-2.7051,-2.747,-2.7996,-2.8954,-3.0176,-3.1526,-3.247,-3.3618,-3.4753,-3.4963,-3.5207,-3.5446,-3.5493,-3.5493,-3.5493,-3.5493,-3.5493,-3.5257,-3.4237,-3.343,-3.266,-3.1698,-3.2199,-3.2891,-3.2891,-3.2891,-3.2852,-3.2718,-3.2795,-3.2667,-3.1924,-3.2558,-3.2608,-3.0944,-3.155,-3.2413,-3.314,-3.4022,-3.4899,-3.5772,-3.5864,-3.5877,-3.5918,-3.5976,-3.5996,-3.5996,-3.5996,-3.5996,-3.5996,-3.5996,-3.5996,-3.5996,-3.5947,-3.5912,-3.5892,-3.5795,-3.5699,-3.5603,-3.5603,-3.5565,-1.9912,-2.0068,-2.0041,-1.908,-1.8516,-1.7288,-1.3637,-1.277,-1.1643,-0.7918,-0.7075,-0.6753,-0.5893,-0.7848,-1.051,-1.3179,-1.6456,-1.9467,-2.1987,-2.2758,-2.3078,-2.3078,-2.4105,-2.4851,-2.4851,-2.5823,-2.6428,-2.6428,-2.6428,-2.6811,-2.756,-2.7625,-2.7625,-2.7625,-2.7625,-2.7625,-2.7625,-2.7625,-2.7625,-2.7625,-2.7625,-2.7653,-2.7769,-2.8088,-2.7907,-2.73,-2.7638,-2.7368,-2.6691,-2.6691,-2.6691,-2.6758,-2.7147,-2.7547,-2.8042,-2.9179,-3.0355,-3.155,-3.278,-3.3857,-3.4773,-3.519,-3.5403,-3.5493,-3.5493,-3.5493,-3.5493,-3.5493,-3.5493,-3.5315,-3.443,-3.3545,-3.2718,-3.1936,-3.2378,-3.309,-3.3519,-3.3244,-3.2776,-3.2352,-3.2275,-3.2148,-3.1808,-3.2173,-3.224,-3.1449,-3.1764,-3.2365,-3.3139,-3.3942,-3.4787,-3.5661,-3.5776,-3.5641,-3.5253,-3.5273,-3.5312,-3.5312,-3.5312,-3.5527,-3.5976,-3.5996,-3.5996,-3.5996,-3.593,-3.5872,-3.5795,-3.5699,-3.5622,-3.5565,-3.5565,-3.5545,-1.9652,-1.9775,-1.9445,-1.8128,-1.7488,-1.5931,-1.091,-0.9987,-0.9162,-0.556,-0.4992,-0.5196,-0.5232,-0.6934,-0.9028,-1.124,-1.4417,-1.7514,-2.0128,-2.1613,-2.2605,-2.304,-2.3826,-2.4292,-2.4292,-2.4951,-2.5398,-2.5398,-2.5398,-2.6,-2.7306,-2.7509,-2.7625,-2.7625,-2.7625,-2.7625,-2.7625,-2.7625,-2.7625,-2.7625,-2.7475,-2.7639,-2.8067,-2.7482,-2.7369,-2.7554,-2.7131,-2.6843,-2.6691,-2.6774,-2.6841,-2.6873,-2.7348,-2.7824,-2.8386,-2.9557,-3.0739,-3.193,-3.3233,-3.4168,-3.4851,-3.5335,-3.5493,-3.5493,-3.5493,-3.5493,-3.5493,-3.5493,-3.5493,-3.5353,-3.4661,-3.368,-3.2756,-3.2167,-3.2666,-3.3506,-3.4364,-3.3686,-3.2718,-3.2083,-3.1814,-3.1641,-3.1448,-3.1847,-3.205,-3.167,-3.1988,-3.2516,-3.3215,-3.3895,-3.4653,-3.5545,-3.568,-3.5407,-3.4634,-3.4648,-3.4707,-3.4707,-3.4707,-3.5098,-3.5957,-3.5996,-3.5994,-3.5971,-3.5891,-3.5798,-3.568,-3.5622,-3.5565,-3.5493,-3.5493,-3.5493,-1.8812,-1.9346,-1.902,-1.7633,-1.7207,-1.5931,-1.091,-0.999,-0.9154,-0.5537,-0.4978,-0.5233,-0.5654,-0.594,-0.7164,-1.0465,-1.1653,-1.3872,-1.8748,-1.986,-2.0945,-2.289,-2.3826,-2.4292,-2.4292,-2.4951,-2.5398,-2.5398,-2.5398,-2.5728,-2.6563,-2.7255,-2.7625,-2.7625,-2.7625,-2.7625,-2.7625,-2.7625,-2.7625,-2.761,-2.6961,-2.6903,-2.728,-2.7285,-2.7114,-2.6826,-2.7452,-2.7334,-2.6725,-2.7083,-2.7224,-2.7334,-2.8012,-2.8756,-2.9602,-3.0794,-3.1924,-3.303,-3.4177,-3.4794,-3.5105,-3.5398,-3.5493,-3.5493,-3.5493,-3.5493,-3.5493,-3.5493,-3.5493,-3.5488,-3.5411,-3.416,-3.2872,-3.2814,-3.3506,-3.4391,-3.522,-3.4083,-3.2872,-3.2795,-3.2199,-3.1448,-3.066,-3.1949,-3.2536,-3.0963,-3.2115,-3.3215,-3.3292,-3.3895,-3.4672,-3.5603,-3.5699,-3.5377,-3.4575,-3.4632,-3.4707,-3.4707,-3.4707,-3.5098,-3.5957,-3.5996,-3.597,-3.5912,-3.5775,-3.567,-3.5622,-3.5545,-3.5526,-3.5493,-3.5493,-3.5493,-1.86,-1.9092,-1.8634,-1.7513,-1.6182,-1.4136,-1.034,-0.886,-0.7553,-0.5006,-0.47,-0.4959,-0.5311,-0.5605,-0.6431,-0.8301,-1.0058,-1.199,-1.4348,-1.6362,-1.8313,-2.0196,-2.0655,-2.1369,-2.2747,-2.3122,-2.3479,-2.3975,-2.4439,-2.4851,-2.5175,-2.5892,-2.6269,-2.6269,-2.6707,-2.693,-2.693,-2.7357,-2.7625,-2.761,-2.6901,-2.6826,-2.7185,-2.6796,-2.6673,-2.6708,-2.7012,-2.6962,-2.6725,-2.7147,-2.7303,-2.743,-2.8657,-2.9442,-3.0094,-3.1745,-3.2732,-3.3406,-3.4548,-3.4999,-3.5138,-3.5398,-3.5161,-3.4814,-3.5353,-3.5493,-3.5493,-3.5493,-3.5493,-3.5493,-3.5493,-3.4622,-3.3737,-3.3729,-3.4028,-3.4518,-3.5386,-3.4564,-3.3526,-3.3006,-3.2256,-3.1583,-3.1237,-3.1847,-3.2309,-3.2181,-3.3216,-3.403,-3.4068,-3.4693,-3.5289,-3.5669,-3.5699,-3.5387,-3.4627,-3.4651,-3.4461,-3.3881,-3.4342,-3.4775,-3.5084,-3.5557,-3.5819,-3.5776,-3.5697,-3.5616,-3.5603,-3.5545,-3.5493,-3.5493,-3.5493,-3.5493,-1.7157,-1.8177,-1.8228,-1.7284,-1.5271,-1.2792,-0.993,-0.7972,-0.6236,-0.4533,-0.4386,-0.4666,-0.4932,-0.5258,-0.578,-0.6748,-0.8411,-1.0081,-1.1553,-1.3591,-1.5694,-1.763,-1.8107,-1.8913,-2.057,-2.119,-2.1877,-2.2689,-2.328,-2.3682,-2.3943,-2.4439,-2.4951,-2.5398,-2.5906,-2.6283,-2.651,-2.7049,-2.7357,-2.761,-2.6901,-2.6826,-2.7169,-2.6509,-2.6374,-2.6691,-2.6691,-2.6791,-2.6906,-2.7303,-2.7682,-2.8106,-2.9401,-3.0314,-3.1127,-3.2568,-3.3443,-3.4036,-3.4824,-3.5138,-3.52,-3.5139,-3.4699,-3.4314,-3.493,-3.5122,-3.518,-3.543,-3.5493,-3.5449,-3.518,-3.4891,-3.4616,-3.4341,-3.4473,-3.4845,-3.5435,-3.4853,-3.3949,-3.309,-3.2282,-3.1737,-3.1737,-3.1994,-3.2444,-3.3111,-3.4149,-3.4809,-3.4662,-3.5263,-3.5717,-3.5747,-3.5755,-3.5435,-3.4672,-3.4404,-3.3996,-3.3346,-3.3628,-3.3998,-3.4486,-3.5057,-3.5474,-3.5668,-3.5642,-3.5622,-3.5584,-3.5257,-3.5122,-3.5122,-3.5122,-3.5257,-1.384,-1.6287,-1.7803,-1.6853,-1.4771,-1.2337,-0.9873,-0.7667,-0.5697,-0.4216,-0.4109,-0.4386,-0.4646,-0.4715,-0.508,-0.6222,-0.6426,-0.7779,-1.1648,-1.2217,-1.32,-1.5846,-1.6943,-1.7671,-1.8001,-1.9618,-2.0974,-2.1815,-2.1939,-2.2261,-2.3078,-2.3138,-2.3813,-2.5342,-2.5398,-2.5728,-2.651,-2.651,-2.6878,-2.761,-2.6901,-2.6826,-2.7169,-2.6509,-2.6374,-2.6691,-2.6691,-2.6939,-2.7317,-2.7725,-2.8548,-2.9636,-3.0317,-3.1558,-3.3015,-3.3275,-3.4092,-3.5086,-3.5105,-3.5273,-3.5339,-3.4487,-3.4199,-3.4199,-3.4199,-3.4199,-3.4391,-3.5257,-3.5493,-3.5315,-3.443,-3.4891,-3.5353,-3.4424,-3.4911,-3.5584,-3.5526,-3.4814,-3.3968,-3.3154,-3.2346,-3.1802,-3.1802,-3.2564,-3.3192,-3.3192,-3.4622,-3.5454,-3.478,-3.5284,-3.5755,-3.5886,-3.5893,-3.5565,-3.4672,-3.3816,-3.3304,-3.3292,-3.2439,-3.2692,-3.4441,-3.4576,-3.4916,-3.5584,-3.5661,-3.5641,-3.5493,-3.4622,-3.4199,-3.4199,-3.4199,-3.468,-1.0602,-1.2139,-1.2966,-1.2421,-1.0769,-0.8996,-0.7662,-0.5907,-0.435,-0.3761,-0.3688,-0.3888,-0.4345,-0.4426,-0.4994,-0.6738,-0.7027,-0.7713,-0.9727,-1.1267,-1.2813,-1.4543,-1.7071,-1.8768,-1.8887,-1.9394,-2.0333,-2.1815,-2.1877,-2.2261,-2.3078,-2.3078,-2.3305,-2.3813,-2.4838,-2.5508,-2.5728,-2.6759,-2.7357,-2.761,-2.6853,-2.6712,-2.7153,-2.6409,-2.63,-2.6725,-2.7004,-2.7178,-2.74,-2.8571,-2.9278,-2.9789,-3.1557,-3.2337,-3.254,-3.3372,-3.4028,-3.4482,-3.4482,-3.4932,-3.5372,-3.4468,-3.3795,-3.3314,-3.3314,-3.3718,-3.4372,-3.5257,-3.5493,-3.5449,-3.5161,-3.5315,-3.5468,-3.5161,-3.5334,-3.5545,-3.5493,-3.5276,-3.4666,-3.3269,-3.3282,-3.314,-3.2009,-3.3064,-3.4084,-3.4084,-3.501,-3.5444,-3.4717,-3.4783,-3.4901,-3.4939,-3.4945,-3.5057,-3.5331,-3.4644,-3.3901,-3.3198,-3.289,-3.2974,-3.3506,-3.4083,-3.4812,-3.5659,-3.5642,-3.5315,-3.468,-3.4353,-3.4199,-3.4199,-3.4814,-3.5238,-0.7486,-0.9134,-1.0104,-1.0092,-0.8521,-0.6956,-0.6596,-0.4993,-0.357,-0.3392,-0.3423,-0.3633,-0.4068,-0.415,-0.4672,-0.6311,-0.6583,-0.7252,-0.9213,-1.0645,-1.2213,-1.4194,-1.6415,-1.7955,-1.8311,-1.8613,-1.9562,-2.1302,-2.1428,-2.1865,-2.3065,-2.3078,-2.3078,-2.3078,-2.4337,-2.5119,-2.5398,-2.6602,-2.7306,-2.761,-2.7094,-2.6962,-2.7169,-2.6678,-2.6545,-2.6725,-2.7115,-2.7396,0.0,-2.9034,-2.988,-3.0462,-3.2284,-3.2866,-3.2751,-3.3515,-3.3761,-3.3757,-3.4083,-3.4564,-3.4872,-3.3987,-3.3141,-3.2449,-3.2449,-3.3276,-3.4372,-3.5257,-3.5493,-3.5493,-3.5493,-3.5526,-3.5545,-3.5526,-3.5526,-3.5545,-3.5526,-3.5262,-3.4653,-3.3333,-3.3275,-3.321,-3.246,-3.3293,-3.425,-3.4853,-3.511,-3.521,-3.5098,-3.4749,-3.4611,-3.4894,-3.4936,-3.5007,-3.5127,-3.4464,-3.3762,-3.3147,-3.2461,-3.2384,-3.307,-3.36,-3.4468,-3.5684,-3.5359,-3.4894,-3.4308,-3.3891,-3.3699,-3.3718,-3.4276,-3.4872,0.0,-0.6811,-0.8601,-0.9011,-0.7418,-0.5851,-0.6086,-0.4625,0.0,-0.3107,-0.3287,-0.3555,-0.3886,-0.3899,-0.4237,-0.532,-0.5515,-0.6673,-0.9914,-1.0557,-1.1786,-1.4788,-1.5449,-1.5979,-1.6799,-1.7666,-1.8854,-2.0462,-2.0655,-2.1416,-2.3005,-2.3078,-2.3138,-2.3185,-2.3943,-2.4738,-2.5398,-2.6176,-2.693,-2.7625,-2.7565,-2.7471,-2.7201,-2.7195,-2.6994,-2.6725,-2.7115,-2.753,-2.7979,-2.9188,-3.0374,-3.1526,-3.2632,-3.3181,-3.3335,-3.3669,-3.3379,-3.2917,-3.3795,-3.4141,-3.4064,-3.3179,-3.2314,-3.1621,-3.1679,-3.2872,-3.4372,-3.518,-3.5449,-3.5488,-3.543,-3.5468,-3.5488,-3.543,-3.5468,-3.5474,-3.5416,-3.4826,-3.4068,-3.335,-3.2664,-3.2415,-3.3179,-3.3411,-3.3993,-3.5496,-3.5025,-3.4817,-3.5695,-3.4976,-3.4668,-3.5411,-3.5565,-3.5238,-3.4372,-3.3558,-3.307,-3.3012,-3.141,-3.1275,-3.3031,-3.3222,-3.4043,-3.5664,-3.4834,-3.4309,-3.4116,-3.3295,-3.2891,-3.2891,-3.2968,-3.3891,-0.1111,0.0,-0.3467,-0.3301,-0.3026,-0.2792,0.0,-0.2683,-0.2654,-0.2769,-0.3004,-0.3412,-0.4157,-0.3896,-0.4204,-0.6105,-0.6742,-0.7933,-1.0628,-1.3142,-1.536,-1.7096,-1.7904,-1.8185,-1.7728,-1.911,-2.0139,-2.059,-2.1239,-2.2063,-2.3078,-2.3078,-2.3365,-2.4002,-2.4724,-2.5231,-2.5398,-2.6707,-2.7408,-2.761,-2.7524,-2.7363,-2.7169,-2.7017,-2.6875,-2.6725,-2.7115,-2.753,-2.8032,-2.9862,-3.0919,-3.1581,-3.3263,-3.3198,-3.232,-3.3389,-3.2905,-3.1814,-3.2852,-3.3641,-3.4064,-3.3179,-3.191,-3.0833,-3.1506,-3.2872,-3.4237,-3.4449,-3.4988,-3.5353,-3.468,-3.457,-3.4595,-3.4526,-3.457,-3.4601,-3.4581,-3.4428,-3.4087,-3.3421,-3.3651,-3.4055,-3.4231,-3.4889,-3.5476,-3.5797,-3.5076,-3.4581,-3.4788,-3.3917,-3.3596,-3.443,-3.4545,-3.4737,-3.5161,-3.3904,-3.2788,-3.2064,-3.1621,-3.191,-3.3051,-3.3794,-3.4672,-3.5684,-3.4197,-3.3064,-3.2314,-3.2718,-3.2891,-3.291,-3.3583,-3.4468,0.0,-0.0471,-0.1056,-0.1361,-0.146,-0.1586,-0.1933,-0.2207,-0.2424,-0.2457,-0.2805,-0.3243,-0.3722,-0.397,-0.4568,-0.5976,-0.7433,-0.9399,-1.2149,-1.4428,-1.6182,-1.7295,-1.7795,-1.8208,-1.8556,-1.9431,-2.0333,-2.1175,-2.1616,-2.2261,-2.3078,-2.3078,-2.3305,-2.3721,-2.4509,-2.5231,-2.5906,-2.7034,-2.7625,-2.761,-2.7531,-2.7411,-2.73,-2.7137,-2.694,-2.6799,-2.7156,-2.753,-2.805,-3.0078,-3.1101,-3.1538,-3.2927,-3.3017,-3.2415,-3.2883,-3.2564,-3.1951,-3.2653,-3.2968,-3.2987,-3.2506,-3.1468,-3.0583,-3.148,-3.2372,-3.3256,-3.3987,-3.4564,-3.4834,-3.4378,-3.4647,-3.4905,-3.4369,-3.461,-3.4826,-3.4389,-3.4024,-3.3697,-3.3352,-3.3411,-3.3724,-3.4471,-3.4714,-3.4921,-3.5258,-3.4496,-3.4051,-3.4461,-3.3917,-3.3833,-3.4699,-3.4795,-3.4834,-3.4911,-3.375,-3.2788,-3.2275,-3.191,-3.2122,-3.3064,-3.4012,-3.4516,-3.4555,-3.3203,-3.2242,-3.1698,-3.2506,-3.3103,-3.3506,-3.3968,-3.4661,0.0,-0.0117,-0.0447,-0.1228,-0.1319,-0.1408,-0.2148,-0.234,-0.2338,-0.2227,-0.2676,-0.3176,-0.3394,-0.4178,-0.5047,-0.5855,-0.8282,-1.0953,-1.3584,-1.5042,-1.6023,-1.6635,-1.6914,-1.764,-1.8971,-1.9365,-2.0139,-2.1616,-2.1815,-2.2261,-2.3078,-2.3078,-2.3138,-2.3245,-2.3943,-2.5007,-2.651,-2.7137,-2.7509,-2.7625,-2.7625,-2.7546,-2.7427,-2.7245,-2.7074,-2.6907,-2.7113,-2.747,-2.805,-3.0004,-3.1029,-3.1476,-3.243,-3.2859,-3.292,-3.2671,-3.2445,-3.2308,-3.2601,-3.2179,-3.1525,-3.166,-3.1121,-3.0544,-3.1357,-3.1595,-3.1917,-3.341,-3.3987,-3.4103,-3.3975,-3.4712,-3.5271,-3.4352,-3.4751,-3.5128,-3.4332,-3.3555,-3.3089,-3.328,-3.282,-3.2891,-3.4531,-3.4141,-3.3827,-3.4515,-3.3818,-3.3534,-3.4391,-3.4327,-3.4487,-3.5218,-3.543,-3.5161,-3.4257,-3.348,-3.2987,-3.2852,-3.2244,-3.2359,-3.3442,-3.4097,-3.4052,-3.3192,-3.2261,-3.1761,-3.1698,-3.2372,-3.316,-3.3987,-3.3872,-3.4353,0.0,-0.0664,-0.1217,-0.0723,-0.1134,-0.1642,-0.1514,-0.1871,-0.2231,-0.2202,-0.2676,-0.3471,-0.4735,-0.4857,-0.5442,-0.7379,-1.0435,-1.2706,-1.3258,-1.5771,-1.7379,-1.672,-1.7955,-1.8701,-1.8259,-1.9562,-2.0526,-2.0782,-2.1491,-2.2261,-2.3078,-2.3078,-2.3424,-2.4118,-2.4234,-2.5007,-2.651,-2.6616,-2.6982,-2.7625,-2.7625,-2.7546,-2.7427,-2.7245,-2.7074,-2.6907,-2.6807,-2.7192,-2.8021,-2.9698,-3.0774,-3.1549,-3.3036,-3.3227,-3.2797,-3.3904,-3.2978,-3.1218,-3.1717,-3.1333,-3.0717,-3.1468,-3.1121,-3.0417,-3.0564,-3.066,-3.0898,-3.1898,-3.2756,-3.3199,-3.2462,-3.2974,-3.3641,-3.3417,-3.3528,-3.3632,-3.3478,-3.2781,-3.2413,-3.3223,-3.3298,-3.3769,-3.5488,-3.5078,-3.453,-3.4677,-3.3886,-3.3583,-3.4404,-3.4372,-3.4295,-3.4391,-3.5064,-3.5161,-3.4257,-3.3868,-3.336,-3.2688,-3.2678,-3.3468,-3.5147,-3.4584,-3.3885,-3.3128,-3.2192,-3.1698,-3.1698,-3.1814,-3.2295,-3.3083,-3.2391,-3.291,0.0,-0.0695,-0.141,-0.1281,-0.2429,-0.3757,-0.4482,-0.4765,-0.4587,-0.3697,-0.4028,-0.4551,-0.468,-0.5544,-0.7238,-1.0188,-1.1693,-1.2736,-1.3469,-1.4903,-1.5854,-1.5873,-1.7069,-1.8127,-1.868,-1.9431,-2.0074,-2.059,-2.1428,-2.2063,-2.2445,-2.2884,-2.3245,-2.3662,-2.3649,-2.4163,-2.5287,-2.5287,-2.6094,-2.7625,-2.7625,-2.7364,-2.6974,-2.682,-2.6677,-2.6523,-2.6383,-2.6807,-2.7677,-2.9071,-2.9844,-3.0288,-3.1879,-3.2418,-3.2537,-3.4102,-3.345,-3.1811,-3.2204,-3.1487,-3.0456,-3.0871,-3.0737,-3.0506,-3.1056,-3.0902,-3.0756,-3.1744,-3.2263,-3.2461,-3.2053,-3.3001,-3.3807,-3.2798,-3.3293,-3.3864,-3.3404,-3.3004,-3.2971,-3.3916,-3.4101,-3.4355,-3.5156,-3.457,-3.3848,-3.3418,-3.3287,-3.337,-3.3751,-3.4067,-3.441,-3.4853,-3.4834,-3.4773,-3.4691,-3.4124,-3.3446,-3.2607,-3.266,-3.3393,-3.4845,-3.3993,-3.3365,-3.3108,-3.1718,-3.1448,-3.2352,-3.191,-3.2282,-3.337,-3.2565,-3.2756,0.0,-0.0676,-0.1525,-0.2198,-0.3394,-0.4829,-0.6322,-0.6406,-0.582,-0.4706,-0.4984,-0.5241,-0.4729,-0.6373,-0.8776,-1.178,-1.2148,-1.2352,-1.3395,-1.398,-1.4412,-1.4861,-1.574,-1.6985,-1.8485,-1.868,-1.9145,-2.0204,-2.091,-2.1365,-2.1553,-2.2187,-2.2494,-2.2494,-2.2689,-2.3233,-2.3975,-2.4221,-2.5329,-2.7357,-2.7357,-2.7065,-2.6621,-2.6474,-2.6354,-2.6198,-2.6052,-2.6505,-2.7386,-2.8504,-2.9001,-2.9265,-3.0902,-3.1981,-3.2738,-3.3881,-3.3677,-3.2794,-3.2579,-3.1738,-3.0679,-3.0456,-3.0398,-3.0583,-3.1569,-3.1422,-3.1077,-3.1915,-3.2248,-3.228,-3.2095,-3.3214,-3.4043,-3.2656,-3.3359,-3.4148,-3.3479,-3.3188,-3.3369,-3.4487,-3.4531,-3.4453,-3.4668,-3.3781,-3.2924,-3.2528,-3.2883,-3.3257,-3.3436,-3.3909,-3.4455,-3.5033,-3.4496,-3.4332,-3.485,-3.411,-3.3333,-3.267,-3.2616,-3.3161,-3.4434,-3.3659,-3.3173,-3.3057,-3.1506,-3.1352,-3.2622,-3.1738,-3.1952,-3.3191,-3.2308,-3.2345,0.0,-0.0789,-0.1885,-0.3079,-0.2897,-0.2719,-0.3983,-0.3713,-0.3367,-0.3913,-0.4342,-0.4864,-0.5696,-0.7361,-0.9013,-1.0141,-1.1489,-1.2359,-1.2428,-1.3976,-1.4812,-1.395,-1.4735,-1.5738,-1.6697,-1.6766,-1.7522,-1.9233,-1.9431,-1.9824,-2.0655,-2.0782,-2.0782,-2.0782,-2.1553,-2.2335,-2.3059,-2.3904,-2.5063,-2.6563,-2.6563,-2.6594,-2.6621,-2.6474,-2.6354,-2.6198,-2.6052,-2.6505,-2.7355,-2.8181,-2.8776,-2.9307,-3.1268,-3.2873,-3.3961,-3.3357,-3.3369,-3.3484,-3.1958,-3.1503,-3.1468,-3.066,-3.0398,-3.0583,-3.1511,-3.1806,-3.1844,-3.1987,-3.2636,-3.3122,-3.238,-3.2831,-3.3457,-3.332,-3.3398,-3.3476,-3.3416,-3.281,-3.2752,-3.4375,-3.4043,-3.375,-3.4551,-3.3245,-3.2359,-3.3115,-3.32,-3.3455,-3.4141,-3.4257,-3.4203,-3.3952,-3.3862,-3.3958,-3.424,-3.3523,-3.3034,-3.2952,-3.273,-3.3328,-3.4969,-3.4429,-3.3718,-3.2929,-3.2045,-3.1679,-3.1775,-3.0666,-3.06,-3.1444,-3.04,-3.0769,0.0,-0.0893,-0.1997,-0.2569,-0.279,-0.3555,-0.6054,-0.6452,-0.6215,-0.5902,-0.6092,-0.6504,-0.6993,-0.7882,-0.8765,-0.9602,-1.0116,-1.0688,-1.1286,-1.2464,-1.3411,-1.3665,-1.4601,-1.5376,-1.572,-1.5728,-1.628,-1.7522,-1.8113,-1.8839,-1.9748,-2.0333,-2.059,-2.059,-2.1428,-2.2051,-2.2335,-2.316,-2.4323,-2.5837,-2.6283,-2.6542,-2.6557,-2.6134,-2.5845,-2.5707,-2.558,-2.5892,-2.6556,-2.7407,-2.7705,-2.7826,-3.01,-3.1891,-3.3185,-3.3045,-3.291,-3.2746,-3.2273,-3.1938,-3.166,-3.1314,-3.0852,-3.0583,-3.1549,-3.1882,-3.1923,-3.2074,-3.2733,-3.3086,-3.1738,-3.2383,-3.3144,-3.209,-3.2266,-3.2793,-3.3281,-3.3164,-3.3457,-3.5176,-3.4805,-3.4141,-3.3926,-3.283,-3.2115,-3.2434,-3.2825,-3.3365,-3.4191,-3.3667,-3.3593,-3.4494,-3.4283,-3.4092,-3.4204,-3.3302,-3.2754,-3.2748,-3.282,-3.2977,-3.3278,-3.3729,-3.3242,-3.1759,-3.1541,-3.1389,-3.1267,-3.0297,-3.0181,-3.0829,-2.9945,-3.0032,0.0,-0.0741,-0.1597,-0.2028,-0.2618,-0.3821,-0.6615,-0.7212,-0.7075,-0.6784,-0.6894,-0.7136,-0.7269,-0.7493,-0.7971,-0.8907,-0.8929,-0.9291,-1.0634,-1.136,-1.2098,-1.3164,-1.3882,-1.4378,-1.4665,-1.4736,-1.5226,-1.6498,-1.7151,-1.79,-1.8844,-1.9431,-1.9759,-1.9759,-2.0655,-2.1239,-2.1491,-2.2322,-2.3518,-2.5063,-2.5783,-2.6321,-2.6572,-2.5853,-2.5498,-2.54,-2.5538,-2.5883,-2.6379,-2.6945,-2.7279,-2.7661,-2.9563,-3.1088,-3.2272,-3.2699,-3.253,-3.2071,-3.1993,-3.1806,-3.1527,-3.1258,-3.0823,-3.0583,-3.1588,-3.2095,-3.2357,-3.2528,-3.3364,-3.3769,-3.1816,-3.2344,-3.3047,-3.1641,-3.1953,-3.2734,-3.3281,-3.3613,-3.416,-3.5351,-3.4883,-3.4002,-3.311,-3.2174,-3.1725,-3.2231,-3.2685,-3.3256,-3.4045,-3.3234,-3.2975,-3.396,-3.3836,-3.3814,-3.4031,-3.3165,-3.2614,-3.2614,-3.2761,-3.2635,-3.2107,-3.2861,-3.2572,-3.1032,-3.1132,-3.0999,-3.0599,-2.9944,-2.9814,-3.0215,-2.9832,-2.9991,0.0,-0.0216,-0.0663,-0.1734,-0.2352,-0.3107,-0.471,-0.4789,-0.4872,-0.6088,-0.6283,-0.6269,-0.6359,-0.6261,-0.6606,-0.7783,-0.7843,-0.8456,-1.0484,-1.0783,-1.1162,-1.215,-1.2305,-1.2659,-1.36,-1.3673,-1.4522,-1.6419,-1.6567,-1.7001,-1.794,-1.8008,-1.8008,-1.8008,-1.8854,-1.9748,-2.059,-2.1491,-2.2725,-2.435,-2.5063,-2.5834,-2.6587,-2.5835,-2.5461,-2.5462,-2.6143,-2.6661,-2.7081,-2.6956,-2.7793,-2.9178,-3.0006,-3.0746,-3.1494,-3.2302,-3.2249,-3.1691,-3.0884,-3.0922,-3.1172,-3.0318,-3.0215,-3.0602,-3.1607,-3.2511,-3.322,-3.3355,-3.4648,-3.5391,-3.2851,-3.2793,-3.3203,-3.2383,-3.2793,-3.3398,-3.3398,-3.4082,-3.4707,-3.4707,-3.4004,-3.3105,-3.2162,-3.1241,-3.1154,-3.2769,-3.2955,-3.3114,-3.3719,-3.3096,-3.2384,-3.1859,-3.2293,-3.2944,-3.3733,-3.3073,-3.2588,-3.2596,-3.257,-3.2342,-3.1818,-3.207,-3.1826,-3.1014,-3.0996,-3.058,-2.9696,-2.9494,-2.9392,-2.9411,-2.9945,-3.0632,-0.0228,-0.0757,-0.1272,-0.1366,-0.2488,-0.3697,-0.411,-0.4666,-0.5384,-0.6177,-0.627,-0.627,-0.6379,-0.6301,-0.6408,-0.6785,-0.6834,-0.748,-0.9442,-0.9744,-1.0346,-1.2077,-1.2305,-1.2445,-1.2659,-1.2732,-1.3237,-1.445,-1.5234,-1.6009,-1.7001,-1.7647,-1.8008,-1.8008,-1.9431,-2.0333,-2.059,-2.2051,-2.3505,-2.5063,-2.4794,-2.5301,-2.652,-2.632,-2.6251,-2.6242,-2.6779,-2.7099,-2.7284,-2.7433,-2.8492,-2.997,-3.0219,-3.0746,-3.1421,-3.1659,-3.1537,-3.1186,-3.096,-3.1561,-3.2371,-3.2121,-3.1719,-3.1487,-3.2517,-3.2569,-3.2435,-3.3199,-3.4219,-3.4624,-3.2584,-3.2736,-3.3047,-3.1621,-3.1934,-3.2715,-3.3281,-3.4082,-3.4707,-3.4707,-3.396,-3.3238,-3.2949,-3.1935,-3.1774,-3.3626,-3.371,-3.3325,-3.2745,-3.2807,-3.2521,-3.1616,-3.2665,-3.3532,-3.377,-3.2839,-3.2101,-3.1788,-3.0961,-3.0805,-3.1494,-3.2877,-3.2605,-3.0469,-3.1169,-3.0777,-2.9206,-2.9138,-2.9406,-2.9982,-3.0129,-3.0338,-0.059,-0.1097,-0.1547,-0.1359,-0.2282,-0.3275,-0.3466,-0.4711,-0.5895,-0.6186,-0.621,-0.6252,-0.6317,-0.6243,-0.6245,-0.6313,-0.6303,-0.7022,-0.8998,-0.9296,-1.0051,-1.2077,-1.2305,-1.2305,-1.2305,-1.2305,-1.2659,-1.36,-1.4243,-1.5155,-1.6498,-1.7139,-1.7774,-1.8462,-1.9562,-2.0398,-2.1112,-2.2125,-2.3166,-2.415,-2.456,-2.4929,-2.5384,-2.6199,-2.6579,-2.6654,-2.7425,-2.7692,-2.7632,-2.8106,-2.8595,-2.9162,-2.9662,-3.0176,-3.0732,-3.1206,-3.1366,-3.1317,-3.1198,-3.186,-3.2713,-3.2275,-3.1962,-3.1852,-3.2517,-3.2599,-3.2654,-3.3644,-3.453,-3.4776,-3.2974,-3.2951,-3.292,-3.1229,-3.1777,-3.2715,-3.2891,-3.3867,-3.4489,-3.3778,-3.3117,-3.2648,-3.2554,-3.1813,-3.1747,-3.3252,-3.293,-3.2411,-3.207,-3.1952,-3.188,-3.1887,-3.2742,-3.3405,-3.356,-3.2812,-3.2111,-3.1672,-3.1109,-3.1125,-3.1861,-3.2354,-3.1861,-3.0228,-3.0845,-3.0457,-2.8994,-2.9305,-2.9732,-3.0228,-3.087,-3.098,-0.0935,-0.1183,-0.1476,-0.1516,-0.1717,-0.2168,-0.2895,-0.4608,-0.6025,-0.6103,-0.5993,-0.594,-0.6234,-0.6146,-0.6098,-0.6237,-0.6338,-0.6945,-0.8922,-0.9226,-0.9976,-1.1929,-1.2224,-1.2305,-1.2305,-1.2305,-1.2666,-1.3528,-1.3673,-1.4522,-1.6349,-1.6558,-1.7385,-1.91,-1.9243,-2.0074,-2.1753,-2.1877,-2.2128,-2.2604,-2.4412,-2.479,-2.3919,-2.5683,-2.6542,-2.6675,-2.7879,-2.8304,-2.8151,-2.8757,-2.8442,-2.7656,-2.8694,-2.9382,-2.9898,-3.0991,-3.1565,-3.1759,-3.1468,-3.1912,-3.2425,-3.1412,-3.1426,-3.1838,-3.1954,-3.2497,-3.3267,-3.43,-3.5048,-3.5193,-3.3685,-3.3234,-3.2754,-3.1094,-3.2089,-3.3203,-3.2458,-3.3551,-3.415,-3.2338,-3.1819,-3.1638,-3.1538,-3.128,-3.1349,-3.2147,-3.1313,-3.0889,-3.171,-3.0937,-3.0864,-3.2397,-3.2562,-3.2703,-3.3051,-3.2657,-3.2256,-3.196,-3.2274,-3.247,-3.2614,-3.1201,-3.0393,-3.032,-3.0246,-2.9819,-2.9057,-2.9819,-3.0259,-3.04,-3.1818,-3.2137,-0.0806,-0.0642,-0.0365,-0.0586,-0.1204,-0.1971,-0.2874,-0.3435,-0.4059,-0.4844,-0.498,-0.528,-0.6177,-0.6234,-0.622,-0.6254,-0.6338,-0.6718,-0.7936,-0.8765,-0.9744,-1.1013,-1.1848,-1.2305,-1.2305,-1.2305,-1.2372,-1.2592,-1.331,-1.4243,-1.5446,-1.621,-1.7129,-1.8259,-1.8911,-1.9824,-2.0846,-2.1565,-2.282,-2.4761,-2.4614,-2.5052,-2.5973,-2.6416,-2.6552,-2.6608,-2.785,-2.8304,-2.8213,-2.8757,-2.9214,-2.9528,-2.9207,-2.9862,-3.1052,-3.1286,-3.1584,-3.1725,-3.1179,-3.1713,-3.249,-3.1847,-3.1738,-3.1881,-3.1968,-3.1642,-3.1593,-3.3227,-3.327,-3.2909,-3.3147,-3.2755,-3.1997,-3.0884,-3.2034,-3.333,-3.3103,-3.3877,-3.4098,-3.2264,-3.1731,-3.1705,-3.2252,-3.1937,-3.1893,-3.2705,-3.1563,-3.0889,-3.171,-3.1399,-3.1411,-3.2063,-3.2172,-3.2216,-3.2264,-3.135,-3.0998,-3.1514,-3.1356,-3.1674,-3.2551,-3.2284,-3.1788,-3.1146,-3.0522,-2.9953,-2.9474,-2.9953,-3.0684,-3.1618,-3.1642,-3.1898,-0.1082,-0.0939,-0.0682,-0.0277,-0.0524,-0.0941,-0.1488,-0.1643,-0.1956,-0.2971,-0.3986,-0.4844,-0.5392,-0.5944,-0.6338,-0.6338,-0.6338,-0.6795,-0.8313,-0.8993,-0.982,-1.1316,-1.1996,-1.2305,-1.2305,-1.2305,-1.2305,-1.2305,-1.3171,-1.4171,-1.5163,-1.607,-1.7189,-1.8586,-1.9044,-1.9694,-2.059,-2.1491,-2.2565,-2.3821,-2.4506,-2.5292,-2.6123,-2.6123,-2.6398,-2.693,-2.7609,-2.8144,-2.8594,-2.8677,-2.8953,-2.9302,-2.8909,-2.9746,-3.1125,-3.0913,-3.1543,-3.2435,-3.1631,-3.1975,-3.2669,-3.1903,-3.1503,-3.142,-3.193,-3.1495,-3.1076,-3.2436,-3.2726,-3.2531,-3.2108,-3.1994,-3.1864,-3.1352,-3.198,-3.2579,-3.2035,-3.2569,-3.2713,-3.1188,-3.0706,-3.0791,-3.1525,-3.1297,-3.1182,-3.1612,-3.0946,-3.0687,-3.1483,-3.1653,-3.1837,-3.2229,-3.2498,-3.2455,-3.2047,-3.2004,-3.2053,-3.2238,-3.2089,-3.227,-3.2857,-3.2306,-3.188,-3.1692,-3.1273,-3.0668,-2.9851,-3.0668,-3.1184,-3.1423,-3.179,-3.199,-0.1346,-0.1299,-0.1121,-0.0075,0.0078,0.0,0.0,0.0,-0.0235,-0.1176,-0.2817,-0.4219,-0.4375,-0.5315,-0.6025,-0.6025,-0.618,-0.6872,-0.8542,-0.8922,-0.975,-1.1552,-1.1922,-1.2077,-1.2298,-1.2305,-1.2305,-1.2305,-1.3025,-1.3882,-1.4879,-1.586,-1.7111,-1.8757,-1.8967,-1.9497,-2.0398,-2.1239,-2.1849,-2.2284,-2.4269,-2.5294,-2.5396,-2.5314,-2.5906,-2.6993,-2.7329,-2.8001,-2.8834,-2.8647,-2.8568,-2.8519,-2.8415,-2.9375,-3.073,-3.0235,-3.1359,-3.2972,-3.1853,-3.2031,-3.256,-3.1463,-3.0948,-3.0859,-3.1526,-3.123,-3.0859,-3.1738,-3.2187,-3.2141,-3.0995,-3.1118,-3.1527,-3.148,-3.1484,-3.1339,-3.0727,-3.111,-3.118,-2.9833,-2.9537,-2.9747,-3.059,-3.0429,-3.0301,-3.0577,-3.0393,-3.054,-3.1476,-3.191,-3.2254,-3.2647,-3.2881,-3.2733,-3.2083,-3.2911,-3.335,-3.3015,-3.3141,-3.3154,-3.3075,-3.2058,-3.1639,-3.1954,-3.1763,-3.1171,-3.0173,-3.1201,-3.1427,-3.0912,-3.171,-3.1847,-0.0946,-0.0661,-0.0127,0.0881,0.0541,0.0,0.0,0.0,-0.0079,-0.0157,-0.1176,-0.227,-0.3124,-0.4217,-0.4921,-0.4921,-0.5709,-0.6412,-0.6641,-0.748,-0.8389,-0.9599,-1.049,-1.1316,-1.2224,-1.2305,-1.2305,-1.2305,-1.2445,-1.2879,-1.3818,-1.4879,-1.586,-1.6904,-1.7774,-1.8596,-1.9497,-2.0333,-2.146,-2.2862,-2.4051,-2.464,-2.465,-2.4103,-2.4541,-2.5837,-2.7389,-2.8157,-2.8351,-2.9058,-2.9181,-2.89,-2.8542,-2.9178,-3.0222,-2.9647,-3.0504,-3.1827,-3.0652,-3.0875,-3.146,-2.9978,-3.0141,-3.0753,-3.0077,-2.9824,-2.9961,-3.082,-3.0019,-2.916,-3.0385,-3.0173,-2.9663,-2.9732,-2.9655,-2.9889,-3.1099,-3.1445,-3.095,-2.903,-2.9064,-2.9808,-3.1078,-3.0693,-3.0668,-3.2082,-3.1091,-3.0742,-3.2265,-3.2488,-3.2666,-3.3085,-3.2604,-3.2166,-3.2029,-3.2206,-3.2278,-3.2173,-3.2805,-3.3014,-3.2616,-3.2411,-3.2191,-3.183,-3.0838,-3.0402,-3.0508,-3.0466,-3.0703,-3.1217,-3.0384,-3.0509,-0.014,0.0241,0.0792,0.1854,0.1789,0.1504,0.1504,0.1128,0.0755,0.0766,0.0,-0.1003,-0.203,-0.3125,-0.3982,-0.4608,-0.5079,-0.578,-0.6942,-0.7553,-0.8161,-0.9145,-0.9669,-1.034,-1.1391,-1.1465,-1.1694,-1.2224,-1.2806,-1.3237,-1.3673,-1.4665,-1.5649,-1.6558,-1.7001,-1.7628,-1.8596,-1.9944,-2.1478,-2.3256,-2.4104,-2.4345,-2.4067,-2.4028,-2.4519,-2.5353,-2.5722,-2.6809,-2.832,-2.806,-2.8511,-2.9257,-2.8402,-2.8662,-2.9439,-2.8706,-2.9072,-2.9889,-2.9859,-2.9991,-3.0114,-2.9427,-2.9622,-2.9956,-2.9038,-2.8828,-2.8848,-2.873,-2.8496,-2.8437,-2.916,-2.9057,-2.8851,-2.9284,-2.8972,-2.8706,-2.9164,-2.9167,-2.8896,-2.8241,-2.8322,-2.8824,-2.9885,-2.9769,-2.9934,-3.1091,-3.1035,-3.1199,-3.2138,-3.2665,-3.2845,-3.2582,-3.2636,-3.2614,-3.2347,-3.2785,-3.2938,-3.2708,-3.2755,-3.2616,-3.2127,-3.1878,-3.1677,-3.1487,-3.1237,-3.1063,-3.0936,-3.0629,-3.0527,-3.0614,-2.9904,-2.988,0.0,0.0,0.0945,0.2281,0.2417,0.2317,0.2597,0.2178,0.168,0.1638,0.1122,0.0376,-0.069,-0.1861,-0.3047,-0.4139,-0.453,-0.5309,-0.7169,-0.7363,-0.7728,-0.8761,-0.8869,-0.9376,-1.0703,-1.0783,-1.1242,-1.2224,-1.2952,-1.331,-1.331,-1.4307,-1.5226,-1.621,-1.6498,-1.707,-1.8008,-1.9565,-2.1292,-2.3063,-2.3568,-2.3639,-2.3459,-2.379,-2.4158,-2.4516,-2.4559,-2.5855,-2.792,-2.7309,-2.7942,-2.9196,-2.8182,-2.8172,-2.8576,-2.7613,-2.7624,-2.8169,-2.8669,-2.8994,-2.9167,-2.8954,-2.9175,-2.9349,-2.8459,-2.8099,-2.7832,-2.7187,-2.7305,-2.7695,-2.7906,-2.7944,-2.8062,-2.8617,-2.8213,-2.7736,-2.7822,-2.7297,-2.704,-2.774,-2.7503,-2.7585,-2.8773,-2.881,-2.9135,-3.0453,-3.1002,-3.1473,-3.2056,-3.2763,-3.2949,-3.2372,-3.2929,-3.3229,-3.2936,-3.3359,-3.3465,-3.3045,-3.2583,-3.2109,-3.166,-3.1351,-3.1106,-3.092,-3.1456,-3.1542,-3.119,-3.0737,-3.0507,-3.037,-2.965,-2.9412,0.0,-0.0182,0.0,0.1943,0.1719,0.1275,0.2413,0.2685,0.2614,0.2617,0.2619,0.2256,0.1313,-0.0379,-0.2035,-0.3046,-0.4059,-0.5079,-0.6257,-0.6208,-0.6539,-0.7761,-0.7693,-0.8463,-1.0611,-1.0783,-1.1242,-1.2224,-1.2378,-1.2372,-1.2372,-1.3237,-1.4243,-1.5234,-1.614,-1.707,-1.8008,-1.9244,-2.0624,-2.2178,-2.1875,-2.2089,-2.2734,-2.2783,-2.2717,-2.2757,-2.4944,-2.623,-2.6855,-2.7537,-2.8102,-2.8428,-2.7986,-2.7824,-2.7702,-2.632,-2.6425,-2.7198,-2.6667,-2.7663,-2.9068,-2.8315,-2.8714,-2.9352,-2.8463,-2.7663,-2.7051,-2.7012,-2.6445,-2.6033,-2.686,-2.6972,-2.6889,-2.6933,-2.68,-2.7059,-2.842,-2.717,-2.6246,-2.7792,-2.6706,-2.6245,-2.8613,-2.8374,-2.8772,-3.149,-3.1289,-3.1236,-3.2335,-3.2885,-3.3196,-3.316,-3.3532,-3.3762,-3.3733,-3.3447,-3.3045,-3.255,-3.2109,-3.166,-3.1269,-3.123,-3.0869,-3.0176,-3.0874,-3.123,-3.119,-3.0501,-3.0521,-3.1179,-2.9333,-2.8863,0.0,0.0,0.0,0.1823,0.2464,0.2847,0.322,0.3403,0.3535,0.3525,0.3113,0.2632,0.2244,0.1106,-0.0299,-0.1865,-0.2463,-0.3058,-0.4103,-0.4732,-0.5231,-0.5644,-0.612,-0.6977,-0.8413,-0.9073,-0.9641,-1.0166,-1.0767,-1.1132,-1.1304,-1.1675,-1.2558,-1.4171,-1.4379,-1.5368,-1.7229,-1.8166,-1.9261,-2.0487,-2.0752,-2.1121,-2.1471,-2.1865,-2.1959,-2.1859,-2.2964,-2.4248,-2.5552,-2.5631,-2.6165,-2.688,-2.6432,-2.6121,-2.5921,-2.5764,-2.5693,-2.5782,-2.6744,-2.7637,-2.8321,-2.8025,-2.8588,-2.9108,-2.7718,-2.716,-2.6992,-2.6992,-2.6743,-2.6664,-2.7536,-2.7285,-2.6801,-2.6753,-2.6956,-2.7485,-2.8578,-2.798,-2.7529,-2.8476,-2.7724,-2.753,-2.9439,-2.9108,-2.9009,-3.0261,-3.0648,-3.091,-3.1285,-3.2424,-3.3075,-3.2777,-3.3136,-3.3419,-3.3419,-3.3014,-3.255,-3.2057,-3.188,-3.164,-3.123,-3.119,-3.1193,-3.117,-3.0717,-3.0497,-3.0497,-3.0243,-3.0135,-3.0138,-2.8947,-2.8296,-0.086,-0.0417,0.0,0.0796,0.1811,0.2925,0.3818,0.4238,0.4556,0.5205,0.4659,0.3932,0.3655,0.2824,0.1493,-0.0796,-0.1381,-0.1963,-0.2978,-0.3815,-0.4448,-0.4488,-0.5253,-0.6168,-0.7203,-0.7849,-0.8401,-0.8975,-0.9559,-0.9912,-1.0149,-1.0385,-1.1473,-1.3353,-1.3546,-1.4371,-1.597,-1.6589,-1.7402,-1.8385,-1.9128,-1.9682,-2.0092,-2.101,-2.1198,-2.0898,-2.1491,-2.2799,-2.451,-2.4348,-2.5002,-2.6054,-2.547,-2.5096,-2.4932,-2.5112,-2.4978,-2.4881,-2.6148,-2.6931,-2.7432,-2.7841,-2.8386,-2.8752,-2.7983,-2.7606,-2.744,-2.744,-2.7389,-2.7445,-2.7946,-2.7566,-2.7052,-2.6982,-2.7255,-2.7722,-2.8427,-2.8106,-2.7901,-2.8569,-2.7981,-2.7783,-2.8985,-2.8742,-2.8578,-2.9112,-3.0016,-3.0592,-3.0507,-3.1923,-3.2777,-3.2316,-3.2681,-3.2983,-3.2983,-3.2681,-3.2384,-3.2057,-3.2022,-3.1721,-3.1073,-3.1035,-3.0854,-3.0451,-2.9989,-2.9736,-2.9736,-2.9736,-2.9807,-2.9885,-2.8715,-2.7822,0.0,0.0,0.0,-0.1184,-0.0383,0.116,0.4048,0.4879,0.5578,0.7486,0.7261,0.6355,0.5519,0.4604,0.3129,0.043,-0.0869,-0.1885,-0.2827,-0.3613,-0.4219,-0.4395,-0.5096,-0.5978,-0.7033,-0.7191,-0.7615,-0.8529,-0.8669,-0.8674,-0.8754,-0.9603,-1.0917,-1.2691,-1.3669,-1.4188,-1.418,-1.4451,-1.5041,-1.5988,-1.6952,-1.787,-1.8691,-2.0136,-2.0433,-1.9885,-2.0887,-2.2264,-2.3788,-2.3892,-2.4766,-2.5935,-2.5154,-2.4865,-2.4797,-2.4368,-2.4339,-2.4545,-2.4746,-2.5473,-2.6505,-2.7704,-2.8099,-2.8289,-2.9294,-2.8965,-2.8268,-2.83,-2.8245,-2.8134,-2.7885,-2.7737,-2.7618,-2.7537,-2.7578,-2.7728,-2.8073,-2.7492,-2.7195,-2.7997,-2.7352,-2.6779,-2.7206,-2.7241,-2.7469,-2.8233,-2.9358,-3.0114,-3.0034,-3.1429,-3.2246,-3.1809,-3.2177,-3.2464,-3.2449,-3.2431,-3.2413,-3.2413,-3.2413,-3.1894,-3.0734,-3.0664,-2.9782,-2.791,-2.8621,-2.9028,-2.9045,-2.9045,-2.9568,-3.0595,-2.8663,-2.7402,-0.0804,0.0,0.0,0.0,0.0,0.0,0.0516,0.1793,0.3567,0.5494,0.569,0.5727,0.6201,0.5592,0.4686,0.3936,0.1911,0.0411,0.0137,-0.1157,-0.2107,-0.2189,-0.2993,-0.3596,-0.3958,-0.4563,-0.4801,-0.4555,-0.5669,-0.6553,-0.6746,-0.8318,-0.9306,-0.9664,-1.0486,-1.1104,-1.156,-1.2181,-1.3224,-1.4634,-1.5505,-1.6581,-1.7901,-1.9317,-2.0329,-2.0996,-2.1717,-2.2499,-2.3272,-2.279,-2.3032,-2.3661,-2.3934,-2.3867,-2.3746,-2.441,-2.467,-2.476,-2.5068,-2.5757,-2.6683,-2.7629,-2.8019,-2.8267,-2.9114,-2.8433,-2.7481,-2.8068,-2.8173,-2.8182,-2.8449,-2.8499,-2.8417,-2.8206,-2.855,-2.8914,-2.9022,-2.8482,-2.8323,-2.9398,-2.8675,-2.8123,-2.8825,-2.8246,-2.7674,-2.7608,-2.832,-2.8779,-2.8488,-2.9592,-3.0558,-3.0959,-3.0896,-3.1066,-3.1582,-3.083,-3.0449,-3.0759,-3.0482,-3.0311,-3.0264,-3.0002,-2.9744,-2.9554,-2.9178,-2.943,-3.0213,-2.9938,-2.9675,-2.9413,-2.7776,-2.6894,-0.0753,-0.0865,-0.0876,-0.1136,0.0,0.0,0.1026,0.1873,0.3436,0.6737,0.7089,0.7061,0.7649,0.7037,0.6441,0.6441,0.4782,0.3259,0.2534,0.0601,-0.0736,-0.0736,-0.194,-0.2678,-0.2678,-0.3137,-0.3293,-0.2877,-0.3759,-0.4736,-0.5641,-0.6749,-0.7595,-0.822,-0.8717,-0.9102,-0.9476,-0.9895,-1.1002,-1.2599,-1.3705,-1.5117,-1.6765,-1.8498,-1.9669,-2.0387,-2.1121,-2.1818,-2.2425,-2.2209,-2.2424,-2.2947,-2.3346,-2.3508,-2.3645,-2.4403,-2.4731,-2.4847,-2.5084,-2.5518,-2.6143,-2.7495,-2.801,-2.8255,-2.9093,-2.8735,-2.8058,-2.8136,-2.8296,-2.8578,-2.9148,-2.9235,-2.9109,-2.8874,-2.8839,-2.8925,-2.9172,-2.8663,-2.8452,-2.9502,-2.8891,-2.8354,-2.8801,-2.8191,-2.75,-2.7115,-2.7969,-2.8472,-2.7876,-2.875,-2.954,-2.9953,-2.9916,-3.0091,-3.0497,-3.0226,-3.0137,-3.0368,-3.0332,-3.0112,-2.969,-2.9457,-2.9158,-2.8749,-2.8271,-2.8696,-3.0004,-2.9748,-2.9245,-2.8484,-2.7588,-2.6996,-0.0604,-0.0835,-0.0834,-0.1101,-0.1029,0.0,0.3241,0.324,0.3907,0.879,0.9135,0.8543,0.8688,0.8086,0.7526,0.7526,0.6912,0.5977,0.4504,0.2062,0.0467,0.0467,-0.1068,-0.214,-0.2274,-0.2274,-0.2275,-0.241,-0.2477,-0.3274,-0.4926,-0.4992,-0.5851,-0.7637,-0.7632,-0.7632,-0.7827,-0.7962,-0.8784,-1.0362,-1.1936,-1.3709,-1.5621,-1.7654,-1.8795,-1.9239,-2.0173,-2.1022,-2.1744,-2.2135,-2.266,-2.3241,-2.3264,-2.3584,-2.4082,-2.4422,-2.467,-2.4847,-2.4993,-2.5034,-2.5363,-2.7234,-2.7913,-2.8109,-2.8998,-2.9227,-2.9013,-2.8178,-2.8338,-2.8922,-2.9531,-2.962,-2.9511,-2.9283,-2.8702,-2.8326,-2.8768,-2.8278,-2.7944,-2.8718,-2.8358,-2.7918,-2.783,-2.7537,-2.7178,-2.6825,-2.7941,-2.8539,-2.7792,-2.8356,-2.8818,-2.8829,-2.9093,-2.936,-2.9516,-3.0155,-3.0558,-3.0585,-3.0854,-3.0412,-2.9087,-2.8936,-2.8211,-2.6791,-2.6809,-2.7486,-2.8856,-2.8941,-2.8583,-2.782,-2.7668,-2.723,-0.0114,-0.1036,-0.1144,-0.0995,-0.0925,0.0,0.0017,0.0218,0.1082,0.4029,0.4158,0.4025,0.4856,0.4885,0.4799,0.4799,0.5233,0.5661,0.6053,0.4441,0.3191,0.3191,0.2267,0.1337,0.0602,0.0536,0.0201,-0.0471,-0.1208,-0.2072,-0.3125,-0.3201,-0.4008,-0.5885,-0.5143,-0.5463,-0.6915,-0.7632,-0.8544,-0.9576,-1.1176,-1.3152,-1.5342,-1.6865,-1.8772,-2.0941,-2.1888,-2.2573,-2.3061,-2.3464,-2.3562,-2.3469,-2.3753,-2.4008,-2.4309,-2.4733,-2.4955,-2.5057,-2.519,-2.5273,-2.5503,-2.661,-2.695,-2.7147,-2.8063,-2.7863,-2.7277,-2.7036,-2.7497,-2.8044,-2.7797,-2.8202,-2.8555,-2.8204,-2.8482,-2.868,-2.8158,-2.7679,-2.7453,-2.7944,-2.8179,-2.8101,-2.7453,-2.7324,-2.7321,-2.7345,-2.7226,-2.7114,-2.6962,-2.7051,-2.7327,-2.7756,-2.7859,-2.8354,-2.9479,-2.9143,-2.9011,-2.9314,-2.8855,-2.8577,-2.855,-2.7977,-2.7504,-2.7178,-2.7453,-2.774,-2.8061,-2.867,-2.869,-2.808,-2.6902,-2.6056,0.0,0.0,0.0,-0.0684,0.0,0.0,0.0,0.1158,0.2066,0.3891,0.4016,0.4021,0.4547,0.4658,0.462,0.4545,0.5686,0.6426,0.5906,0.5549,0.5298,0.5298,0.4122,0.3135,0.2669,0.2272,0.181,0.141,0.0536,-0.0401,-0.1332,-0.1737,-0.2611,-0.4015,-0.4408,-0.5067,-0.5986,-0.7302,-0.8667,-0.9945,-1.1176,-1.3177,-1.5909,-1.7196,-1.9017,-2.1227,-2.2198,-2.2902,-2.3424,-2.3992,-2.4239,-2.4286,-2.4238,-2.4396,-2.4733,-2.4937,-2.5111,-2.5264,-2.534,-2.539,-2.5592,-2.644,-2.671,-2.6827,-2.7222,-2.6737,-2.6217,-2.6937,-2.7125,-2.709,-2.7062,-2.7639,-2.8166,-2.7877,-2.8117,-2.8282,-2.7879,-2.7346,-2.6968,-2.716,-2.7579,-2.7846,-2.7716,-2.7528,-2.7313,-2.713,-2.6871,-2.6696,-2.6704,-2.6705,-2.664,-2.6522,-2.6654,-2.7237,-2.8436,-2.7977,-2.7707,-2.7879,-2.7549,-2.7341,-2.7295,-2.697,-2.6657,-2.6456,-2.6978,-2.708,-2.6708,-2.7114,-2.7179,-2.6883,-2.6286,-2.5475,0.0,0.0,0.0,0.0,0.0,-0.0133,0.0,0.0,0.0,0.4095,0.4272,0.4269,0.4285,0.4266,0.4242,0.4103,0.5339,0.5903,0.4744,0.5782,0.652,0.6152,0.5195,0.4341,0.3781,0.3023,0.2611,0.2945,0.221,0.1338,0.0334,-0.0401,-0.1473,-0.2878,-0.4135,-0.5124,-0.5778,-0.7418,-0.9197,-1.1098,-1.1951,-1.4041,-1.7236,-1.8025,-1.9514,-2.1521,-2.2203,-2.2933,-2.3656,-2.4118,-2.4639,-2.512,-2.4701,-2.478,-2.512,-2.5091,-2.522,-2.5409,-2.5427,-2.5456,-2.5615,-2.6267,-2.6631,-2.6735,-2.6432,-2.6068,-2.5943,-2.6842,-2.6683,-2.627,-2.6407,-2.7028,-2.7585,-2.7395,-2.7457,-2.753,-2.7365,-2.69,-2.649,-2.649,-2.6903,-2.7409,-2.7951,-2.7897,-2.7642,-2.7195,-2.6887,-2.6488,-2.5926,-2.586,-2.5592,-2.4944,-2.5144,-2.5817,-2.7081,-2.6876,-2.6703,-2.6774,-2.6578,-2.6395,-2.6207,-2.6135,-2.5922,-2.5609,-2.5982,-2.5848,-2.5186,-2.5073,-2.5176,-2.5429,-2.5675,-2.5102,0.0,0.0,0.0,-0.047,-0.0407,-0.0354,-0.0055,0.0,0.0432,0.0571,0.0,0.0597,0.0606,0.0,0.0,0.0424,0.0538,0.1119,0.2515,0.5165,0.6302,0.449,0.5528,0.5446,0.3097,0.2298,0.2412,0.3747,0.3551,0.2676,0.1198,0.1069,-0.0468,-0.3747,-0.3278,-0.4452,-0.7584,-0.8548,-1.0526,-1.3342,-1.4218,-1.6461,-1.9768,-1.9186,-2.0498,-2.3198,-2.2955,-2.3454,-2.4445,-2.4102,-2.4512,-2.5335,-2.512,-2.5128,-2.5283,-2.534,-2.5418,-2.5495,-2.5493,-2.5497,-2.5514,-2.5674,-2.6209,-2.6622,-2.5726,-2.6327,-2.7039,-2.5678,-2.5639,-2.5846,-2.4989,-2.537,-2.5931,-2.572,-2.6209,-2.6539,-2.5844,-2.5885,-2.608,-2.608,-2.6404,-2.6856,-2.7385,-2.8226,-2.8816,-2.8754,-2.7584,-2.5758,-2.3128,-2.2778,-2.2767,-2.2677,-2.2716,-2.3649,-2.5965,-2.6108,-2.6286,-2.6774,-2.5848,-2.5553,-2.6189,-2.586,-2.5641,-2.5609,-2.4679,-2.4029,-2.3646,-2.3229,-2.3654,-2.4891,-2.4939,-2.4645,0.0,0.1548,0.1948,0.081,0.1384,0.1801,0.0239,0.0,0.0099,0.0013,0.0,0.0,0.0,0.0,0.0,0.0,-0.0256,0.0087,0.0695,0.4482,0.6624,0.5066,0.4951,0.4839,0.4385,0.4645,0.5058,0.5529,0.5014,0.3882,0.2204,0.1606,0.0402,-0.1611,-0.2272,-0.3848,-0.6387,-0.9015,-1.1713,-1.4478,-1.6119,-1.7921,-1.9808,-2.0116,-2.1035,-2.2284,-2.2613,-2.2986,-2.3353,-2.3012,-2.3157,-2.3596,-2.3563,-2.43,-2.5428,-2.5447,-2.5505,-2.5542,-2.5508,-2.5217,-2.4775,-2.4258,-2.4619,-2.5216,-2.5143,-2.5573,-2.6003,-2.5532,-2.5264,-2.4893,-2.3893,-2.4561,-2.5392,-2.4834,-2.5309,-2.5764,-2.5211,-2.5222,-2.5254,-2.5117,-2.5674,-2.6233,-2.6327,-2.7816,-2.8109,-2.5498,-2.6031,-2.6241,-2.5014,-2.3358,-2.2303,-2.2299,-2.2293,-2.342,-2.6173,-2.5362,-2.4815,-2.5045,-2.4476,-2.4235,-2.456,-2.4805,-2.4746,-2.4323,-2.3597,-2.3124,-2.2934,-2.2115,-2.2232,-2.3203,-2.3203,-2.2911,0.3659,0.3736,0.4201,0.1856,0.2292,0.2748,0.0651,0.0157,0.0112,0.0026,0.0,0.0,0.0,0.0,0.0,0.0,0.0,-0.0156,-0.0278,0.2934,0.0,0.0,0.0,0.3667,0.4752,0.6366,0.6976,0.6039,0.5523,0.4517,0.2749,0.1979,0.0995,-0.0333,-0.1598,-0.3495,-0.6157,-0.889,-1.211,-1.5794,-1.6967,-1.8065,-1.8963,-1.9678,-1.9987,-2.0027,-2.0936,-2.1505,-2.1733,-2.1659,-2.1835,-2.2139,-2.2168,-2.3267,-2.4806,-2.4815,-2.5004,-2.5195,-2.4919,-2.4464,-2.3898,-2.319,-2.3601,-2.4396,-2.451,-2.4993,-2.5485,-2.5291,-2.4835,-2.4207,-2.3254,-2.3694,-2.4282,-2.3676,-2.3931,-2.4344,-2.4512,-2.4538,-2.4615,-2.4839,-2.5164,-2.5407,-2.5295,-2.6336,-2.6324,-2.3885,-2.5312,-2.6688,-2.6684,-2.4125,-2.2314,-2.2316,-2.2308,-2.3474,-2.6463,-2.5408,-2.4247,-2.3442,-2.3414,-2.3393,-2.3393,-2.39,-2.3934,-2.341,-2.2642,-2.2359,-2.2604,-2.1392,-2.1145,-2.1793,-2.1963,-2.1922,0.6729,0.5325,0.4753,0.2134,0.1394,0.1166,0.0683,0.0276,0.0,0.0,0.0,0.0,0.0,0.0,0.0,0.0,0.0,0.0,0.0,0.0,0.0,0.0,0.0,0.0,0.0,0.6073,0.688,0.4277,0.4602,0.4192,0.2588,0.2471,0.1286,-0.1161,-0.1322,-0.3584,-0.8265,-0.8036,-1.1245,-1.7775,-1.6386,-1.6332,-1.7565,-1.7213,-1.6777,-1.6436,-1.7631,-1.881,-1.9917,-2.0305,-2.0961,-2.1703,-2.1646,-2.2223,-2.3086,-2.3086,-2.3627,-2.4217,-2.3366,-2.3054,-2.3028,-2.2863,-2.3839,-2.4854,-2.3699,-2.4992,-2.6451,-2.4579,-2.4135,-2.4025,-2.3217,-2.2464,-2.1913,-2.1894,-2.1698,-2.1909,-2.334,-2.3788,-2.4358,-2.5772,-2.5076,-2.4295,-2.4431,-2.3362,-2.3427,-2.616,-2.6634,-2.6684,-2.6677,-2.4136,-2.2316,-2.228,-2.2306,-2.3488,-2.6432,-2.6642,-2.5402,-2.2547,-2.3004,-2.3393,-2.3393,-2.341,-2.341,-2.3393,-2.1869,-2.1553,-2.2604,-2.108,-2.0671,-2.1321,-2.1845,-2.2433,1.07,1.1075,1.0607,0.4379,0.5644,0.7187,0.2462,0.1191,0.0841,0.0302,0.0546,0.0714,0.0,0.0,0.0,0.0,0.0,0.0,0.0,0.0,0.0,0.0,0.0,0.0,0.0,0.0,0.0,0.5717,0.6315,0.5944,0.403,0.395,0.3045,0.106,0.1007,-0.0555,-0.3829,-0.6303,-0.9511,-1.3392,-1.4351,-1.4523,-1.4061,-1.3684,-1.2876,-1.1859,-1.4613,-1.618,-1.6891,-1.8427,-1.9613,-2.0441,-2.0326,-2.1077,-2.2268,-2.2793,-2.3208,-2.3353,-2.2354,-2.1894,-2.1656,-2.1062,-2.1475,-2.2267,-2.2706,-2.3345,-2.3853,-2.3559,-2.3153,-2.2506,-2.1215,-2.0898,-2.0918,-2.0834,-2.0995,-2.1333,-2.2036,-2.2996,-2.3646,-2.3423,-2.3828,-2.38,-2.2508,-2.1969,-2.2518,-2.4879,-2.3423,-2.2407,-2.3292,-2.2519,-2.1545,-2.0671,-2.1617,-2.2834,-2.4146,-2.3978,-2.3358,-2.235,-2.222,-2.2219,-2.2219,-2.2219,-2.2098,-2.1805,-2.1279,-2.1467,-2.2382,-2.1151,-2.1129,-2.2228,-2.1522,-2.1305,1.4169,1.4744,1.436,0.8783,0.9205,0.9719,0.4828,0.3621,0.3038,0.133,0.1075,0.1207,0.0,0.0,0.0,0.0,0.0,0.0,0.0,0.0,0.0,0.0,0.0,0.0,0.0,0.0,0.0,0.0,0.0,0.0,0.0,0.493,0.4713,0.3409,0.3322,0.1949,-0.0949,-0.3612,-0.6613,-1.0036,-1.0283,-0.9773,-0.8476,-0.7563,-0.6201,-0.4804,-0.8738,-1.131,-1.2986,-1.6343,-1.8466,-1.9604,-1.9349,-2.0065,-2.1296,-2.1793,-2.1934,-2.178,-2.1017,-2.0578,-2.0337,-2.0172,-2.0437,-2.1027,-2.2021,-2.2494,-2.2729,-2.2779,-2.22,-2.1256,-2.007,-1.9797,-1.9804,-1.9705,-1.9855,-2.0202,-2.0945,-2.1547,-2.1988,-2.205,-2.2713,-2.2754,-2.1229,-2.0734,-2.1103,-2.2679,-2.1134,-1.9924,-2.0223,-2.0695,-2.066,-1.9791,-2.0693,-2.1627,-2.2231,-2.192,-2.1694,-2.1698,-2.1505,-2.1399,-2.1399,-2.1399,-2.1275,-2.1007,-2.0829,-2.124,-2.2315,-2.0961,-2.1169,-2.2694,-2.1332,-2.0842]}]]